GFSWCAN_con_lsi_000.txt.gz
Lid_Strength_Index
2 2 2 2 1 1 1 2 2 2 2 2 2 2 2 2 2 3 5 3 6 8 9 8 8 11 11 10 13 12 13 12 12 14 14 14 14 13 14 12 13 15 16 16 15 17 19 9 10 13 10 8 9 10
1 1 2 2 1 1 1 1 2 2 2 2 2 2 2 2 2 2 6 3 3 7 8 5 6 5 6 7 9 12 13 16 12 14 14 13 16 14 15 18 12 16 15 18 16 15 11 10 12 12 9 12 11 11
2 2 1 2 1 1 1 1 1 1 2 2 1 1 1 1 1 2 5 4 4 7 8 8 9 6 5 5 4 11 11 9 11 10 12 14 16 13 19 18 16 15 13 16 17 13 14 14 12 11 11 13 12 12
2 2 2 2 2 2 1 1 2 1 1 2 1 1 1 1 1 2 5 4 5 6 11 11 6 7 4 4 4 4 6 6 7 9 12 15 19 12 16 13 15 15 14 16 17 15 14 12 12 12 12 13 14 13
2 2 2 2 2 2 2 2 2 2 2 1 1 1 1 1 1 2 3 3 3 7 10 10 9 7 5 4 5 4 5 7 7 9 11 14 12 12 12 12 15 12 14 16 17 13 13 13 13 12 16 16 16 13
2 3 2 2 2 2 2 2 2 2 2 1 1 2 2 2 1 3 7 4 2 2 7 11 7 9 5 5 5 5 5 5 6 8 9 8 7 9 15 16 11 9 9 9 12 15 14 12 12 13 15 16 17 18
2 3 3 2 2 2 2 2 2 2 2 1 1 1 2 2 3 6 7 5 1 1 7 10 10 8 5 5 7 6 4 6 6 7 8 8 8 8 11 14 10 9 10 13 12 15 15 14 16 15 15 16 16 17
3 3 3 2 2 2 2 2 2 2 1 2 1 1 1 1 1 4 2 0 0 3 5 11 11 10 6 10 11 6 7 6 6 7 8 9 9 9 13 10 9 13 14 13 14 14 15 15 15 16 16 16 19 19
3 3 3 3 2 2 2 2 2 1 1 1 1 1 2 4 6 5 -0 -1 0 4 8 9 15 17 7 9 7 7 7 11 7 9 9 11 12 15 11 10 14 16 16 16 16 16 15 17 18 18 18 20 21 21
3 3 3 3 3 2 2 1 1 1 0 1 2 4 8 5 0 0 3 5 5 5 6 10 8 11 8 9 10 10 8 11 16 13 9 13 13 9 13 15 15 15 15 15 19 21 20 20 20 20 21 20 20 21
3 3 3 3 2 2 1 1 0 -0 1 3 6 6 3 0 3 6 8 9 9 13 9 13 10 11 7 11 12 8 12 12 15 16 16 20 21 11 15 16 16 16 16 18 19 19 19 19 21 21 21 21 22 22
3 3 2 2 2 2 1 0 -0 1 2 3 3 2 2 5 9 11 12 11 12 16 14 14 13 11 10 8 12 10 13 12 17 16 19 22 13 18 19 20 19 18 20 21 20 21 21 21 21 22 22 23 23 22
3 2 2 2 2 1 0 -0 -1 -1 -0 1 4 6 7 8 12 13 14 15 19 16 15 15 16 11 10 7 9 10 13 14 15 18 20 17 19 21 22 22 22 22 22 23 23 22 23 23 22 23 24 23 23 24
3 2 2 2 1 0 -1 -1 -1 -0 2 6 8 11 11 13 13 17 18 17 16 13 15 13 14 10 12 11 9 14 12 14 17 19 20 23 25 27 24 23 25 24 25 25 25 24 24 24 23 23 23 23 24 24
2 2 1 1 -0 -1 -1 -1 -1 1 4 7 8 14 12 10 14 18 17 18 17 15 14 15 16 10 14 13 10 14 16 17 17 19 26 25 24 24 24 24 25 25 25 26 25 25 25 24 25 25 25 25 24 24
1 1 2 -0 -1 -1 -1 -0 1 2 6 8 11 13 19 16 17 18 19 21 17 15 14 14 15 14 15 14 16 19 21 21 20 30 27 24 25 25 25 25 25 26 25 25 25 26 25 25 26 26 26 25 24 25
1 2 -0 -0 -0 -1 -1 3 5 8 10 12 18 20 21 22 24 24 22 20 17 18 17 13 14 14 13 13 16 24 24 30 29 27 26 27 26 25 25 25 25 25 25 26 26 25 25 24 25 26 27 26 25 25
3 2 -0 -0 1 2 3 3 6 8 12 16 17 24 24 23 24 25 23 19 19 18 18 17 17 16 15 17 24 30 29 27 26 26 25 25 25 25 25 26 25 25 26 26 26 25 25 26 26 27 27 26 26 26
2 2 1 0 1 6 8 8 9 13 19 20 20 20 22 24 22 21 23 19 19 19 19 19 19 21 29 29 32 32 31 30 28 26 25 25 25 26 25 25 25 26 26 26 25 25 25 25 26 26 27 26 27 27
-0 0 1 1 2 8 13 12 9 16 21 19 20 22 21 22 23 25 25 21 19 20 23 25 30 31 30 30 29 28 26 25 26 28 28 26 25 26 26 25 26 27 26 25 25 24 25 25 25 26 26 27 27 27
5 4 3 5 9 11 14 14 15 16 18 20 20 19 22 22 27 27 26 21 22 24 27 32 33 30 31 32 29 28 26 26 27 28 29 28 26 26 25 26 27 27 27 26 26 26 25 26 25 25 26 26 26 26
7 6 9 8 11 14 16 16 16 14 18 22 21 22 27 30 31 29 23 26 26 31 32 32 32 31 31 31 29 28 27 28 26 26 26 27 28 27 27 27 28 29 28 26 26 26 26 25 24 24 25 25 25 25
9 10 14 16 18 19 22 16 20 20 22 23 24 26 28 31 27 23 25 31 32 29 31 31 31 30 27 26 27 27 27 27 27 28 28 28 27 25 26 27 28 29 30 27 25 25 26 25 25 24 24 24 25 25
14 19 22 23 22 25 22 23 20 21 22 23 25 29 30 30 23 26 32 35 31 28 28 29 27 27 27 27 28 27 27 27 27 28 28 29 29 27 25 26 27 28 29 27 26 26 26 26 26 26 26 26 26 26
23 31 26 30 26 27 27 29 28 24 26 25 26 28 29 27 28 32 32 33 31 30 28 28 28 27 29 28 26 26 25 26 27 28 28 28 29 27 28 27 27 28 29 29 29 28 28 28 28 29 29 29 29 29
33 33 35 31 30 32 30 34 33 30 27 28 29 29 28 28 31 33 33 31 30 29 29 29 29 28 27 27 28 27 27 26 26 26 27 28 29 30 30 30 30 28 28 30 29 30 29 29 30 31 31 32 31 31
34 36 32 31 29 28 30 30 30 29 30 31 32 30 28 31 34 32 30 27 28 28 27 26 26 26 26 26 25 25 26 26 26 26 25 26 27 28 29 31 32 30 29 31 31 31 32 32 32 32 33 35 37 37
34 35 36 36 37 37 38 35 34 36 34 33 34 33 31 32 33 30 27 25 27 26 26 25 25 25 25 25 25 26 27 26 26 26 26 27 28 30 31 32 31 25 30 31 31 29 31 35 37 37 37 36 36 38
37 37 35 36 37 35 36 37 38 37 35 38 37 34 33 31 31 31 27 25 26 26 27 26 25 26 26 26 26 28 30 31 30 31 32 31 31 30 31 33 34 34 36 39 30 26 26 32 35 38 40 40 39 42
36 37 33 36 35 36 37 38 38 38 37 37 38 34 32 33 31 29 28 28 28 28 28 29 30 31 32 33 32 31 33 33 33 32 34 34 32 33 35 34 34 35 37 40 35 35 29 34 34 38 39 39 39 39
39 42 38 37 37 39 41 44 44 42 41 43 44 41 38 38 35 34 29 30 31 36 35 35 36 38 37 39 40 40 34 36 35 34 36 36 35 34 33 33 33 36 38 38 37 39 36 36 38 39 39 38 37 37
43 44 40 37 37 42 44 44 44 43 43 43 41 45 41 40 37 34 33 33 37 36 31 34 37 29 32 31 35 34 30 33 35 32 33 31 31 31 30 30 32 34 35 33 33 33 34 34 35 36 35 35 35 35
47 48 48 43 40 40 44 44 42 42 43 43 42 46 46 41 35 32 33 35 31 29 28 29 28 31 32 31 31 31 30 30 30 25 23 24 25 25 26 28 30 31 31 30 30 31 32 33 33 33 34 34 33 34

GFSWCAN_con_lsi_003.txt.gz
Lid_Strength_Index
2 1 1 1 1 1 1 0 0 0 0 1 1 1 1 1 1 3 6 4 6 9 10 9 9 12 11 13 18 17 16 16 16 18 20 16 18 15 16 15 15 15 16 16 14 17 18 10 11 16 15 12 13 14
1 1 1 1 1 1 1 1 0 0 0 0 1 1 1 1 1 1 7 4 3 7 9 7 6 6 7 8 12 15 14 18 14 18 21 20 20 18 18 20 12 17 14 17 16 16 13 11 13 13 11 13 14 14
1 1 1 1 1 1 1 1 1 1 1 0 0 0 1 1 1 1 6 5 6 7 9 8 9 6 5 5 5 11 14 9 10 10 17 18 24 16 23 22 18 14 12 14 15 13 13 13 11 10 11 12 13 13
1 1 1 1 1 1 1 1 1 1 1 1 1 1 1 1 1 1 5 5 5 7 11 12 7 8 5 5 5 5 7 7 8 10 13 17 20 12 18 15 15 14 12 16 15 13 12 12 12 13 13 15 16 16
1 1 1 1 2 2 1 2 2 1 1 1 1 1 1 1 0 1 4 4 4 7 13 11 10 8 7 6 6 6 6 7 9 10 14 16 13 11 12 11 13 10 12 14 15 11 12 12 12 12 16 17 18 18
1 1 1 1 2 2 2 1 2 1 1 1 1 1 1 1 1 4 9 5 3 4 8 12 9 12 7 7 7 7 6 6 7 8 10 9 8 9 13 20 10 9 8 8 10 11 12 12 11 11 15 15 16 18
1 2 1 1 2 2 2 2 2 1 1 1 1 1 1 1 2 6 10 6 2 2 7 11 14 12 8 9 10 8 7 7 7 7 8 8 8 7 10 13 9 8 7 10 11 12 11 11 13 13 13 14 16 18
1 2 2 2 2 2 2 2 2 1 1 1 1 1 1 1 2 6 4 1 2 4 5 11 12 10 8 12 12 7 8 7 6 7 8 9 8 8 12 9 8 7 11 12 12 12 12 12 13 13 14 16 18 19
2 2 2 2 2 2 2 2 2 2 1 1 1 1 4 6 9 6 1 0 1 5 9 10 16 19 9 10 9 11 7 12 6 9 9 11 11 14 12 9 9 13 14 15 14 15 15 15 16 16 17 18 19 19
2 2 2 2 2 2 2 2 2 1 1 1 3 6 12 6 1 2 3 6 6 5 6 10 16 16 9 11 12 10 9 11 13 13 9 11 12 8 9 14 15 15 16 16 19 19 20 20 19 19 19 18 18 19
2 2 2 2 2 2 2 2 2 2 1 4 6 8 7 0 5 6 9 9 9 13 9 14 10 12 8 13 12 8 11 11 14 16 17 25 23 11 16 18 17 17 17 18 19 19 19 20 20 21 21 20 21 21
3 3 3 3 3 2 2 2 2 3 3 4 4 2 3 5 7 10 11 10 11 15 18 16 15 11 12 8 11 10 12 13 15 20 20 22 13 20 22 21 20 20 21 22 21 21 21 20 20 21 22 23 22 22
3 2 2 2 2 2 2 1 1 0 0 3 5 8 8 8 12 14 15 16 23 20 19 18 16 11 12 8 11 12 13 14 18 19 20 18 21 22 24 23 23 22 23 22 23 22 23 23 23 23 24 23 23 24
3 3 2 2 2 2 2 1 0 0 3 6 8 11 12 14 11 13 14 17 16 18 18 17 19 13 17 11 10 13 11 14 17 19 20 28 26 27 25 23 24 24 24 24 25 24 24 24 24 24 24 24 25 25
3 2 2 2 2 1 1 0 -1 1 6 8 8 14 12 12 17 20 19 19 17 16 13 15 17 10 19 15 11 15 17 19 19 20 28 26 25 24 23 23 25 25 25 26 25 25 25 25 26 25 24 23 24 25
2 2 4 1 1 0 -0 -0 2 3 5 7 11 13 22 17 19 19 20 21 17 16 16 17 16 14 16 16 16 18 20 21 21 33 30 25 25 25 26 26 26 25 26 26 25 25 26 26 26 25 24 24 24 24
2 6 1 0 -1 -0 -0 5 5 8 9 11 22 25 24 24 23 26 25 21 17 20 21 17 17 17 14 17 20 26 24 31 31 28 29 27 28 27 26 26 26 26 26 26 26 26 26 25 24 25 26 26 25 25
6 4 0 -0 1 2 5 8 9 10 16 18 19 26 24 25 27 29 28 20 20 21 22 20 18 20 19 20 24 32 30 29 28 32 28 26 29 27 27 27 26 26 25 26 27 26 24 24 25 26 26 25 25 26
3 2 -0 0 2 7 8 10 10 20 23 24 20 21 24 26 22 22 26 22 21 20 20 22 21 23 29 32 35 37 38 36 31 27 26 27 27 29 28 27 25 26 27 27 26 25 24 24 25 25 25 25 26 26
1 1 1 3 3 9 13 13 14 20 24 21 23 25 23 24 26 31 30 23 20 22 24 26 32 33 31 32 31 31 29 27 28 29 28 27 26 28 26 25 26 27 27 26 25 24 24 24 24 24 25 25 27 26
5 4 4 8 12 14 17 17 19 21 21 23 23 23 23 25 32 33 31 22 24 25 28 32 29 29 30 32 33 35 29 28 30 31 30 29 26 25 25 26 27 27 28 27 26 25 25 25 24 24 25 25 25 25
7 6 11 10 13 18 18 17 18 18 23 26 24 26 32 33 32 33 26 30 28 32 31 28 28 31 36 35 33 34 31 32 29 27 26 26 28 27 27 27 28 29 28 27 26 26 26 25 24 24 24 24 24 24
9 10 14 16 17 20 24 20 23 22 26 27 28 29 31 32 30 25 29 35 34 31 34 34 34 36 34 31 29 29 28 29 28 28 28 28 27 26 26 27 28 30 30 28 26 26 27 26 26 25 25 25 25 25
14 20 23 24 24 28 25 27 23 25 24 26 27 30 30 30 26 29 33 40 34 34 33 32 30 29 28 28 29 29 29 27 27 28 28 29 28 27 26 27 28 29 30 29 27 27 27 28 27 28 28 27 27 27
22 30 28 32 27 29 31 32 29 27 30 28 28 29 29 30 30 33 33 35 36 34 30 29 29 27 30 29 26 26 26 27 27 28 27 28 28 27 27 27 27 29 29 30 30 29 29 28 29 29 30 31 31 30
35 34 35 34 31 33 31 35 34 32 31 30 30 31 32 29 32 31 33 35 33 30 30 29 29 29 28 26 27 26 26 25 26 26 26 27 28 29 29 30 29 28 29 30 31 31 30 30 30 31 32 33 33 35
36 37 35 34 31 29 33 31 31 31 33 33 35 30 29 31 32 32 32 28 28 29 27 26 26 26 26 26 25 25 25 25 26 26 25 26 27 29 30 32 31 30 30 31 32 33 32 32 32 33 35 37 40 40
35 38 35 36 37 37 37 38 36 36 34 32 34 35 30 30 32 31 27 25 28 26 26 26 25 24 25 24 24 25 26 28 27 28 29 28 28 29 30 31 31 25 29 31 31 30 31 33 37 39 40 40 40 40
38 40 37 38 39 38 39 38 39 40 37 40 37 34 34 32 32 31 28 26 27 26 27 26 25 25 26 27 28 29 30 31 30 30 31 31 31 29 30 32 33 33 34 38 30 26 26 28 33 37 38 39 38 44
38 41 35 38 37 37 38 40 41 43 42 39 40 34 33 33 31 29 28 28 27 27 26 27 29 30 30 31 31 29 32 32 31 31 33 33 31 33 37 35 34 34 37 41 34 35 31 35 34 38 38 37 39 39
44 44 40 41 38 42 43 47 48 45 44 45 47 41 39 38 35 36 31 32 34 37 35 34 36 40 36 37 39 40 33 35 34 32 33 34 35 35 34 33 33 36 39 39 38 39 36 36 38 37 37 36 35 35
46 45 40 36 38 43 46 46 47 44 46 44 43 48 42 41 38 34 35 35 37 36 31 35 35 29 32 30 35 34 30 34 36 32 33 31 32 31 30 30 32 38 37 34 34 34 33 33 32 33 33 34 34 34
49 51 51 45 41 41 45 45 44 43 45 45 44 47 48 42 35 32 33 35 31 28 28 29 28 30 32 31 31 30 30 30 31 25 24 24 26 26 28 29 31 32 32 31 30 30 31 31 31 32 33 33 33 33

GFSWCAN_con_lsi_006.txt.gz
Lid_Strength_Index
2 2 2 2 2 2 1 1 1 1 1 -0 -0 -0 -0 -0 -0 1 4 3 5 8 9 9 9 11 11 13 18 17 16 17 16 18 23 17 20 15 18 16 17 18 19 20 18 22 20 12 13 17 14 12 12 13
2 2 1 1 1 1 1 1 1 0 0 -0 -0 -0 -0 -0 0 0 5 3 2 7 9 6 6 6 6 8 11 15 14 19 14 19 22 22 24 23 22 26 15 20 16 20 17 17 12 11 11 11 9 13 13 13
1 1 0 0 0 0 0 0 0 0 0 0 -0 -0 -0 -0 -0 1 5 5 4 6 7 9 9 6 5 5 5 10 14 9 10 10 17 15 20 17 25 23 19 15 13 16 17 14 12 11 10 9 9 11 12 12
1 0 0 0 0 1 1 0 0 1 1 1 1 0 0 0 0 0 5 4 4 6 11 11 8 8 5 5 5 5 7 8 8 9 11 14 19 13 18 15 16 15 14 15 14 12 10 10 10 10 10 11 12 12
0 0 0 0 0 0 1 1 1 1 1 1 1 1 1 0 0 1 3 4 3 6 11 13 13 8 7 6 7 6 7 7 8 10 11 14 15 14 15 12 15 12 12 13 15 10 9 10 9 9 11 12 12 13
0 0 0 0 0 0 1 1 1 1 1 1 1 1 1 1 1 4 7 4 3 3 8 16 10 12 8 7 7 8 8 8 8 9 10 10 9 10 13 16 12 10 9 8 9 7 8 8 8 9 12 12 12 13
1 1 1 1 1 1 1 1 1 1 1 1 1 0 1 1 3 6 7 6 3 3 7 11 15 13 9 10 11 9 8 7 7 7 9 9 9 8 10 13 10 8 7 7 8 10 11 9 11 11 11 12 13 14
1 1 1 1 1 1 1 1 1 1 1 1 1 1 1 0 1 4 2 2 1 4 6 12 14 14 11 15 14 8 8 7 7 8 10 9 8 8 12 9 8 7 7 9 11 11 12 12 13 13 14 14 16 16
1 1 1 1 1 2 2 1 1 1 1 1 1 1 3 4 6 7 1 -0 1 5 11 16 18 15 9 10 10 12 8 11 7 9 9 9 10 13 11 9 9 14 15 16 15 15 15 17 17 16 16 17 18 18
2 2 2 2 1 2 2 2 2 1 1 1 3 6 8 7 2 2 5 7 7 7 7 14 19 18 10 12 13 13 10 11 13 12 8 10 12 8 16 16 16 17 17 18 20 20 21 20 19 19 19 18 18 19
2 2 2 2 2 2 2 2 2 2 2 5 6 8 6 2 6 8 10 11 11 12 8 10 10 11 8 12 13 8 11 11 14 16 16 26 23 13 18 19 19 18 18 19 20 20 20 20 21 21 20 20 20 21
2 2 2 2 2 2 2 2 2 3 5 5 5 4 4 6 9 11 13 13 13 13 18 16 13 10 11 9 13 11 13 12 16 23 20 22 16 21 22 22 20 20 22 23 22 22 21 20 20 21 22 23 23 23
3 3 2 2 2 2 2 2 2 2 2 3 5 8 8 9 13 14 19 21 22 19 18 17 14 10 11 9 12 13 15 17 20 21 19 17 21 22 24 23 23 22 23 22 22 21 22 23 23 24 24 23 24 25
3 2 3 2 2 2 2 1 1 1 3 7 9 12 12 16 16 17 18 20 18 16 20 17 16 13 16 13 11 16 15 17 21 21 20 28 26 28 25 23 24 24 24 24 25 25 25 25 25 24 25 25 25 25
3 3 2 2 2 2 2 1 1 2 4 7 8 12 13 19 23 23 24 19 19 17 15 16 13 9 15 12 11 14 16 20 20 20 27 28 25 24 24 24 25 26 26 26 26 26 26 26 26 26 25 24 23 23
2 2 4 2 2 1 1 1 2 3 5 8 11 14 20 19 21 22 20 18 17 15 13 12 14 13 15 13 14 17 21 22 20 34 32 28 30 29 29 28 27 27 27 27 26 26 26 26 27 26 24 23 23 24
1 8 1 1 1 0 0 3 4 8 9 14 22 26 24 22 22 25 24 21 17 19 18 15 16 17 14 15 18 22 22 31 35 34 32 31 30 29 29 29 28 28 28 27 26 26 27 27 26 24 25 24 24 24
10 5 1 0 1 1 4 6 8 13 19 19 24 28 25 26 25 26 25 20 19 19 21 20 18 23 23 24 23 31 34 36 35 33 28 28 30 31 30 29 28 28 28 27 28 28 27 25 25 25 25 24 25 24
4 1 -0 -0 2 6 8 11 13 20 23 25 23 24 25 27 23 22 24 21 20 21 21 23 25 26 27 32 34 38 39 37 35 28 27 29 28 30 30 29 28 30 29 28 27 25 24 24 24 24 24 24 26 25
2 2 2 3 4 9 13 15 16 21 26 23 24 28 26 26 27 33 32 23 20 25 25 25 30 35 31 30 28 28 27 27 32 35 32 28 28 32 29 27 26 27 26 26 25 24 24 24 23 23 24 24 25 26
5 5 5 8 13 14 16 17 20 21 22 25 26 25 26 29 34 34 33 24 26 24 29 35 36 32 32 32 31 33 30 29 32 32 33 32 26 26 25 26 26 27 27 27 27 26 26 26 25 24 24 24 24 24
8 6 12 10 14 17 18 18 20 21 24 27 26 30 35 34 35 35 28 31 29 33 34 34 35 36 37 35 34 34 34 37 35 31 26 26 27 27 26 27 28 29 28 28 27 27 27 26 25 25 24 24 23 24
11 11 15 17 19 22 23 22 25 24 28 28 32 31 31 35 33 25 29 36 35 32 37 37 37 39 36 35 33 33 33 33 32 30 29 28 27 26 26 26 28 30 30 29 27 27 27 26 26 26 26 25 26 26
15 22 23 25 25 29 28 28 26 28 28 30 31 33 33 35 28 31 33 41 35 37 36 36 36 33 32 32 33 32 31 29 28 28 28 28 27 27 26 27 28 29 29 29 28 28 28 28 28 28 29 29 28 28
21 30 28 33 30 30 33 34 33 31 33 33 33 33 32 31 31 34 34 36 38 39 35 34 32 32 33 31 28 28 28 27 27 27 27 27 27 26 26 26 26 28 28 30 30 30 30 29 29 30 31 32 33 33
35 36 35 37 34 33 35 35 36 34 34 34 32 33 35 31 33 34 35 37 40 34 31 29 30 30 29 28 27 27 26 26 26 27 25 26 27 28 28 29 29 28 29 32 33 33 32 30 31 32 32 33 33 36
37 38 36 36 34 34 35 33 32 31 33 33 34 32 30 33 35 32 36 33 29 29 28 27 27 27 26 27 25 25 24 25 25 25 25 25 26 28 29 31 31 29 31 32 34 36 35 33 32 33 35 37 41 41
37 39 36 37 37 39 39 38 36 35 33 31 32 32 31 29 31 32 29 26 29 27 26 27 26 25 26 24 24 24 25 27 27 28 29 29 28 28 29 29 30 24 28 31 31 31 33 33 32 34 38 38 38 41
39 41 38 39 40 39 40 38 39 40 38 40 36 33 32 31 31 32 28 27 28 26 27 27 26 25 25 25 26 27 29 30 30 30 30 30 30 28 29 30 32 33 33 37 30 25 26 26 28 32 35 36 37 43
38 43 37 40 38 37 38 41 42 45 45 41 41 36 34 32 30 29 29 28 27 26 25 26 27 27 29 31 31 30 33 32 30 29 32 32 31 32 36 36 34 33 36 40 34 33 30 33 33 36 36 36 37 37
45 45 41 42 38 42 45 49 51 48 47 47 50 42 40 39 36 34 31 30 33 37 35 35 37 40 36 36 38 38 32 34 34 32 32 33 34 34 33 32 32 36 39 38 37 37 35 36 37 36 35 35 34 34
47 46 41 36 39 44 48 48 49 45 47 45 42 49 42 40 37 33 35 35 37 36 31 35 35 29 32 30 36 33 30 32 36 32 32 31 31 30 30 30 32 36 36 34 34 34 34 34 33 32 32 33 33 33
51 52 53 46 42 41 46 45 44 43 45 45 44 48 49 43 35 32 34 36 33 30 30 30 29 33 33 32 31 30 29 29 30 25 23 24 25 25 27 29 31 32 32 31 30 30 31 31 30 30 31 31 31 32

GFSWCAN_con_lsi_009.txt.gz
Lid_Strength_Index
2 2 2 2 2 3 2 2 2 2 2 2 1 1 -0 -1 -1 1 3 2 5 8 8 8 8 10 10 12 17 16 15 17 16 19 24 17 22 17 19 16 17 20 25 27 28 29 25 13 14 17 15 12 11 11
2 2 2 2 2 2 1 1 1 1 1 0 -0 -0 -0 -1 -1 -1 4 2 2 6 7 7 6 5 6 7 10 15 12 18 13 18 21 21 24 23 22 26 14 21 18 22 19 20 12 11 12 10 10 11 11 11
2 2 1 1 1 1 1 1 1 0 0 0 -0 -0 -0 -1 -1 -0 3 4 4 6 7 7 8 6 5 5 5 10 11 9 10 10 14 14 18 16 23 22 18 15 13 16 18 13 13 11 10 10 10 10 10 10
1 1 1 1 1 0 0 0 0 0 0 0 -0 -0 -0 -0 -1 -1 2 3 4 6 10 11 8 8 4 5 5 5 7 8 8 8 10 13 17 12 15 15 16 14 14 16 15 13 11 11 9 9 9 9 10 10
1 0 0 0 0 0 -0 -0 -0 0 0 0 0 -0 -0 0 -0 0 1 2 2 6 13 11 11 8 7 6 7 6 7 8 8 10 11 13 13 12 13 12 15 12 13 14 15 11 9 10 9 8 9 10 11 12
0 0 -0 -0 -0 -0 -0 -0 -0 -0 0 0 0 0 0 0 0 3 6 3 3 3 7 12 9 12 8 7 8 8 7 7 7 9 10 9 10 10 13 15 12 10 9 8 10 8 8 8 7 9 11 11 11 11
1 1 0 0 -0 -0 -0 0 0 0 0 0 1 1 0 0 2 5 7 6 2 2 7 11 12 13 10 10 12 9 8 8 7 9 10 9 10 8 11 14 10 9 8 8 7 9 10 9 10 12 11 12 13 14
1 1 1 0 0 0 0 0 0 0 0 1 1 1 0 0 1 4 2 2 2 4 6 11 17 17 12 15 15 9 9 8 8 9 10 9 8 8 12 10 8 7 8 9 13 12 13 13 13 14 14 14 16 16
2 2 1 1 1 0 0 0 0 1 1 1 1 1 2 3 6 6 0 0 2 5 10 11 17 18 11 12 11 12 8 11 7 10 9 9 10 13 11 9 10 16 16 17 16 16 16 17 17 16 17 17 18 17
2 2 2 1 1 1 0 1 1 1 1 1 3 6 8 6 2 1 4 6 6 7 7 12 20 20 11 13 18 16 10 11 13 11 9 10 12 8 15 17 17 18 18 18 20 19 21 21 19 19 19 18 18 18
2 2 2 1 2 1 1 1 1 1 1 4 7 8 6 2 5 7 10 11 10 12 10 15 14 14 11 17 16 9 11 10 14 16 14 17 21 13 18 20 19 18 19 20 20 20 20 20 21 20 20 20 21 21
3 2 2 2 1 1 1 1 0 2 4 4 4 4 4 6 8 11 12 11 12 16 20 14 12 11 14 9 10 9 11 11 15 19 20 25 16 22 22 22 21 20 22 23 22 22 21 20 20 21 23 23 23 23
3 2 2 2 2 1 1 1 0 1 1 3 5 8 8 9 13 15 19 18 19 23 22 20 17 12 8 7 9 10 13 15 19 22 21 18 22 23 25 24 23 23 23 22 23 22 23 23 23 24 25 24 25 25
3 3 2 2 2 2 1 1 -0 0 3 7 9 13 12 14 13 18 21 19 18 19 21 20 20 12 11 11 10 14 13 17 20 22 21 27 27 29 26 25 28 25 25 25 26 25 25 25 25 25 25 26 26 26
3 3 3 3 2 2 1 1 0 1 4 8 8 14 14 21 25 27 28 24 21 19 17 18 17 9 12 11 10 12 15 16 19 20 26 28 26 28 27 28 30 28 27 27 27 27 27 26 27 26 26 26 25 24
2 3 4 2 2 1 1 1 3 3 5 7 10 13 17 21 24 23 25 19 17 15 16 14 12 13 13 12 14 17 19 21 19 30 29 27 31 31 32 31 29 28 29 28 28 28 27 27 27 27 26 26 24 23
1 8 2 1 1 0 1 5 4 7 9 14 17 21 18 20 20 23 20 19 17 17 21 16 16 17 13 15 17 19 20 26 30 33 34 33 33 32 33 32 31 31 31 30 30 29 28 28 28 28 26 24 24 24
7 4 1 1 1 2 6 6 11 13 18 19 17 25 23 24 22 23 23 20 19 20 22 19 17 21 20 22 23 28 33 37 37 36 32 32 34 33 34 33 31 31 31 30 30 31 32 28 26 25 24 24 24 24
3 2 0 -0 1 5 9 13 13 19 22 24 22 22 24 24 22 23 25 21 21 22 22 25 24 25 23 31 34 38 40 38 34 29 29 32 30 34 31 31 30 32 31 32 30 26 25 24 24 24 24 24 25 24
2 2 2 2 3 8 13 16 15 19 21 22 23 24 24 24 26 29 30 25 22 29 24 25 27 33 28 31 32 33 31 29 33 35 32 29 29 34 31 30 28 29 27 26 25 24 25 25 24 24 23 23 24 25
5 5 5 9 12 13 15 17 19 20 21 22 23 24 26 28 33 35 34 26 27 25 28 36 39 38 37 37 34 34 29 29 33 33 33 32 29 30 29 26 26 26 27 27 28 27 26 27 26 25 24 24 23 23
10 7 11 10 13 15 17 18 19 20 22 25 25 28 33 34 36 35 29 30 30 33 35 35 37 38 37 35 36 39 37 37 37 34 29 28 29 26 26 27 28 28 28 28 28 28 27 27 26 25 25 25 24 24
11 12 16 18 19 20 22 19 22 25 25 27 29 29 32 36 34 26 30 36 36 34 40 39 39 42 38 38 39 37 37 35 34 33 30 28 26 26 26 26 27 29 29 28 28 28 28 27 27 27 27 26 26 27
16 23 25 26 25 28 29 28 25 27 28 31 31 33 35 37 30 32 33 40 37 38 38 37 39 35 36 36 35 34 34 34 29 29 28 27 26 26 26 26 27 28 28 28 28 28 28 28 28 29 29 30 30 31
21 31 29 33 32 31 33 35 34 31 34 37 36 35 33 37 34 35 34 36 39 39 38 40 38 36 37 38 33 31 28 28 28 28 27 27 26 25 25 25 26 27 28 29 30 30 30 29 30 30 31 32 33 33
35 36 34 40 35 33 36 35 37 36 37 36 37 36 39 37 35 33 34 37 40 37 36 32 32 35 34 31 29 28 28 27 27 28 26 25 26 27 28 28 28 28 28 30 32 33 33 31 31 32 32 33 34 40
37 38 37 37 36 36 36 36 36 35 36 35 38 36 36 34 35 32 36 35 35 34 30 30 29 29 29 28 26 26 25 25 26 26 26 26 25 26 27 28 29 28 30 32 33 34 34 33 32 32 34 38 41 43
38 40 36 38 39 42 40 41 39 37 36 35 36 35 34 32 31 33 31 27 30 30 30 29 26 26 26 25 25 24 25 27 28 27 28 27 27 27 28 28 28 23 26 30 31 32 34 33 33 32 35 36 35 41
39 42 40 39 41 39 40 38 38 39 38 39 36 35 34 33 34 34 30 28 31 28 28 27 26 26 26 25 25 26 27 29 29 29 30 30 30 27 29 29 30 32 33 35 29 25 28 28 27 29 34 35 35 42
39 44 36 39 37 36 38 43 43 46 46 43 43 36 36 35 33 31 29 28 27 27 27 27 28 26 28 31 32 32 35 32 30 30 33 32 30 32 36 36 35 35 36 40 34 33 29 32 33 36 36 35 36 36
46 46 41 42 39 43 46 51 52 50 49 48 51 43 39 38 35 32 30 30 32 37 35 35 36 40 36 37 37 37 32 34 35 33 33 33 34 34 33 32 32 35 38 38 36 37 35 36 37 35 34 34 34 33
48 47 41 37 39 45 50 50 50 46 49 46 43 50 42 40 36 33 35 37 38 37 33 35 36 29 32 31 36 34 29 32 35 32 32 31 30 29 29 29 31 34 35 33 34 34 34 34 32 32 32 32 33 33
51 53 54 46 42 41 47 46 45 43 46 46 44 49 49 43 35 32 34 39 34 33 32 31 31 34 33 31 30 30 28 28 28 24 22 23 25 25 26 27 29 31 32 32 31 31 32 32 31 31 31 32 31 31

GFSWCAN_con_lsi_012.txt.gz
Lid_Strength_Index
2 2 2 2 2 3 2 2 2 2 2 2 3 2 2 1 1 2 4 4 6 8 9 9 8 10 10 12 16 16 15 16 16 21 24 18 22 17 19 17 17 19 25 28 29 28 26 13 14 18 15 12 13 13
2 2 2 2 2 2 2 2 2 2 2 2 2 2 2 2 1 0 4 2 2 5 7 7 6 6 6 7 10 16 13 18 13 18 20 20 23 23 21 24 14 21 18 22 20 20 13 11 12 10 10 12 12 11
2 2 2 2 2 2 2 2 2 2 2 1 1 1 1 0 -0 0 2 2 3 6 6 7 8 6 5 5 5 10 14 9 10 9 13 13 17 16 22 22 18 15 13 15 15 13 12 11 10 10 10 10 10 10
1 1 1 1 1 1 1 1 1 1 1 1 1 1 0 -0 -0 -1 2 2 3 5 10 10 8 8 5 5 5 5 7 8 8 8 10 13 16 11 14 13 15 14 14 16 15 13 11 11 10 9 9 9 9 10
1 1 1 1 0 0 0 0 -0 -0 -0 -0 -0 -0 -0 -0 -1 0 1 1 2 5 10 12 13 8 7 6 6 6 7 8 8 10 11 13 11 11 12 12 14 12 13 15 15 11 11 10 9 8 9 9 10 11
1 1 0 0 0 0 0 -0 -0 -1 -1 -1 -1 -1 -0 -0 -0 2 6 2 1 2 7 11 9 12 9 8 8 8 7 7 8 9 10 9 8 10 13 15 11 10 10 9 10 8 8 8 8 11 11 12 11 12
1 1 1 0 0 0 -0 -0 -1 -1 -1 -1 -1 -1 -0 -0 2 5 6 6 1 2 7 10 12 13 9 9 11 9 8 8 8 9 10 10 10 8 11 14 11 9 9 8 8 9 9 9 11 12 12 13 13 14
2 1 1 1 1 0 0 0 -0 -0 -1 -1 -1 -1 -0 -0 1 4 2 1 1 4 6 11 13 17 12 15 14 9 10 8 8 9 11 10 9 9 13 11 9 8 8 10 13 13 13 14 13 14 14 15 17 16
2 2 2 1 1 1 1 0 -0 -0 -0 -0 -1 -0 1 3 6 5 0 -1 1 4 9 10 18 19 11 12 11 13 9 12 8 11 11 10 13 15 12 10 9 14 14 16 16 16 16 17 17 16 17 18 19 18
3 2 2 2 1 1 1 1 0 -0 -0 -0 1 5 8 6 2 2 4 6 5 6 7 12 21 19 11 13 15 13 10 11 14 14 10 11 13 10 14 17 17 18 18 18 19 19 21 21 20 19 19 19 18 18
3 3 2 2 2 1 1 0 0 -0 -1 3 5 7 6 2 6 7 9 10 10 12 10 13 15 15 10 13 12 10 13 14 17 17 16 19 22 13 18 20 19 18 19 20 21 21 20 21 21 21 20 20 21 21
3 3 3 3 2 2 1 0 -0 1 3 4 4 3 3 6 8 10 12 11 13 16 19 15 13 10 11 9 13 12 14 14 16 20 16 18 17 21 21 21 21 21 23 24 23 22 21 20 21 22 22 23 23 23
3 3 3 2 2 1 1 1 0 -0 1 3 5 7 7 8 12 14 17 20 22 21 21 17 15 11 10 9 11 12 15 16 18 17 17 17 22 24 24 24 24 24 25 25 24 23 23 23 23 24 25 24 25 25
3 3 3 2 2 1 1 0 0 0 3 7 9 12 12 13 15 19 21 21 17 18 20 17 15 12 13 12 11 17 13 15 17 19 22 22 25 28 27 25 29 28 29 27 27 26 26 26 25 25 26 26 27 27
3 3 3 3 2 2 1 1 0 1 4 8 10 13 13 21 26 29 30 21 19 16 14 16 17 11 16 13 11 15 17 18 18 20 23 28 26 26 26 29 32 31 29 29 29 29 27 27 28 28 28 28 28 27
3 3 6 3 2 2 1 1 2 3 5 7 11 15 24 21 27 27 30 26 20 14 16 15 17 15 15 14 14 16 19 21 19 28 29 26 28 31 32 33 31 32 32 31 31 31 29 29 29 29 28 29 28 26
1 5 2 1 1 1 0 5 5 9 10 13 22 26 25 23 22 26 24 22 16 17 20 15 15 17 14 16 18 19 20 25 30 30 29 31 32 33 34 35 33 34 33 33 35 33 32 31 32 33 32 27 26 24
9 4 1 0 1 2 7 8 10 13 18 21 20 28 28 27 26 21 22 18 16 15 15 15 14 18 19 21 23 24 28 34 35 35 33 33 36 37 38 36 33 33 33 33 32 33 36 32 30 28 26 24 24 24
3 3 0 -0 1 6 10 14 13 18 24 23 21 21 24 27 22 22 21 18 19 20 18 21 17 21 22 29 32 37 40 37 33 29 30 33 32 35 35 34 33 34 34 35 34 30 28 27 25 24 23 23 24 24
2 2 1 1 3 9 14 15 13 19 26 24 24 25 23 23 24 25 23 20 19 23 22 23 24 31 30 32 33 33 32 29 34 36 34 29 30 35 33 34 32 33 32 31 28 24 25 25 25 25 24 23 24 24
5 6 5 9 11 13 15 16 19 19 20 22 21 21 24 25 27 27 28 25 24 24 27 36 39 39 41 41 38 37 31 29 33 34 34 34 30 31 32 32 32 30 27 27 27 27 26 27 26 25 25 25 24 24
10 7 10 9 12 14 17 18 20 20 21 23 23 24 25 26 30 31 28 27 29 34 35 36 38 40 39 37 36 39 38 40 40 35 30 30 30 28 30 28 27 28 27 27 28 28 27 27 26 26 26 26 24 25
12 12 16 16 16 17 22 18 21 23 22 24 25 24 28 31 31 25 29 36 37 35 41 41 42 44 39 40 41 40 41 38 36 35 32 30 28 27 26 27 27 28 28 27 27 27 28 27 27 27 27 27 28 28
16 23 25 25 23 24 25 26 24 25 26 27 27 29 33 36 30 31 32 40 37 39 39 39 41 36 37 37 38 38 38 38 36 34 31 29 27 27 26 26 26 27 27 28 27 28 28 28 28 28 29 30 31 31
21 30 29 32 30 28 29 32 34 31 33 38 34 34 34 38 34 35 33 35 40 40 39 43 41 38 37 41 38 36 34 30 28 29 28 27 28 27 25 25 26 27 27 29 29 30 30 29 29 30 30 32 33 33
34 37 34 41 34 32 36 34 36 35 37 36 37 39 42 37 34 32 34 36 40 38 37 33 33 37 36 35 33 30 28 27 27 28 27 26 26 28 28 28 28 28 28 30 32 32 31 30 31 31 31 31 31 34
35 37 37 38 37 38 36 38 38 36 36 34 38 36 36 33 34 31 35 35 35 35 33 30 30 31 32 33 29 27 26 25 25 26 27 27 26 26 26 28 27 26 28 29 30 32 32 32 31 31 31 32 37 39
39 41 36 38 39 44 40 42 39 37 37 38 37 34 32 31 31 31 31 30 33 33 33 32 30 30 29 26 25 24 25 26 27 26 26 27 27 27 27 26 26 22 26 28 29 29 31 32 32 33 32 32 32 38
40 43 41 38 41 38 39 38 38 40 39 41 35 35 34 32 36 36 31 30 34 31 31 30 28 27 25 25 24 24 26 28 28 28 29 29 29 26 28 28 28 29 30 31 27 24 27 30 31 30 29 32 33 40
39 45 38 41 37 36 39 43 43 47 48 44 44 37 36 36 36 36 34 32 31 31 31 30 29 26 26 27 28 28 31 29 27 27 31 31 29 31 34 34 33 33 36 39 33 33 29 33 34 37 36 36 36 36
47 48 41 42 38 43 47 52 53 52 51 50 53 44 41 42 37 38 35 34 33 34 32 34 35 39 36 37 37 36 31 34 35 32 33 33 34 34 33 32 32 34 38 37 36 37 35 36 38 36 35 34 33 32
48 48 42 37 39 46 51 51 52 47 49 46 43 51 42 39 35 33 35 38 37 36 34 36 37 31 33 31 36 35 30 33 35 31 31 29 28 28 28 28 31 35 35 33 33 34 35 35 33 32 31 32 32 32
50 54 54 46 43 41 47 46 45 43 45 45 44 49 50 43 36 33 34 40 35 35 35 34 34 37 35 35 32 30 28 28 29 24 22 23 24 24 26 28 30 31 31 31 31 31 31 32 31 31 31 31 30 30

GFSWCAN_con_lsi_015.txt.gz
Lid_Strength_Index
2 2 2 2 2 2 1 2 2 2 2 2 2 2 2 2 1 2 4 4 7 10 11 11 10 13 13 14 17 16 15 16 16 20 22 17 21 17 18 16 17 18 24 29 30 27 23 13 14 17 14 12 12 13
2 2 2 2 2 2 2 2 2 2 2 2 2 2 2 2 2 2 6 4 4 8 9 9 8 8 8 9 11 13 12 16 11 17 19 18 23 21 20 22 13 19 17 20 19 20 13 12 12 10 10 11 11 12
2 2 2 2 2 2 1 2 2 2 2 2 2 2 2 2 2 2 6 5 5 8 8 9 9 7 7 6 4 11 14 9 10 9 13 14 17 15 23 22 18 15 14 15 15 13 13 11 10 9 10 10 10 10
2 2 2 1 1 2 2 2 1 1 1 1 2 1 1 1 1 1 4 3 4 6 10 11 8 8 5 5 5 5 7 8 8 8 10 13 17 11 15 14 15 13 14 16 15 12 11 11 10 9 9 9 10 10
1 1 1 1 1 1 1 1 1 1 0 0 0 0 0 0 0 1 3 3 2 5 9 9 9 8 6 5 6 6 6 7 8 9 11 12 12 11 13 12 14 11 13 14 15 11 11 11 9 9 10 10 12 12
1 1 1 1 1 1 1 0 0 0 -0 -0 -1 -0 -1 -1 -1 2 6 3 1 2 6 10 8 12 8 7 7 7 6 7 7 8 10 10 9 10 13 16 12 10 10 9 11 9 9 9 10 12 12 12 13 13
2 1 1 1 1 1 0 0 -0 -0 -0 -1 -1 -1 -1 -1 1 4 6 5 1 1 6 10 13 12 9 10 12 9 7 6 7 8 10 10 10 8 11 15 11 9 9 9 8 9 10 9 11 13 13 13 14 15
2 2 2 2 1 1 1 0 0 0 -0 -0 -1 -1 -1 -1 -1 3 2 0 1 4 6 10 15 17 12 14 13 9 9 8 8 9 10 10 10 10 14 11 9 9 8 8 13 13 13 14 14 14 15 16 17 17
2 2 2 2 2 2 1 1 1 0 0 -0 -1 -1 0 2 5 5 -0 -1 1 5 9 10 14 19 12 13 12 12 9 12 8 11 10 11 15 15 13 10 10 9 13 15 16 16 16 16 17 17 18 19 19 18
3 3 3 3 2 2 2 1 1 1 1 -0 1 4 6 5 0 0 3 5 5 6 7 11 16 15 11 14 17 13 11 12 14 13 10 12 14 10 11 17 17 18 18 17 17 19 21 22 20 19 20 19 19 19
4 3 3 3 3 3 2 2 1 1 0 3 6 7 4 1 5 6 8 9 10 13 9 12 15 17 12 15 15 10 12 11 15 16 15 24 22 12 18 20 19 19 19 21 20 20 20 21 21 21 20 20 20 21
3 3 3 3 3 3 2 2 1 2 4 3 4 3 3 5 8 10 11 12 14 17 20 18 15 11 11 9 12 11 13 12 16 23 19 24 16 21 21 21 21 21 22 23 23 23 22 21 22 22 23 23 23 22
3 3 3 3 3 3 2 2 1 1 1 3 5 8 8 8 13 14 17 21 21 22 21 18 15 12 10 9 10 11 14 15 19 19 21 19 20 24 25 23 24 23 24 24 24 24 24 24 24 25 25 24 25 25
3 3 3 3 3 3 2 2 1 1 4 7 9 13 12 13 12 18 18 17 16 17 17 16 17 13 11 11 10 14 13 16 21 23 22 20 26 26 25 25 27 27 28 27 28 27 26 26 26 26 27 26 27 28
3 2 2 3 2 2 2 2 1 2 5 8 9 13 12 21 26 30 31 21 22 18 14 15 15 10 12 12 11 13 17 19 21 20 22 27 27 25 27 29 31 30 30 31 31 31 29 28 29 29 29 30 30 30
3 3 5 3 2 2 2 2 2 3 5 7 11 14 19 18 24 25 27 23 22 15 17 14 14 13 14 14 14 16 20 22 18 27 30 27 28 29 30 31 29 33 35 34 33 33 30 30 31 30 31 31 31 31
3 8 3 3 2 2 2 4 5 11 11 13 17 20 18 17 15 19 20 21 16 16 19 17 17 16 13 14 19 21 20 22 31 33 27 26 26 26 28 34 34 36 35 34 37 36 35 34 37 37 34 29 30 27
7 6 2 1 2 4 10 10 10 13 17 20 17 21 22 23 22 23 25 18 16 18 18 18 13 16 18 21 23 24 30 33 29 27 28 32 36 38 38 36 35 36 35 35 37 36 38 36 33 30 31 28 25 23
3 3 1 -0 3 7 10 14 13 18 25 26 23 22 23 24 22 22 22 18 19 19 17 16 15 17 19 27 30 36 38 34 32 30 31 34 32 36 36 37 35 36 36 36 36 33 32 32 28 25 24 23 24 23
3 2 3 2 3 9 14 16 14 19 21 21 24 26 24 25 25 27 25 21 18 19 19 16 17 28 27 31 32 33 32 30 33 36 34 30 30 36 34 35 33 35 35 35 33 27 27 26 24 24 24 24 24 24
6 6 5 8 11 13 16 18 20 21 22 26 23 23 25 24 27 27 24 22 19 18 19 26 28 32 40 42 40 38 32 31 35 34 33 33 31 33 33 34 34 35 33 32 28 26 26 27 26 25 25 25 24 24
13 7 10 9 13 16 19 18 19 20 23 26 23 25 27 26 27 27 25 22 23 28 29 31 34 39 39 37 38 41 40 40 41 35 31 31 30 29 28 27 27 28 27 27 27 27 27 26 26 26 26 26 25 25
12 12 15 15 16 19 23 18 21 23 22 25 25 23 26 26 27 23 23 30 33 33 41 42 43 46 40 43 43 43 43 37 37 37 36 35 34 30 26 27 27 28 27 26 26 26 27 26 26 27 27 27 28 28
16 23 24 24 22 24 23 25 22 23 23 24 23 25 27 28 29 29 31 38 36 39 41 41 42 37 38 38 38 39 39 42 39 39 39 34 30 28 26 27 27 26 26 26 26 27 27 27 27 27 28 29 30 31
21 31 29 32 31 29 26 26 26 24 26 33 32 30 32 38 32 33 32 35 39 40 40 45 42 38 37 41 40 39 40 35 31 29 28 28 28 27 26 25 25 26 26 27 28 28 28 28 28 29 29 31 31 31
34 37 34 40 33 31 34 32 35 34 35 35 37 39 42 36 31 30 34 37 41 39 39 35 33 38 37 36 33 33 30 28 28 27 26 25 25 26 27 27 27 26 26 27 29 30 30 29 30 30 30 29 29 31
35 37 38 38 38 36 34 37 39 37 36 34 38 37 36 32 33 31 35 35 34 37 36 33 31 30 30 32 32 29 27 25 25 25 25 26 25 25 25 27 26 25 26 28 29 30 31 31 31 30 30 29 31 31
40 41 36 38 39 44 40 42 40 37 37 38 37 31 30 30 30 31 30 30 37 35 32 32 30 29 30 26 24 23 24 24 25 25 26 26 26 26 26 25 25 21 26 27 27 28 30 30 30 31 31 31 29 33
38 44 43 38 40 36 39 38 39 40 38 39 33 30 31 30 31 31 31 30 33 30 29 29 28 28 26 24 23 24 25 26 27 27 28 29 28 26 28 28 27 28 28 29 25 23 26 28 29 29 29 30 30 38
39 44 35 38 35 35 38 43 43 48 48 45 43 36 32 32 35 39 37 34 31 30 29 28 27 26 25 26 25 26 31 29 28 28 31 31 30 32 35 35 33 32 35 37 31 30 28 30 32 35 34 34 35 35
48 48 41 42 38 42 47 53 54 53 51 51 54 45 40 43 38 37 35 34 33 32 29 29 29 29 27 28 34 35 31 34 37 34 33 33 32 32 32 31 31 32 35 34 34 35 34 35 37 36 35 34 33 32
49 48 43 38 40 47 52 51 52 47 47 44 42 48 38 35 30 28 29 31 31 30 28 29 30 30 33 34 37 36 30 33 32 30 29 29 28 28 28 29 31 35 35 33 33 33 34 35 33 33 31 32 32 32
42 46 49 45 43 41 47 47 45 43 46 45 42 43 43 39 31 29 32 36 34 36 35 34 34 36 34 33 32 28 26 26 26 23 22 22 23 24 25 27 30 31 32 31 31 31 32 32 31 31 31 30 30 30

GFSWCAN_con_lsi_021.txt.gz
Lid_Strength_Index
2 2 2 1 1 1 1 1 1 1 1 1 1 1 1 1 1 2 4 2 5 8 7 7 7 9 9 9 11 12 12 12 12 14 15 15 16 14 16 14 15 16 16 16 15 17 19 9 10 13 9 8 8 8
2 2 1 1 1 1 1 1 1 1 1 1 1 1 1 0 0 1 5 3 3 8 7 5 5 5 6 6 8 11 9 11 10 12 12 12 14 14 15 18 12 16 13 14 13 13 8 8 8 7 6 7 7 7
1 1 1 1 2 2 1 1 1 1 1 1 1 1 1 1 1 1 3 3 5 8 8 8 8 5 5 5 4 9 9 8 9 7 8 11 13 12 16 15 12 10 9 12 12 10 9 8 7 6 6 7 6 6
1 1 1 1 1 1 1 1 1 1 1 1 1 1 1 0 0 1 3 2 4 7 10 9 6 6 4 4 5 5 5 6 6 6 9 10 12 9 11 10 10 9 9 11 10 9 8 8 7 7 6 6 6 6
1 1 1 1 1 1 1 1 1 1 0 0 1 1 1 1 1 1 1 3 3 7 10 9 8 6 5 5 5 4 5 5 6 8 9 10 8 9 8 9 11 8 10 11 12 8 8 8 6 6 7 7 7 7
1 1 1 1 1 1 1 1 1 1 0 -0 -0 -0 -0 -1 -1 1 6 2 2 3 7 10 4 6 5 5 5 4 4 5 5 7 8 7 6 8 11 12 9 7 7 6 8 6 6 6 6 5 6 6 8 10
2 2 2 1 1 1 1 1 1 1 0 0 -0 -1 -1 -1 -0 4 5 2 0 1 6 9 9 6 6 5 5 5 4 5 5 7 8 7 7 7 10 12 8 7 6 6 6 6 8 7 7 6 8 10 11 12
2 2 2 2 2 1 1 1 1 1 1 0 0 -0 -1 -1 -0 2 1 0 -0 3 5 9 9 9 6 9 8 6 7 6 6 7 6 8 7 8 11 9 7 6 6 6 6 6 7 8 9 12 12 13 14 14
3 2 2 2 2 2 2 1 1 1 1 0 0 0 1 2 5 4 -1 -1 -0 3 8 8 10 11 8 8 7 8 6 9 6 8 8 7 9 12 9 8 7 7 7 7 8 12 12 12 11 13 14 15 15 15
3 3 2 2 2 2 2 2 2 1 1 1 1 5 7 5 0 -0 3 5 5 5 5 9 6 9 8 9 10 8 8 9 11 9 7 10 11 7 7 6 7 11 12 12 13 14 15 15 14 15 16 16 16 16
3 3 2 2 3 3 2 2 2 2 1 4 5 6 3 1 3 5 8 8 8 9 7 7 7 10 8 10 10 8 9 9 13 10 11 11 12 9 7 10 14 14 15 17 16 16 17 17 16 17 17 17 18 18
3 3 3 3 3 3 3 2 2 2 3 3 3 3 3 5 7 9 10 8 9 11 9 10 9 7 9 7 9 9 11 10 14 11 12 13 10 12 14 16 17 17 18 20 19 19 19 19 19 20 20 20 20 20
3 3 3 3 3 2 2 2 2 2 2 4 5 6 7 7 11 12 13 12 12 12 12 11 11 8 8 7 9 10 12 13 12 13 14 11 11 17 19 20 22 22 21 21 22 21 22 22 22 22 22 21 22 22
3 3 2 2 2 2 2 2 2 2 4 7 8 11 10 11 11 10 10 9 8 8 10 8 10 10 8 10 9 12 11 13 15 16 14 10 12 20 21 21 23 24 23 23 23 23 23 23 23 23 23 23 24 24
2 2 2 2 2 2 1 1 1 2 5 8 8 12 11 11 13 15 17 12 11 7 9 10 10 9 10 11 10 12 15 16 14 14 10 13 20 22 23 23 24 24 24 24 24 25 24 24 24 24 24 24 24 25
2 2 3 2 2 2 1 1 2 3 5 7 8 12 14 11 13 15 16 12 14 9 8 8 11 12 12 11 13 14 15 16 12 11 17 21 23 22 23 24 25 25 25 25 25 25 25 26 26 25 27 27 26 25
4 6 3 2 2 2 2 3 4 9 10 12 14 16 13 13 13 13 13 13 12 10 11 11 13 14 11 13 14 11 13 10 15 19 20 21 23 24 25 25 26 27 26 27 27 27 27 26 29 28 27 22 24 22
6 5 2 2 4 6 10 10 9 11 15 17 15 17 18 19 17 16 16 13 11 11 11 11 11 14 14 15 14 11 17 23 22 21 22 24 25 26 25 24 27 27 26 28 28 28 29 29 25 22 24 22 22 21
5 4 2 2 4 8 11 13 12 14 18 19 18 18 18 19 18 18 17 14 14 14 11 11 12 13 13 12 15 20 21 21 22 23 24 25 25 27 28 28 27 27 27 26 25 23 24 25 24 23 22 21 21 20
4 4 4 5 5 9 13 15 13 15 17 19 18 18 19 19 20 19 17 16 14 12 12 13 12 18 18 21 23 21 21 22 22 23 23 24 24 28 26 24 23 24 24 25 24 24 22 22 22 22 22 22 22 22
7 6 5 8 11 13 15 16 17 18 18 19 19 18 19 19 20 19 18 18 15 14 15 22 23 26 28 28 27 24 23 21 22 20 21 23 24 23 25 25 25 23 23 23 23 23 24 24 23 23 23 23 23 22
10 7 9 8 13 16 17 16 17 17 18 20 19 19 20 20 21 22 22 17 19 24 25 24 25 25 25 26 28 28 28 26 26 25 24 24 25 24 24 23 23 23 23 23 24 24 24 23 23 23 23 24 23 23
12 10 12 14 16 17 21 16 19 20 20 20 20 19 21 22 22 21 19 23 25 28 30 29 30 31 28 30 30 30 31 27 25 25 25 24 23 23 23 23 23 24 24 24 24 24 24 23 23 23 23 23 24 24
16 21 22 21 20 22 21 21 19 20 20 20 19 21 23 24 24 20 20 23 26 27 27 29 27 26 27 27 26 27 28 28 26 27 26 24 23 24 23 23 23 24 24 24 24 23 23 23 24 24 24 24 24 25
18 28 25 27 25 23 23 23 22 20 23 25 23 23 25 29 22 22 23 24 25 26 27 30 29 27 26 27 27 27 34 27 24 24 25 24 23 23 24 23 23 23 22 24 24 23 24 24 24 25 25 25 26 26
30 33 30 31 27 26 27 24 25 25 25 23 26 29 29 25 23 25 25 25 26 27 28 28 27 27 27 25 25 25 25 28 26 24 23 24 24 22 22 22 23 22 21 22 23 24 24 24 25 26 26 26 26 26
30 31 31 33 31 30 28 29 29 26 26 27 28 27 27 27 27 25 24 25 26 26 27 26 25 24 23 25 24 24 25 25 24 22 21 21 21 21 21 22 22 21 21 22 23 24 24 25 25 25 26 25 25 26
34 35 34 33 33 34 33 32 30 30 29 31 31 28 28 27 27 25 25 25 27 28 28 28 26 25 24 23 22 22 22 22 21 21 21 21 21 21 22 21 21 18 21 22 22 23 25 25 25 25 25 26 25 25
34 35 37 35 34 31 34 32 32 33 34 33 29 27 27 26 27 26 25 27 27 26 26 26 25 25 23 21 21 20 20 21 21 22 22 22 22 22 24 24 24 24 23 24 22 20 22 24 24 25 25 25 25 25
35 39 31 29 29 30 34 38 35 38 38 38 38 32 29 26 26 28 28 27 25 26 26 24 23 23 22 21 21 21 21 21 22 23 24 25 24 25 27 26 24 24 24 25 25 25 23 24 26 29 28 28 27 28
40 38 34 32 31 34 38 42 42 43 42 39 43 36 31 31 29 28 28 28 29 27 25 24 24 23 22 22 22 22 22 25 31 31 30 28 27 26 25 24 23 24 27 28 28 29 28 28 29 29 30 30 29 29
34 37 36 34 34 39 42 40 39 36 36 34 32 36 31 29 25 23 25 26 24 24 24 23 23 22 23 24 24 25 26 28 29 27 27 24 23 23 23 23 25 28 29 28 28 29 29 30 29 29 28 29 29 29
35 35 34 33 30 30 34 35 34 35 36 32 32 35 33 32 27 25 25 27 27 27 26 25 26 26 26 27 26 26 24 24 23 20 19 19 19 19 20 21 23 25 26 26 26 26 28 29 29 29 29 29 29 28

GFSWCAN_con_lsi_024.txt.gz
Lid_Strength_Index
1 1 1 2 2 1 1 1 1 1 1 1 1 1 1 1 1 3 5 4 7 10 10 9 8 11 11 11 15 15 14 14 15 18 19 16 20 16 18 16 17 19 23 24 24 25 22 13 13 15 12 9 9 9
1 1 1 1 1 1 1 1 1 1 1 1 1 1 1 1 1 1 5 3 3 7 9 6 6 6 7 7 10 13 12 15 12 15 16 16 21 18 19 25 14 20 17 20 18 18 11 10 10 8 8 10 9 9
2 1 1 1 1 1 1 1 1 1 1 1 1 1 1 1 0 1 4 4 5 9 8 9 9 5 5 6 5 12 11 9 10 9 12 14 19 15 22 19 17 15 13 15 15 13 11 9 8 8 7 8 8 8
1 2 1 1 1 1 1 1 1 1 1 1 1 1 1 1 1 1 3 3 5 7 10 11 6 7 4 5 6 6 7 8 8 9 11 13 17 12 14 13 14 13 13 14 13 10 9 8 8 7 7 7 8 8
1 1 1 1 1 1 1 1 1 1 1 1 1 1 1 1 1 1 2 2 3 7 10 12 10 7 5 5 6 6 7 9 9 11 11 13 12 11 10 10 12 10 11 12 13 9 9 8 8 8 8 8 8 9
1 1 1 1 1 1 1 1 1 1 1 1 0 -0 -0 -0 -0 2 7 3 3 3 8 11 8 11 8 6 6 7 7 8 8 9 10 9 8 9 11 12 9 8 8 8 9 7 7 7 7 7 8 8 8 9
1 1 1 1 1 2 2 1 1 1 1 1 0 0 -0 -1 0 4 6 3 0 2 7 10 10 9 8 8 9 8 6 6 7 7 8 8 8 7 10 12 9 8 8 7 6 6 8 8 8 8 9 10 12 13
0 1 1 1 2 2 2 2 1 1 1 1 1 0 0 -1 -0 3 2 1 0 4 6 10 10 12 8 9 10 7 7 6 6 7 8 9 8 8 11 9 8 7 7 7 7 7 8 10 11 12 12 13 16 15
1 1 1 2 2 2 2 2 2 1 1 1 1 0 2 3 5 5 -0 -0 1 4 8 9 12 14 9 10 8 8 7 10 7 10 9 9 11 12 11 9 8 7 7 7 11 13 14 14 13 14 15 16 16 15
1 2 2 2 2 2 2 2 2 1 1 1 2 6 7 5 0 0 3 5 6 6 6 9 11 12 9 11 10 10 10 11 14 11 9 11 12 9 8 7 7 10 12 12 15 16 19 18 15 16 17 16 16 17
2 2 2 2 2 2 2 1 1 1 2 4 6 7 5 1 3 5 8 9 8 10 8 9 9 14 10 13 11 8 12 12 15 15 13 17 17 10 7 7 13 13 14 17 16 17 17 18 17 18 18 18 19 20
2 2 2 2 2 2 2 2 2 3 4 4 4 4 5 5 7 9 10 10 10 12 11 13 11 8 10 8 10 10 12 11 14 15 14 19 14 11 15 17 18 18 19 21 20 19 19 18 20 20 21 22 22 21
2 2 2 2 2 2 2 2 2 2 2 4 6 8 8 8 11 12 14 16 18 14 13 14 12 9 9 8 10 11 13 14 12 14 18 17 14 19 21 22 23 23 23 22 22 23 23 23 24 25 25 25 25 26
3 2 2 2 2 2 2 1 2 2 5 8 10 13 12 13 12 12 16 16 13 12 12 10 11 12 10 11 10 13 12 15 16 19 21 17 15 20 23 24 25 26 24 23 25 25 25 25 25 26 27 27 28 28
3 3 3 3 2 2 2 2 2 3 6 10 9 14 13 15 17 20 19 15 14 11 9 10 10 9 12 12 10 13 16 17 18 20 16 18 23 24 25 27 27 27 27 28 27 27 26 27 28 29 30 30 31 30
3 3 4 2 2 2 2 2 3 4 6 9 10 12 18 17 18 19 19 16 14 10 10 9 11 12 13 12 14 15 17 20 18 17 22 24 27 27 27 28 28 28 28 30 31 30 28 29 30 31 34 33 32 32
4 6 3 2 2 1 2 3 5 7 8 11 16 21 17 13 12 15 17 14 12 11 13 11 13 14 11 14 15 15 19 18 24 24 23 25 27 29 30 30 32 33 33 33 33 33 33 33 35 35 34 31 32 30
9 6 2 2 4 6 11 11 9 11 15 18 16 20 20 20 18 17 17 13 12 12 11 11 11 14 15 16 17 18 22 25 23 24 25 27 30 29 29 30 33 33 32 33 34 35 35 35 34 31 32 30 31 28
6 5 4 3 5 9 12 14 14 15 19 20 19 19 21 21 19 18 18 15 13 13 13 12 12 14 13 17 18 21 22 23 25 24 27 28 29 29 30 32 31 31 28 29 33 33 32 33 32 30 29 29 29 28
5 5 5 6 6 10 14 17 13 15 19 19 18 20 19 20 22 22 18 16 15 14 13 14 17 22 22 25 26 24 23 23 23 25 26 26 28 31 30 31 29 28 28 32 34 30 31 30 30 30 30 29 28 25
8 8 7 10 13 14 16 17 20 19 19 21 21 19 20 20 22 19 18 19 15 18 19 24 27 27 28 28 27 24 25 22 24 24 24 26 26 28 31 31 32 31 31 32 31 31 30 31 31 31 30 28 25 23
11 8 10 10 14 17 18 17 18 20 21 24 23 23 26 25 25 25 21 17 22 28 27 26 26 27 27 30 30 30 29 27 26 24 24 25 27 29 31 29 31 32 32 32 32 32 32 31 30 29 26 25 24 23
12 11 14 15 16 18 22 18 22 20 21 24 24 24 25 27 26 21 20 25 28 29 32 31 30 30 29 30 29 29 28 27 27 27 29 29 32 31 30 32 32 32 32 31 31 31 30 26 26 24 24 24 24 24
16 22 22 22 20 24 23 24 20 22 23 24 21 23 26 25 24 20 22 28 30 28 29 30 28 27 28 27 27 27 27 27 30 30 32 33 33 33 32 32 32 32 31 30 28 28 27 25 23 24 24 26 26 26
19 29 27 29 24 24 22 22 21 20 24 25 22 22 27 28 22 22 24 26 25 25 27 28 26 25 25 26 26 28 33 32 30 33 34 34 33 32 31 31 30 27 25 26 26 25 25 25 25 25 26 27 27 27
31 33 34 36 31 29 27 24 26 26 24 24 27 27 29 26 24 29 29 29 29 28 29 30 30 30 30 30 31 32 33 37 35 32 32 33 32 30 29 27 25 24 22 23 24 25 25 25 26 26 27 27 25 27
31 36 35 35 34 33 34 32 29 27 27 28 29 28 28 29 30 30 29 29 31 34 33 33 33 32 32 33 32 33 33 33 31 30 30 29 26 25 25 25 24 24 24 24 24 25 25 25 25 26 26 26 27 27
37 37 38 36 37 38 38 37 35 35 33 32 35 32 31 32 33 33 31 29 33 34 34 34 34 33 32 30 30 29 29 27 26 26 26 24 24 24 25 25 24 18 23 24 24 24 25 25 26 26 26 26 25 25
39 38 38 37 38 36 39 38 38 37 35 36 34 31 33 32 33 32 29 29 30 30 31 32 30 30 26 23 22 22 22 23 24 23 24 24 24 24 26 27 27 27 27 27 22 20 23 24 24 25 25 25 24 27
35 37 32 30 30 33 37 41 41 43 39 37 37 33 30 28 27 27 28 28 28 29 29 27 25 24 23 22 23 22 22 23 23 23 25 26 26 29 31 29 28 27 25 26 25 25 23 26 27 31 30 30 31 30
42 43 39 36 34 37 40 42 40 40 39 37 38 35 31 31 28 26 26 27 29 28 25 24 23 23 23 23 23 23 23 25 26 26 27 30 32 31 29 27 26 27 28 28 28 30 30 32 33 32 32 31 31 30
34 36 36 35 37 44 49 47 46 41 36 32 32 33 31 30 27 26 25 25 25 25 24 24 24 25 25 24 24 24 24 25 25 24 26 26 26 24 23 22 23 24 27 27 27 28 29 31 30 30 30 30 30 31
36 37 35 33 32 32 33 34 34 36 35 32 33 34 33 31 28 26 22 25 27 27 27 27 26 26 25 25 24 24 23 24 24 19 19 19 19 19 20 20 21 23 25 26 26 26 28 29 29 30 30 30 30 30

GFSWCAN_con_lsi_027.txt.gz
Lid_Strength_Index
2 1 1 1 1 1 1 1 1 1 1 1 2 2 2 3 3 5 7 6 9 14 12 11 11 12 13 13 16 16 16 16 16 21 21 17 22 17 20 18 19 20 22 25 27 28 23 14 15 17 14 12 12 12
1 1 1 1 0 1 1 1 1 1 1 1 1 1 1 2 2 2 6 5 5 10 12 7 8 8 9 9 13 17 15 18 13 18 20 19 23 22 22 24 15 20 17 21 19 20 14 13 12 11 10 12 11 11
1 1 1 1 1 1 1 1 1 1 1 1 1 1 1 1 1 2 4 4 6 9 9 10 12 7 6 7 7 13 15 11 11 11 16 17 22 16 23 22 19 16 15 17 18 15 13 12 11 9 9 9 8 8
1 1 1 1 1 1 1 1 1 0 1 1 1 1 1 1 1 1 4 4 5 8 15 14 8 9 6 6 7 7 9 9 9 10 15 17 21 13 18 15 16 14 15 17 16 13 11 11 10 9 8 8 8 8
0 1 1 1 1 1 1 1 1 1 1 1 0 0 1 1 1 1 2 3 4 8 12 15 12 9 7 6 7 7 8 9 11 11 12 15 14 14 16 13 15 12 13 14 15 11 10 9 8 8 8 8 8 9
-0 -0 0 0 1 1 1 1 1 1 1 1 1 0 0 0 0 3 7 3 3 3 9 12 9 13 9 7 7 8 8 9 9 10 11 12 11 11 15 19 11 10 9 9 10 8 8 7 7 8 8 8 8 9
-1 -1 -0 0 0 1 1 1 1 2 1 1 1 1 0 -0 1 5 6 4 1 2 7 11 11 11 9 9 10 9 8 8 8 9 10 11 11 8 11 14 11 9 8 8 8 8 9 8 9 8 8 8 11 12
-1 -1 -0 0 0 0 0 1 2 2 1 1 1 1 1 0 1 4 3 1 0 4 6 10 11 13 10 10 10 7 8 7 7 8 10 10 8 8 12 11 8 8 8 8 7 7 7 7 10 11 12 13 15 14
-1 -1 -0 0 -0 -0 0 1 1 2 1 1 1 1 3 5 7 5 0 -0 1 4 9 10 14 19 9 10 9 9 8 10 7 9 11 9 13 13 12 9 9 8 8 8 9 13 13 11 11 13 15 16 15 16
-0 -1 -1 0 1 0 1 1 1 1 1 1 2 6 8 6 1 1 3 6 6 6 7 10 17 14 11 13 15 12 10 11 13 12 9 11 12 9 8 8 9 9 10 11 14 15 18 17 14 15 15 16 16 16
-1 -0 0 1 1 2 1 1 1 1 1 4 6 7 6 2 4 6 9 9 10 11 9 13 11 14 13 14 15 10 13 11 14 13 13 16 18 11 8 8 9 11 13 17 15 16 17 17 16 17 18 19 19 19
0 0 1 1 1 1 1 1 1 2 4 4 4 4 5 6 7 10 11 13 12 16 17 13 15 12 11 10 12 11 13 12 15 16 16 20 13 12 11 14 17 16 18 20 20 19 18 18 19 19 20 21 22 23
0 0 1 1 1 1 1 1 1 1 2 4 6 8 9 11 12 16 20 14 21 15 14 17 14 11 9 9 11 11 13 14 14 13 16 17 16 16 19 20 23 23 23 23 23 23 23 23 24 24 25 25 26 27
1 1 1 1 1 1 1 1 1 1 5 9 10 13 13 17 16 15 20 18 14 15 14 15 13 13 12 11 10 13 12 13 16 17 20 20 15 16 21 22 24 25 25 24 26 25 25 26 26 27 27 28 29 29
1 1 2 2 2 1 1 1 1 2 6 10 10 15 15 18 22 23 23 18 15 13 10 11 14 10 12 12 11 13 16 17 18 20 19 16 19 21 23 24 26 27 27 28 29 28 27 27 27 30 33 33 33 32
2 3 4 2 2 2 1 2 4 4 6 9 12 14 20 20 22 23 23 19 15 10 9 9 11 12 13 12 13 15 17 20 19 20 25 24 24 24 25 25 28 29 29 30 31 30 29 30 31 32 36 35 35 34
3 10 3 3 3 2 2 6 6 7 9 11 16 29 21 13 14 16 20 16 13 10 12 12 14 14 11 14 15 13 16 19 27 27 24 25 24 26 27 27 31 31 32 33 36 35 34 36 38 35 29 32 35 35
14 8 4 2 5 7 11 12 9 11 15 18 20 25 28 26 21 21 19 15 14 11 11 11 10 13 14 16 17 17 24 27 25 24 25 27 27 27 28 30 32 32 34 36 33 35 37 35 33 32 34 33 33 32
9 6 4 4 6 11 15 16 15 16 20 21 20 20 24 25 22 20 20 16 15 14 14 12 13 13 18 22 22 23 23 22 23 25 26 27 27 29 30 31 32 32 32 34 31 28 32 34 33 33 32 32 31 32
6 5 6 6 7 11 15 18 17 19 22 19 18 19 20 22 21 24 25 20 15 14 14 15 20 24 24 24 25 23 22 22 24 26 27 27 27 28 29 31 29 29 29 31 31 31 33 32 33 33 33 32 32 32
9 9 8 12 15 17 18 18 20 19 19 21 20 18 20 20 21 22 23 19 15 22 22 26 26 26 26 27 27 26 26 24 25 25 27 28 28 27 29 28 28 29 30 32 32 32 33 33 32 33 33 33 33 31
12 8 12 11 16 21 21 19 21 21 22 24 21 22 27 28 28 25 21 20 24 28 28 27 27 27 26 28 28 29 29 27 26 24 24 24 26 27 29 33 33 33 34 35 35 34 34 34 33 33 33 31 28 27
12 12 16 17 20 23 25 23 25 23 25 25 28 26 28 30 29 22 23 26 28 27 29 29 29 28 28 28 27 27 27 25 26 26 27 27 30 32 32 34 34 32 34 33 35 34 33 29 29 30 29 28 27 25
17 23 23 24 24 27 26 26 23 23 22 24 26 28 30 34 27 23 29 30 28 26 27 28 28 27 28 27 28 27 28 27 28 29 32 29 30 32 30 30 35 36 34 33 32 32 31 30 25 27 27 26 27 27
21 30 27 31 26 25 26 27 23 22 25 27 27 29 30 31 23 27 28 28 25 26 26 26 25 24 25 26 26 28 31 31 30 32 31 33 32 32 33 35 34 32 33 31 29 27 26 26 26 26 25 27 27 26
31 34 35 40 31 29 29 28 27 27 25 26 30 29 31 27 26 30 30 28 28 29 29 29 28 27 27 30 30 29 31 36 35 30 30 34 34 33 34 32 31 26 25 26 25 24 24 24 25 25 25 25 24 25
32 37 37 37 35 35 32 30 27 26 27 28 29 28 26 28 32 33 30 28 29 32 32 32 33 31 32 31 32 34 35 36 32 30 32 34 33 32 28 26 25 24 25 25 24 24 24 24 24 24 25 24 25 25
39 37 37 36 38 41 39 39 38 32 31 31 31 30 29 31 31 29 28 27 31 31 33 35 34 33 33 30 26 25 26 27 26 25 26 26 26 24 24 25 24 17 23 23 23 24 25 25 25 25 26 25 25 25
38 38 37 33 38 37 40 38 38 36 35 36 33 30 32 29 30 30 27 26 26 28 28 26 24 25 23 22 22 22 22 22 22 23 24 24 24 23 25 26 26 26 27 28 23 20 24 25 25 25 25 25 25 29
38 40 32 30 31 33 35 38 37 38 37 36 36 31 29 27 26 25 26 27 27 27 26 25 24 23 23 23 24 24 24 23 24 24 26 26 26 26 28 29 29 30 30 30 26 25 22 28 29 32 32 31 32 31
43 44 39 36 34 36 38 39 38 38 37 35 35 33 30 29 26 24 23 25 25 24 23 23 24 25 25 25 25 24 23 24 24 25 26 25 25 27 28 26 26 27 28 28 28 28 27 30 33 32 32 31 30 30
34 36 34 32 35 41 47 45 39 37 36 32 31 31 29 28 28 25 24 24 25 25 25 25 26 26 25 24 24 24 22 24 24 23 23 23 24 25 24 24 25 26 27 27 27 28 29 30 30 29 28 29 29 29
35 35 35 33 32 32 33 34 32 31 30 31 31 32 33 29 29 26 22 24 26 26 26 25 25 24 24 24 24 24 23 23 23 19 19 19 20 19 20 24 23 23 24 25 25 26 27 28 29 29 30 30 30 30

GFSWCAN_con_lsi_030.txt.gz
Lid_Strength_Index
1 1 1 1 1 1 1 1 1 1 1 1 2 2 3 3 3 7 9 9 11 16 14 13 13 14 15 15 17 17 15 15 16 17 20 18 22 18 20 19 19 20 21 22 22 22 24 14 14 17 14 13 13 14
1 1 1 1 1 1 1 1 1 1 1 1 1 1 1 2 2 4 8 7 8 14 14 11 11 10 11 10 13 16 14 17 14 17 20 18 22 22 21 23 15 20 17 21 19 19 14 13 12 11 12 13 12 13
1 1 1 1 1 1 1 1 1 0 0 1 1 1 1 1 1 2 5 7 7 10 11 10 12 8 7 8 8 13 14 12 12 11 16 18 22 17 23 22 20 16 15 17 18 15 14 12 11 11 11 11 10 10
1 1 1 1 0 1 1 0 1 1 1 0 0 1 1 1 1 1 4 4 6 8 14 14 9 10 7 7 8 9 10 10 10 11 16 19 21 13 18 16 17 15 15 17 17 14 13 13 12 11 10 10 9 9
0 0 0 0 0 1 0 1 1 1 1 1 0 0 0 0 0 1 3 4 4 9 13 16 12 9 8 8 8 8 9 11 13 15 18 19 15 14 16 13 17 13 14 15 16 11 12 12 11 10 10 9 9 9
-0 -1 -1 0 0 0 0 0 0 0 1 1 1 1 0 0 -0 3 7 4 3 4 9 16 11 13 9 8 9 10 9 11 12 10 15 14 11 11 14 15 12 11 11 10 10 8 9 9 9 9 9 9 9 9
-0 -1 -1 -1 -1 -0 -0 0 0 0 0 1 1 1 1 0 1 6 7 5 2 3 8 12 14 13 10 10 13 11 9 11 9 9 11 12 12 9 12 16 11 11 9 8 8 8 9 8 9 8 8 8 10 12
-1 -0 -0 -1 -1 -1 -1 -0 -0 0 0 1 1 1 1 0 0 3 2 1 0 5 7 10 13 15 10 11 11 9 8 8 8 8 10 11 9 9 13 12 10 8 8 8 8 7 7 7 10 10 11 13 14 13
-0 -0 -1 -0 -1 -1 -1 -1 -0 -0 0 1 1 1 3 5 6 6 0 -0 1 4 9 10 17 19 10 10 9 9 7 10 7 10 11 9 12 14 13 11 9 9 8 8 9 12 12 11 9 12 14 16 15 14
-0 1 0 -1 -0 -1 -1 -1 -0 -0 0 0 3 6 8 6 2 1 3 5 6 6 6 12 16 19 12 13 12 11 10 11 13 11 10 11 12 10 10 11 9 9 8 10 12 12 18 17 14 15 15 16 15 15
-0 -0 -0 -0 -0 -1 -1 -1 -0 -0 0 4 6 7 5 2 5 6 9 9 9 11 9 15 15 16 12 15 13 10 13 11 15 14 14 16 17 12 9 9 8 8 10 11 12 15 16 15 15 15 17 18 19 20
-0 -0 -0 -0 -0 0 -0 -0 -0 2 4 4 4 4 4 6 8 11 11 12 11 17 18 12 16 12 13 12 13 11 14 13 16 17 17 20 14 11 12 10 9 14 15 18 19 18 18 18 18 18 20 22 23 23
1 0 0 0 0 0 0 0 -0 0 1 4 6 9 9 10 13 13 16 18 18 19 14 15 14 12 10 9 11 11 14 15 14 14 17 17 13 15 13 17 21 21 21 22 23 22 23 24 24 25 25 26 26 27
0 0 1 1 1 1 0 -0 -1 1 4 8 10 13 13 14 16 15 20 18 15 16 15 15 12 13 11 11 10 14 12 13 16 17 20 13 16 15 20 23 22 24 23 23 25 25 25 25 27 27 28 29 29 29
2 1 1 1 1 1 0 0 -0 2 6 10 10 14 13 20 23 25 25 19 17 16 11 13 14 10 13 12 11 13 16 17 16 20 19 20 22 21 24 25 25 25 26 28 29 28 27 27 28 32 35 35 33 33
2 2 4 1 1 1 1 1 2 3 6 9 12 16 23 21 23 24 24 20 17 12 11 11 12 12 13 12 14 15 17 19 18 20 25 23 22 23 24 24 26 26 26 28 29 29 29 30 30 32 37 37 36 35
4 11 3 1 1 1 2 4 5 7 9 10 16 30 25 23 19 22 20 17 13 11 13 12 13 14 11 13 15 17 20 21 23 23 25 24 24 25 26 26 26 27 29 28 30 30 31 33 38 35 31 32 36 35
11 8 3 2 4 6 10 12 9 11 16 19 21 26 27 28 24 22 18 16 13 10 11 12 12 13 14 15 18 20 23 26 26 28 27 28 29 27 27 27 26 27 29 29 29 33 33 33 32 32 34 35 35 35
10 6 4 4 5 12 14 16 14 16 20 25 20 20 23 26 23 22 22 18 16 15 14 15 15 14 16 22 22 23 23 24 27 26 27 27 26 26 27 27 28 29 30 32 31 29 32 32 32 32 33 33 32 33
5 5 5 6 7 12 16 17 17 17 20 22 23 22 21 22 23 25 24 19 15 14 15 18 25 28 26 26 26 25 24 23 24 24 25 26 26 27 27 27 27 28 29 31 31 30 32 32 34 35 35 34 33 32
10 10 8 11 14 16 18 19 22 21 21 23 22 18 19 19 22 24 23 19 21 26 25 28 28 27 25 26 26 27 25 24 23 24 25 27 27 26 28 28 28 28 28 28 28 31 33 33 32 35 35 34 35 34
13 8 13 11 16 18 20 20 20 20 20 24 20 20 23 22 24 24 21 23 27 28 29 29 28 28 26 27 28 27 27 25 25 25 24 25 27 26 26 27 28 32 34 35 36 35 35 35 36 35 35 33 31 31
12 12 16 17 20 23 25 21 21 21 22 22 23 22 24 27 25 21 25 28 29 27 29 29 28 27 27 26 26 25 25 24 25 25 25 26 27 28 29 34 35 34 34 34 37 36 33 30 31 31 31 30 29 27
16 23 23 25 23 26 26 25 22 23 23 24 23 23 25 25 24 22 29 31 27 26 27 28 27 25 24 24 25 26 27 28 28 28 28 26 28 31 33 33 37 36 34 34 34 34 33 32 28 29 27 26 26 26
21 30 27 29 27 27 28 28 25 23 26 24 23 23 25 28 24 27 28 29 27 27 26 26 25 25 26 25 25 26 28 30 28 29 30 32 36 34 33 35 35 34 35 33 33 33 31 30 27 24 25 26 26 25
33 35 32 37 31 31 30 30 30 30 27 25 27 26 28 26 27 31 30 29 29 29 29 30 31 28 25 26 26 25 28 33 34 31 32 36 35 34 34 31 31 28 32 31 31 29 26 24 24 24 24 24 23 24
32 35 35 33 32 32 28 28 27 27 29 30 30 27 24 28 31 29 30 26 28 31 32 31 32 31 30 29 28 30 30 32 30 28 31 33 32 32 30 29 28 26 28 27 26 25 23 23 23 23 23 23 24 24
37 36 34 34 34 39 38 36 33 33 32 32 30 31 30 31 33 28 27 25 26 27 28 28 28 28 28 25 25 24 24 24 25 26 26 25 26 24 25 26 24 18 22 23 23 24 26 25 25 25 25 24 23 24
39 37 36 34 38 36 38 38 37 35 35 35 31 29 30 27 28 28 26 25 25 26 25 25 23 24 24 23 22 23 23 22 22 23 24 24 24 23 24 24 25 25 26 29 23 20 23 24 24 24 24 24 24 28
38 42 33 33 34 35 36 38 37 36 35 35 35 30 28 27 25 23 24 25 26 26 26 25 23 23 23 24 24 23 23 22 23 25 26 25 24 23 23 24 24 24 25 29 25 24 21 24 25 29 27 29 29 28
41 40 37 35 36 37 37 39 37 36 35 34 33 31 31 30 26 22 23 23 22 23 24 24 24 24 25 25 25 25 25 23 22 23 23 23 23 23 23 23 23 25 30 31 29 29 27 28 31 30 30 30 29 29
33 35 34 34 36 41 43 37 36 36 35 33 32 31 30 29 29 26 23 23 24 25 24 24 25 25 24 23 23 23 23 23 23 23 23 22 22 21 21 22 24 27 26 26 28 29 29 30 29 29 29 29 29 30
35 35 35 33 33 33 33 33 31 30 30 31 30 30 31 28 29 26 22 23 25 26 25 25 24 23 24 24 23 23 23 23 23 20 20 19 20 20 21 21 21 24 25 27 28 29 29 30 29 30 30 30 30 30

GFSWCAN_con_lsi_033.txt.gz
Lid_Strength_Index
2 1 1 1 1 1 1 1 1 1 1 1 2 2 2 2 4 7 9 9 13 15 14 13 13 14 15 14 16 16 16 16 17 17 18 20 22 21 22 21 21 22 22 23 23 23 24 15 15 17 14 14 14 14
2 1 1 1 1 1 1 1 1 1 1 1 1 1 1 2 3 5 10 8 9 15 14 11 11 11 12 12 15 16 15 17 15 18 20 19 22 23 23 25 18 20 18 20 19 19 14 13 13 11 12 13 13 13
2 2 1 1 1 1 1 1 1 1 1 1 1 1 1 1 1 3 7 8 8 13 14 12 13 11 10 11 11 15 17 15 15 14 18 18 21 18 25 23 20 17 16 18 18 16 15 13 11 11 11 12 11 11
2 2 1 1 1 1 1 1 0 1 1 1 1 1 0 1 1 2 5 5 7 10 17 15 11 11 8 9 10 10 11 12 12 12 17 19 21 14 18 16 17 16 16 18 18 14 13 12 12 11 11 11 11 11
2 1 1 1 1 1 0 0 0 0 0 0 0 1 0 0 0 1 3 4 4 10 15 17 13 10 9 8 9 9 10 11 13 15 18 19 15 15 17 15 18 15 15 17 18 12 12 12 11 11 11 11 10 10
2 1 1 -0 -0 -0 0 0 0 0 0 0 0 0 1 0 0 3 8 4 4 5 10 16 11 13 11 10 10 10 10 11 12 13 15 14 12 13 19 22 13 12 13 12 12 10 10 10 10 10 11 10 9 10
2 1 0 -1 -1 -0 -1 -0 -0 -0 -0 -0 0 1 0 0 2 7 7 5 2 3 9 13 15 13 11 11 13 11 11 12 12 12 15 13 12 11 13 20 13 12 11 11 9 9 10 9 9 9 9 9 10 12
1 0 -0 -0 -1 -0 -0 -0 -1 -1 -1 -0 -0 1 1 0 1 5 3 1 1 5 7 11 16 15 9 12 12 11 11 11 11 10 12 14 11 11 16 13 11 11 10 10 10 9 8 8 11 10 11 13 13 12
-0 -0 -0 -0 -0 -0 -1 -0 -0 -1 -1 -1 -1 -0 2 4 6 5 1 1 2 6 10 11 17 19 10 10 10 10 9 12 9 11 12 10 13 15 14 12 12 10 9 9 9 11 11 11 10 11 13 16 14 13
-0 -0 -0 -0 -0 -0 -0 -0 -0 -1 -1 -1 2 5 8 6 2 1 3 6 6 7 7 14 19 20 12 13 13 12 11 13 13 12 10 11 13 11 11 12 10 9 8 9 14 15 19 16 13 13 14 15 14 16
-0 -0 -0 -0 0 -0 -0 -0 -0 -0 -0 4 6 8 6 2 5 8 9 10 9 11 9 16 17 16 12 15 16 10 13 13 15 16 13 14 18 12 10 10 9 9 10 12 10 10 13 13 13 14 17 18 18 19
-0 -0 -0 -0 0 -0 -0 -0 -0 3 4 4 4 3 4 6 9 11 11 13 12 16 16 14 17 14 16 14 15 12 13 13 16 17 15 19 15 11 13 10 9 8 11 13 16 15 17 17 18 17 19 22 23 23
1 -0 -0 -0 -0 -0 -0 -0 -0 -0 2 4 6 8 8 9 12 14 15 17 18 20 15 14 15 12 12 11 12 13 15 16 15 15 16 17 12 16 13 13 19 23 21 20 22 22 22 23 24 24 25 25 26 27
1 1 0 0 0 0 0 -0 -1 1 4 8 10 13 12 14 14 13 20 19 16 17 16 16 13 13 12 12 11 14 13 15 17 17 20 15 19 21 21 24 24 25 24 22 24 24 25 25 27 27 28 28 28 29
0 1 1 1 1 1 0 0 -0 2 6 9 9 14 14 19 23 26 27 22 18 18 13 14 14 11 14 12 11 12 16 17 16 20 20 23 24 25 25 27 28 26 26 28 28 27 27 27 28 32 35 32 30 30
2 2 3 1 1 1 1 1 2 3 6 9 11 14 22 20 23 22 23 19 16 11 11 11 13 12 13 13 15 15 17 20 19 24 27 26 27 27 28 29 28 27 27 29 28 28 26 27 28 30 33 34 35 32
4 12 3 3 2 3 2 6 6 7 10 11 15 27 25 20 17 18 19 16 13 12 15 12 13 13 11 14 14 14 17 22 26 27 27 29 29 30 29 29 29 29 29 28 29 29 28 31 30 28 30 33 36 36
10 8 4 3 7 8 14 12 10 11 16 18 18 24 25 27 24 22 20 17 15 13 13 12 11 14 15 16 18 20 21 23 24 25 26 28 29 27 28 30 31 29 28 29 28 28 29 28 27 28 30 35 33 34
10 8 5 4 6 15 17 16 13 16 19 21 19 19 22 23 21 22 23 18 16 15 13 13 14 15 21 24 26 25 25 25 25 26 27 28 26 27 27 28 27 27 27 28 27 28 29 30 28 28 30 32 31 35
5 5 6 6 7 14 20 19 16 16 19 20 20 20 20 21 21 22 21 18 15 16 21 23 29 29 28 27 27 27 26 25 26 27 26 25 25 25 26 26 27 29 28 28 28 27 27 28 30 32 34 33 32 32
10 9 8 13 14 16 18 20 22 21 20 21 21 20 22 20 23 22 22 19 22 28 27 29 27 27 26 26 26 27 25 26 25 24 23 24 25 24 26 26 26 27 28 28 27 28 29 28 31 35 35 35 37 36
13 9 16 12 16 18 20 20 22 22 23 27 24 23 25 25 26 26 22 25 27 29 30 29 29 29 29 28 28 28 27 26 23 23 23 23 25 26 26 26 25 27 28 29 29 29 31 33 36 37 36 34 33 33
12 12 16 18 20 22 25 20 22 22 24 24 24 23 25 25 25 20 26 27 28 26 27 28 28 28 29 28 27 26 26 25 25 25 24 24 25 25 26 27 27 27 28 28 30 32 33 30 32 32 33 32 32 31
17 23 24 25 23 25 24 24 21 21 23 24 23 25 27 27 24 24 29 29 28 26 27 28 29 28 28 27 27 25 26 25 24 25 26 26 26 29 29 30 30 31 29 33 35 35 34 33 30 31 31 31 31 28
22 30 27 29 27 26 26 26 25 23 26 26 24 26 28 26 25 28 29 29 28 30 29 29 30 29 31 28 25 25 26 26 24 24 26 27 27 28 27 28 28 27 30 33 33 34 34 34 31 29 27 28 26 24
34 34 32 33 30 29 30 29 29 30 28 27 27 25 25 23 27 31 31 28 28 28 28 29 30 30 26 26 26 25 25 27 26 24 25 27 27 27 30 31 32 29 35 35 34 32 30 25 25 25 25 23 22 22
34 35 33 31 31 30 28 28 27 29 31 31 32 27 24 29 31 30 28 26 27 26 27 27 31 30 29 28 26 26 27 30 29 28 30 32 33 33 31 30 28 26 27 29 29 28 26 23 22 22 22 22 23 22
36 35 33 33 32 34 32 31 32 34 32 33 30 32 32 32 33 28 25 24 24 25 25 25 26 27 27 25 24 23 23 23 25 26 25 25 26 25 24 25 25 19 23 23 24 24 25 25 25 24 25 24 23 22
34 34 34 32 36 36 37 36 36 35 34 35 31 30 30 27 27 27 26 24 24 25 24 25 23 23 24 23 22 22 22 23 23 24 24 24 23 23 22 22 23 23 24 26 21 18 20 22 22 22 24 23 23 25
35 37 33 34 34 36 36 37 36 36 34 34 33 27 26 26 24 23 23 23 24 24 23 23 23 23 24 24 24 23 23 22 23 25 27 27 25 23 23 23 23 22 23 25 24 25 22 24 24 28 27 27 28 27
37 36 33 32 33 34 35 37 36 34 33 32 31 29 29 29 26 22 23 22 23 23 24 25 25 24 25 25 25 26 26 24 23 23 23 23 23 23 23 22 22 22 24 27 29 32 31 31 33 34 33 32 32 30
34 37 36 34 35 35 37 35 34 34 33 31 32 30 29 28 29 26 23 23 24 25 25 25 26 25 24 24 23 23 23 24 24 24 23 23 23 22 21 21 22 23 26 25 27 29 31 33 32 32 31 32 31 31
34 33 33 31 32 32 32 33 31 30 30 31 30 30 30 28 29 26 23 22 24 25 25 24 24 24 24 24 24 24 24 25 25 22 22 21 22 22 23 23 24 26 27 29 29 30 30 31 31 31 32 32 32 31

GFSWCAN_con_lsi_036.txt.gz
Lid_Strength_Index
2 2 2 2 2 1 1 1 1 1 1 1 1 1 1 2 3 7 10 8 10 13 13 12 12 14 14 13 16 16 16 16 17 17 17 19 20 20 21 21 21 21 21 22 21 22 22 17 17 18 16 16 16 16
2 2 2 2 2 1 1 1 1 1 1 1 1 1 1 1 1 4 9 8 9 13 13 11 11 11 11 10 13 15 14 16 14 16 18 19 21 21 21 23 19 21 19 21 19 19 17 15 15 14 13 14 14 14
2 2 2 2 2 2 1 1 1 1 1 1 1 1 1 1 1 3 7 8 8 14 14 14 14 11 10 10 11 14 15 14 14 13 17 18 20 19 23 23 21 19 19 19 19 18 16 14 13 12 12 12 12 12
2 2 2 2 2 2 1 1 1 1 1 1 1 1 1 1 1 2 6 7 8 12 17 15 13 12 10 10 12 12 13 13 14 14 17 19 20 16 20 18 19 18 18 20 19 16 14 13 12 11 11 11 12 12
2 1 2 2 2 2 1 1 1 1 0 0 0 0 0 0 1 2 4 5 5 9 15 16 14 12 11 11 12 12 12 13 15 17 19 21 17 17 19 17 20 17 17 18 18 13 13 12 11 10 12 12 12 12
1 1 2 2 2 2 1 0 0 0 0 -0 0 0 -0 0 0 3 8 5 4 5 12 17 12 14 11 10 11 11 12 12 14 15 17 15 13 14 21 23 15 14 14 13 13 11 11 11 11 11 12 12 12 12
2 2 2 2 1 1 0 -0 -0 -0 -0 -0 -0 -0 -0 -0 2 6 8 6 3 4 9 16 18 13 11 12 13 12 11 12 12 14 17 13 13 13 19 20 13 13 12 12 11 11 13 12 11 11 10 10 12 13
2 2 2 2 1 0 -0 -0 -0 -0 -0 -0 -0 -0 0 1 1 5 3 2 2 6 8 12 19 14 10 12 13 11 13 14 14 13 12 15 12 12 18 14 13 12 12 12 11 10 9 10 11 11 12 14 15 14
1 2 2 1 0 0 -0 -0 -0 -0 -0 -0 -0 -0 2 5 7 6 1 1 3 6 10 11 16 18 11 11 11 12 9 13 10 13 14 12 14 16 14 13 13 12 12 11 12 12 12 12 10 12 14 17 15 14
0 1 1 0 -0 -0 -0 -0 -0 -0 -0 -0 1 6 8 5 2 2 5 7 7 8 8 12 22 18 12 14 14 14 13 14 14 14 11 12 16 12 12 12 11 10 10 11 15 15 19 17 13 13 14 14 13 15
-0 0 -0 -0 -0 -0 -0 -0 -0 -0 -0 4 7 8 6 1 5 8 10 12 10 12 9 14 17 16 14 17 17 11 13 12 15 16 15 17 19 12 10 10 10 9 10 11 9 10 13 13 13 14 16 17 18 19
0 -0 -0 -0 -0 -0 -0 -0 -0 2 5 5 5 3 4 7 10 12 12 12 14 15 16 13 16 15 16 13 13 11 13 13 20 17 16 22 16 13 13 10 9 11 13 14 16 13 17 17 19 19 19 21 23 23
-0 -0 -0 0 -0 -0 -0 -0 0 0 2 5 7 8 9 10 14 14 15 19 16 21 15 17 16 14 14 12 13 14 15 15 14 15 16 18 15 19 21 20 18 22 22 21 23 22 22 23 24 25 25 25 26 27
0 0 0 1 -0 -0 -0 -0 -0 2 5 9 10 13 14 14 15 14 20 21 19 19 15 18 13 14 16 15 13 17 16 16 18 18 21 21 25 26 25 25 27 24 26 24 25 25 25 25 27 27 27 27 26 28
2 2 1 1 1 1 0 -0 1 4 9 11 11 15 18 22 25 25 24 23 20 21 15 16 16 11 15 13 12 14 16 17 20 21 24 27 27 28 27 28 28 29 29 29 30 29 28 28 28 31 31 29 29 29
3 4 5 2 1 1 1 2 3 5 8 11 14 17 22 20 22 23 24 19 15 12 13 12 15 13 13 13 15 15 16 20 21 27 28 27 29 30 31 31 31 32 32 31 29 27 28 28 29 32 32 32 30 29
5 11 3 3 2 3 3 8 8 10 12 13 20 28 27 23 21 23 22 16 12 11 12 11 13 15 12 14 15 16 17 20 23 24 26 27 28 29 30 32 32 33 32 32 32 31 32 31 31 29 29 31 29 30
10 9 4 4 7 9 16 13 13 14 19 19 19 24 28 26 25 23 19 16 13 11 12 12 11 14 15 15 17 23 23 23 23 24 25 27 28 30 30 31 30 29 30 32 33 33 31 28 26 26 27 28 27 28
10 8 5 4 9 18 19 19 15 18 21 22 19 19 20 23 21 20 19 16 15 15 13 14 14 18 23 25 26 25 26 27 26 25 26 29 28 31 30 28 28 29 29 30 29 27 27 26 26 27 27 26 26 28
5 5 6 7 9 19 22 22 20 16 20 21 21 19 19 20 19 19 19 18 18 20 26 27 30 30 29 28 27 28 27 26 27 27 27 26 25 26 27 26 27 27 27 29 28 27 27 26 26 27 28 28 28 31
10 10 9 14 16 18 23 23 24 23 20 20 20 19 20 19 22 22 23 21 25 29 29 30 29 29 28 27 26 28 26 26 28 28 28 25 24 24 25 25 25 25 25 26 25 25 24 25 26 29 28 32 35 35
13 10 18 13 17 18 20 21 23 22 22 24 20 20 23 25 25 25 22 27 29 29 29 29 29 29 29 28 28 28 27 27 26 24 23 23 24 24 24 25 24 25 25 25 26 28 28 28 29 32 34 33 33 33
13 13 17 18 19 20 23 20 23 22 23 24 22 22 24 24 24 21 28 28 30 27 29 30 29 28 29 27 27 26 27 27 29 27 26 25 25 24 24 25 25 26 26 27 28 28 31 29 31 32 33 33 33 33
17 24 25 26 24 26 24 23 21 22 22 24 24 26 28 27 23 27 32 31 28 27 28 29 29 27 26 27 27 27 27 27 26 26 26 23 24 25 25 26 26 27 28 28 29 32 33 33 29 29 30 32 34 33
24 32 29 31 27 28 29 28 27 25 27 27 27 27 27 28 28 30 30 30 29 28 28 28 28 27 29 29 27 27 27 27 25 25 25 24 24 23 24 25 26 28 29 30 30 30 30 31 30 31 31 33 32 31
35 34 33 34 32 31 30 29 30 31 28 29 30 27 28 27 30 33 31 30 29 29 28 29 31 29 27 26 27 26 25 26 26 24 25 25 24 24 25 25 25 24 28 30 30 31 32 29 29 29 29 28 25 25
34 35 32 29 31 30 29 28 28 30 33 33 34 28 27 31 33 31 27 26 27 26 25 25 27 27 27 27 25 24 24 26 27 27 28 27 27 27 26 27 28 26 28 31 32 31 30 29 28 27 26 25 26 26
34 35 35 32 32 32 32 32 34 35 34 34 31 33 33 33 34 29 26 23 24 24 24 23 25 26 26 24 23 22 23 22 25 24 24 24 25 24 24 24 23 18 23 24 24 23 25 25 25 25 26 26 26 24
34 34 33 32 33 34 37 36 36 34 34 35 31 31 31 28 28 28 25 24 23 22 24 24 23 22 22 22 22 22 23 24 25 27 27 27 26 25 22 23 23 22 23 24 21 19 19 19 21 22 25 26 26 28
34 36 34 34 35 36 36 37 36 35 34 33 31 26 26 26 24 22 23 23 24 25 24 24 24 24 25 25 26 25 25 24 25 26 29 29 27 24 24 23 23 23 24 27 25 26 23 26 26 30 30 31 32 32
36 35 34 34 34 35 36 36 35 33 31 29 28 29 30 28 26 23 24 24 24 24 25 26 26 25 26 27 27 28 28 26 24 26 25 25 25 25 24 24 22 26 31 31 31 33 31 32 33 33 32 32 32 31
34 38 36 36 35 35 36 34 35 34 31 30 31 30 29 29 30 28 24 25 26 27 26 27 28 28 26 27 30 31 26 27 27 28 28 26 27 26 25 24 26 28 29 30 31 32 32 33 33 32 32 34 33 34
33 32 31 31 33 32 33 33 31 31 30 31 30 30 30 28 30 26 24 24 26 28 29 29 28 27 28 32 31 32 31 33 31 25 24 23 23 23 24 25 28 31 31 32 31 31 32 33 33 33 34 34 34 34

GFSWCAN_con_lsi_042.txt.gz
Lid_Strength_Index
0 0 0 0 1 1 1 1 1 1 1 1 1 0 0 0 1 4 6 5 8 10 11 12 11 13 13 12 14 14 14 15 15 16 16 17 18 17 17 18 18 17 18 18 18 18 19 17 18 17 14 16 15 15
1 0 0 0 0 0 1 1 1 1 2 1 1 1 0 0 1 3 7 6 7 9 10 10 11 10 10 10 13 14 13 14 12 13 14 16 18 19 17 18 18 17 14 16 15 15 17 16 15 14 14 13 15 15
1 1 0 -0 0 0 0 1 1 1 1 2 1 1 1 0 1 3 6 6 8 10 10 11 12 10 9 9 8 12 13 12 12 12 13 15 17 16 18 17 19 18 17 17 15 17 17 16 15 14 15 14 14 14
1 1 0 0 0 0 0 0 1 1 1 2 2 1 1 0 0 2 5 5 6 10 12 12 11 11 9 9 9 10 11 11 12 11 13 14 15 15 16 16 16 16 17 18 18 17 16 15 14 14 14 14 15 14
1 1 1 1 0 0 0 0 1 1 1 1 2 1 1 0 0 2 4 5 4 7 12 12 12 11 10 9 11 10 10 11 12 14 14 15 15 15 16 16 17 16 17 17 17 15 14 14 12 13 13 13 13 13
1 1 1 1 1 1 0 1 1 1 1 2 1 1 1 -0 -0 3 8 5 4 4 9 13 11 11 10 10 11 12 12 12 12 13 14 15 14 14 16 17 15 15 14 13 14 12 13 12 12 12 12 12 12 12
2 2 2 1 1 1 1 1 1 1 1 1 1 1 1 -0 1 6 7 5 3 3 9 12 13 11 11 11 11 11 11 11 11 13 14 14 14 13 16 17 15 14 13 13 11 12 13 13 12 12 12 11 12 13
2 2 2 2 2 2 1 1 1 1 1 1 1 0 -0 -0 0 5 3 2 2 7 8 14 15 13 10 12 12 11 12 11 11 12 12 13 12 13 16 14 13 12 11 12 11 11 10 11 11 11 12 13 14 13
2 2 2 2 2 2 2 1 1 1 1 1 0 -0 1 2 7 6 1 0 3 5 9 13 15 15 10 11 10 10 11 13 11 13 12 12 14 16 13 13 12 12 12 10 11 12 13 12 12 13 13 15 13 12
2 2 2 2 2 2 2 2 1 1 0 -0 1 6 7 6 2 1 5 7 8 7 7 12 14 14 11 11 12 12 11 13 15 13 11 13 14 11 11 11 11 11 10 12 14 14 16 14 13 13 13 11 11 10
1 1 2 2 1 1 2 2 1 0 -0 3 6 7 4 1 5 7 10 9 10 11 10 14 14 13 10 13 13 11 13 12 16 14 13 15 15 14 19 18 18 18 17 14 12 11 11 10 10 11 12 12 12 13
2 2 1 0 1 1 2 1 1 2 4 4 4 4 5 7 9 11 12 11 12 13 14 15 14 12 11 9 10 11 13 13 16 13 14 17 15 22 23 23 22 22 23 20 19 17 15 15 17 15 16 17 18 19
2 1 0 -0 0 -0 1 0 -0 0 1 4 6 7 8 10 14 14 16 15 14 15 14 13 13 11 11 9 11 11 14 15 14 14 16 15 22 23 26 26 26 25 24 23 22 21 21 22 23 22 23 23 23 24
2 1 1 -0 -0 -0 -0 -0 -0 1 5 8 10 14 12 14 13 13 14 14 14 14 12 11 13 11 11 12 12 14 15 14 16 17 17 21 25 27 27 27 29 28 28 26 26 25 25 25 26 26 26 25 25 26
3 2 2 2 1 0 0 -0 1 5 7 11 11 15 14 20 21 23 24 18 17 12 11 12 12 11 13 12 12 15 17 17 16 17 20 24 26 27 28 29 30 30 30 29 28 27 27 27 28 29 29 27 27 27
3 4 4 2 2 2 2 3 6 7 13 14 18 17 20 16 18 18 18 16 16 13 13 12 14 13 14 13 15 16 17 18 18 23 24 25 27 29 29 30 30 30 31 30 29 28 27 28 28 29 29 28 27 26
5 8 4 3 4 5 6 9 11 16 17 17 21 23 23 19 20 20 20 16 13 12 14 15 18 16 12 15 18 21 19 23 23 24 24 26 27 28 28 28 30 30 30 30 30 30 29 29 29 26 27 28 27 27
11 9 4 4 7 9 13 15 15 18 22 21 21 23 22 22 20 20 19 17 13 14 15 16 13 16 20 21 23 25 26 24 24 24 25 26 27 29 29 29 29 30 29 30 29 29 29 28 27 27 27 27 26 25
8 7 5 6 9 15 15 18 18 22 23 22 20 20 21 21 20 21 21 20 18 20 18 20 28 29 29 29 28 27 27 27 27 25 25 26 26 27 27 28 28 28 29 28 27 27 27 27 25 24 24 23 24 23
6 6 6 8 11 15 19 21 19 20 23 22 21 21 21 22 21 22 24 23 24 26 31 32 33 32 30 29 28 27 27 26 27 26 25 25 25 27 27 27 26 26 26 26 25 25 25 25 25 24 24 23 23 24
10 10 11 16 20 21 23 23 23 22 21 22 21 21 22 22 25 26 27 25 28 31 31 31 30 29 28 27 26 27 26 26 27 27 27 26 24 25 25 25 25 25 24 24 24 24 24 25 25 24 23 24 24 23
13 11 18 16 20 23 23 21 22 22 23 24 22 23 26 26 27 28 25 30 31 31 31 31 30 30 29 28 28 27 27 27 26 25 24 25 25 25 25 25 24 25 25 25 24 24 25 24 24 24 23 23 24 23
15 15 20 22 24 25 25 21 25 25 23 24 23 25 27 27 25 24 30 30 30 28 28 29 29 28 28 27 26 27 27 27 27 27 26 26 26 25 25 25 24 24 24 25 24 23 23 24 23 23 23 23 24 23
19 27 27 29 28 28 24 26 24 26 25 26 27 29 30 29 25 30 34 32 29 27 28 28 27 26 25 25 26 27 28 26 25 25 26 25 25 26 25 25 25 25 25 24 23 23 23 23 23 23 23 24 25 25
26 33 31 34 30 29 29 29 30 30 31 30 30 29 29 27 31 33 33 31 30 29 28 28 28 27 28 27 26 26 26 26 26 27 26 26 24 23 24 24 25 25 24 24 24 25 25 24 24 23 23 24 24 24
37 34 34 35 34 33 32 33 34 33 31 32 33 30 28 31 34 36 34 31 30 29 29 29 30 29 27 26 27 26 26 24 25 25 25 26 25 25 26 26 26 25 24 27 27 27 27 26 27 28 26 24 23 23
36 36 33 29 32 32 33 32 33 35 39 37 36 32 32 37 39 34 29 27 28 27 25 26 27 27 27 26 24 23 23 24 25 24 24 23 24 24 24 26 26 24 22 23 24 26 26 26 26 25 25 24 24 24
34 34 36 33 34 34 36 36 37 38 36 35 33 36 39 39 37 30 27 25 25 24 24 24 24 24 25 25 25 24 24 23 23 24 24 24 24 24 24 24 24 19 23 22 23 22 23 23 23 25 25 26 25 24
33 33 32 34 34 35 37 37 37 35 34 36 34 34 33 30 30 29 26 24 24 25 27 27 27 26 26 26 26 27 27 28 30 34 35 32 31 29 26 26 27 26 25 27 24 22 22 22 22 24 28 28 28 29
34 35 34 35 36 36 35 36 34 33 33 32 30 28 29 29 26 24 25 26 27 28 28 30 31 32 32 32 33 32 34 32 34 34 36 35 34 30 29 29 29 28 26 30 29 29 26 28 29 31 31 31 31 31
35 37 35 35 35 34 33 33 32 29 28 28 27 29 31 30 27 26 26 30 32 33 34 34 34 39 38 35 38 39 36 36 37 36 37 35 33 33 31 29 28 27 31 33 32 33 31 31 32 33 33 34 34 33
32 37 34 34 34 32 32 34 34 32 31 32 32 33 32 31 33 30 28 32 35 36 34 39 40 34 36 39 39 38 34 33 36 32 35 31 31 30 28 27 27 31 32 31 32 32 32 34 34 33 33 34 34 35
34 33 34 33 33 33 33 33 31 32 32 32 32 33 33 32 33 31 28 33 34 35 37 37 37 36 36 36 36 35 33 36 37 27 28 25 25 24 24 26 29 34 33 32 32 32 34 34 35 35 35 35 35 35

GFSWCAN_con_lsi_045.txt.gz
Lid_Strength_Index
-0 0 0 0 0 0 0 1 1 1 1 2 1 1 1 0 -0 2 4 2 5 9 8 9 10 12 12 13 15 14 14 15 15 15 14 15 15 15 16 16 17 17 17 17 16 17 18 15 17 15 13 15 13 11
0 0 0 0 0 0 0 0 1 1 1 1 2 1 1 0 0 2 5 3 4 7 8 8 8 9 10 10 12 13 13 14 13 14 13 14 16 16 15 17 16 17 14 15 14 15 17 15 15 14 13 12 14 13
1 1 1 0 0 0 0 -0 0 0 0 0 1 1 1 0 -0 1 4 4 5 7 8 9 10 8 8 9 8 12 12 12 12 12 12 13 15 15 17 16 16 16 16 15 15 16 16 15 13 14 14 14 13 13
1 1 1 1 0 0 -0 -0 -0 -0 0 -0 0 1 1 0 -0 1 5 4 4 6 9 9 8 9 8 8 9 9 10 11 11 11 12 13 14 15 15 15 15 16 15 16 18 17 16 14 14 13 13 14 14 14
1 1 1 1 1 0 0 -0 -0 -0 -0 -0 -0 -0 1 0 0 0 1 3 3 5 9 9 10 9 9 8 9 9 10 10 11 12 13 13 14 15 15 16 16 16 16 16 16 15 13 14 12 11 13 14 14 14
2 1 1 1 1 1 0 0 0 -0 -0 -0 -0 -0 0 0 -0 3 8 4 3 3 8 11 9 10 10 9 9 8 9 10 11 12 13 14 14 13 14 14 14 13 13 12 13 12 12 11 10 11 13 13 13 13
2 2 2 1 1 1 1 1 0 0 -0 -0 -0 -0 -0 -0 1 6 6 4 2 2 8 11 11 10 9 9 10 10 10 11 11 13 13 14 14 12 15 16 14 13 13 13 12 13 14 13 13 12 12 12 12 14
2 2 2 2 2 2 1 1 1 1 -0 -0 0 0 -0 -0 1 4 2 1 2 6 7 11 14 12 9 11 11 10 11 10 10 11 12 13 14 13 16 14 13 12 12 12 12 12 12 12 13 13 13 13 14 14
2 2 2 2 2 2 2 1 1 1 0 -0 -0 -0 1 2 6 5 0 0 2 5 9 11 14 14 9 10 10 10 9 12 10 12 12 11 13 15 13 13 12 11 12 11 11 12 13 12 12 12 13 14 13 12
2 2 2 1 1 2 2 1 1 1 0 -0 1 4 6 5 2 0 4 6 7 7 7 9 9 13 10 10 11 11 10 12 14 12 11 13 13 14 16 17 17 17 17 13 13 13 14 14 13 13 13 12 12 12
2 1 1 1 2 2 2 1 1 1 0 2 5 6 4 1 5 7 9 9 9 10 9 11 10 12 9 11 12 10 12 11 15 13 13 14 14 18 20 20 20 20 19 18 18 16 14 13 11 11 12 12 13 14
2 2 2 2 1 -0 0 0 1 2 4 3 3 4 6 6 8 10 11 10 10 12 13 11 11 9 10 8 10 11 12 12 15 12 13 15 16 22 23 23 23 23 24 22 20 19 18 18 18 17 16 17 19 19
3 2 2 1 1 0 -0 -0 0 0 1 3 5 7 8 9 13 14 15 14 14 12 12 11 12 11 10 8 10 11 13 14 11 13 14 14 21 23 25 25 26 25 25 23 22 22 21 22 23 23 21 22 21 23
3 2 2 1 1 0 0 0 0 0 4 6 9 13 12 13 12 11 11 11 11 10 11 9 11 10 10 11 11 13 13 12 14 16 16 19 24 26 26 26 28 28 27 26 25 24 24 24 25 26 25 24 24 24
3 3 2 2 1 -0 -0 -0 -0 3 5 8 9 14 13 17 17 18 17 13 13 8 9 10 10 10 11 12 12 14 16 16 14 15 19 22 25 27 27 28 29 29 28 27 26 26 26 26 26 27 27 26 25 25
4 5 5 3 2 2 0 2 5 6 13 14 17 15 16 14 16 15 13 14 12 9 8 9 11 12 13 12 14 15 15 16 18 22 23 24 27 28 28 29 29 29 28 28 28 27 27 28 28 27 27 26 26 25
5 8 4 4 4 4 5 7 10 15 17 16 20 19 20 17 18 18 15 15 13 10 12 11 14 14 12 15 18 23 22 24 23 24 24 26 28 29 29 29 30 29 28 27 27 27 27 27 25 25 26 26 25 26
8 6 4 4 6 7 13 13 14 16 20 20 20 22 21 21 19 20 19 18 13 12 12 15 13 19 22 20 24 26 26 24 24 24 25 26 26 27 27 27 27 27 27 27 27 27 26 25 24 25 25 25 25 24
6 6 5 6 8 12 14 17 16 21 21 20 19 19 20 21 22 22 22 20 21 21 20 23 28 28 29 29 28 27 27 26 26 25 25 25 26 27 26 26 26 26 27 26 24 24 24 25 23 23 22 21 23 22
6 6 7 8 9 13 17 20 16 19 22 21 19 20 21 23 22 23 25 24 25 27 31 32 33 32 30 29 28 27 26 26 25 24 24 24 24 25 26 25 25 24 24 23 23 23 23 23 23 23 22 22 22 23
10 10 11 13 17 18 20 20 21 20 19 21 21 19 22 22 25 26 27 26 29 31 32 31 30 29 28 27 27 27 26 27 26 26 26 25 24 23 23 23 23 23 23 23 23 23 23 24 24 23 22 23 23 23
13 11 16 15 17 18 19 19 20 20 20 22 21 22 25 26 27 28 26 30 31 31 31 31 30 30 29 28 28 27 27 26 26 24 24 24 24 24 24 24 23 24 24 24 23 23 23 23 23 23 23 23 23 22
15 15 19 21 21 21 23 18 21 21 22 22 22 25 26 27 26 24 31 30 30 28 29 29 29 28 28 26 26 27 26 25 26 25 25 25 24 23 23 24 24 24 24 24 23 23 23 23 22 22 22 21 21 21
19 26 27 28 27 27 22 25 22 23 23 24 26 28 29 27 25 29 33 32 30 28 29 29 28 26 26 26 27 27 27 25 24 25 25 23 24 25 24 25 24 25 25 23 23 22 22 22 22 22 22 22 22 22
28 34 30 34 29 29 29 29 30 27 29 28 28 29 29 26 31 33 33 32 30 30 29 28 27 27 28 27 26 25 24 25 25 26 25 23 23 23 24 24 25 25 24 24 25 25 24 24 24 24 23 23 24 24
36 32 33 34 33 32 31 33 33 33 30 31 31 28 28 31 35 37 34 32 31 29 29 29 28 27 27 26 27 26 25 24 23 26 26 24 25 25 25 26 25 24 22 23 24 26 25 24 25 26 25 25 24 25
35 35 30 28 31 31 32 32 32 34 37 36 35 31 32 37 38 34 29 28 28 27 26 26 26 27 27 27 26 25 24 24 25 25 24 24 24 24 25 27 27 25 22 23 24 24 24 25 25 24 25 25 25 24
32 33 36 32 34 33 36 36 38 39 38 36 33 37 38 37 36 30 28 26 25 25 26 26 26 26 27 27 27 26 26 26 23 24 23 23 24 24 25 25 25 21 24 24 24 24 24 24 24 24 25 27 27 27
32 32 31 35 33 34 36 36 36 34 34 35 34 35 34 31 29 28 26 25 25 26 28 29 29 28 28 28 28 29 28 28 30 33 33 31 30 28 27 27 27 27 26 26 24 23 23 24 24 25 27 28 28 28
33 32 33 34 35 35 33 34 32 32 32 31 29 29 29 29 27 25 26 26 28 29 30 31 32 32 33 33 32 31 31 32 31 32 34 33 31 29 30 30 29 28 27 28 28 28 26 27 27 30 30 30 30 30
32 30 32 32 32 31 31 30 28 28 27 29 28 30 31 29 27 26 27 29 31 33 33 32 33 35 35 34 36 36 33 32 36 35 35 33 32 32 31 30 29 28 28 31 31 31 30 31 32 32 32 33 33 33
32 36 34 34 31 30 30 31 31 29 30 31 31 31 31 32 34 31 27 31 33 34 33 36 37 32 33 33 34 34 33 33 33 31 33 31 30 30 29 28 27 27 30 30 30 31 31 33 33 33 33 34 34 34
34 33 34 35 35 34 34 34 33 34 33 35 34 34 35 33 34 30 27 30 30 32 33 32 31 32 33 34 33 32 32 32 34 27 27 26 25 25 25 25 27 31 32 31 32 32 33 33 34 34 34 35 35 35

GFSWCAN_con_lsi_048.txt.gz
Lid_Strength_Index
0 0 0 -0 -0 -0 -0 -0 -0 -0 -0 -1 -0 0 1 1 1 1 3 1 4 8 8 7 7 10 10 10 11 13 13 14 15 15 14 15 15 16 16 16 18 17 18 18 17 17 19 17 18 16 16 17 16 15
0 0 -0 -0 -0 -0 -0 -0 -0 -0 -0 -0 -0 -0 -0 1 1 1 4 2 3 7 8 7 6 7 7 8 10 12 12 13 12 13 14 14 17 16 16 18 16 17 15 16 15 15 17 17 17 15 15 15 16 15
1 1 0 0 0 0 0 -0 0 -0 -0 -0 -0 -0 -1 -0 -0 1 3 4 5 9 8 9 10 8 7 7 7 11 11 11 12 12 13 13 16 14 17 17 18 17 16 16 16 16 17 16 14 15 15 15 16 16
1 1 1 1 1 0 0 0 0 -0 -0 -0 -0 -0 -1 -1 -0 0 3 3 4 7 10 12 8 9 6 6 7 8 9 10 11 12 13 14 15 15 16 16 16 17 15 17 19 18 16 15 15 14 14 15 16 16
1 1 1 1 1 1 0 0 0 -0 -0 -0 -0 -0 -0 -1 -0 0 1 2 2 6 10 12 11 10 8 7 7 8 9 11 12 13 13 15 15 15 16 16 16 17 16 16 16 15 14 14 12 12 13 14 15 16
1 1 1 1 1 1 1 1 0 0 -0 -0 -0 -0 -1 -1 -1 2 7 3 2 2 9 13 10 10 10 8 8 8 9 10 10 11 13 14 14 14 15 16 15 14 14 13 14 13 12 13 11 12 13 14 14 14
1 1 1 1 1 1 1 1 1 0 0 0 -0 -1 -1 -1 1 5 6 4 1 2 8 12 13 10 10 10 11 10 10 10 10 13 13 14 15 13 15 18 14 14 14 15 13 13 15 15 15 13 13 14 14 15
1 1 1 1 1 1 1 1 1 1 1 0 0 -1 -1 -1 0 4 2 1 1 7 7 11 14 12 10 11 14 11 11 11 11 12 14 15 14 13 17 14 15 14 14 14 14 14 14 14 15 15 15 16 17 16
1 1 1 1 1 1 2 2 2 1 1 1 0 -1 1 2 5 5 1 1 1 5 9 12 16 15 10 10 12 13 11 15 12 15 14 14 16 18 17 16 17 18 16 16 15 16 16 16 15 16 16 17 16 15
1 2 1 1 1 2 1 1 1 1 1 0 2 4 7 4 -0 0 4 6 7 7 7 10 13 15 10 11 12 13 13 17 20 16 12 18 20 17 19 20 20 20 19 18 15 15 16 16 15 15 15 15 15 15
1 2 2 2 1 1 1 1 1 1 1 4 6 7 4 -0 3 6 9 9 9 10 9 11 14 13 10 15 15 12 17 17 18 19 19 22 22 19 21 21 21 21 21 21 20 18 18 18 17 17 16 18 18 19
1 2 2 2 2 1 1 1 0 2 4 4 3 2 3 6 7 9 11 9 10 13 13 14 13 12 12 10 15 15 17 15 21 17 20 22 21 24 25 25 24 25 26 25 24 23 22 22 23 22 23 23 24 23
2 2 3 3 2 1 0 -0 -0 -0 1 3 5 6 7 8 12 13 14 14 15 13 12 14 14 12 13 11 14 12 20 20 13 20 21 24 23 27 28 28 28 28 27 27 26 25 25 26 26 27 26 26 26 26
2 3 3 3 1 1 1 0 -0 0 3 7 10 11 11 12 11 13 12 12 13 12 12 11 12 12 14 15 13 15 14 16 18 23 23 26 29 31 29 29 32 30 30 29 29 28 27 27 28 28 28 27 28 28
3 3 4 3 2 1 0 0 -0 3 6 8 8 12 12 16 17 20 18 14 13 9 10 11 12 11 14 13 13 15 17 18 20 22 27 27 29 29 30 31 32 31 31 30 30 30 29 29 29 30 30 30 29 28
4 4 5 3 2 2 0 0 5 7 12 13 17 15 16 15 16 17 14 13 10 9 10 10 12 13 14 14 16 17 17 22 26 30 28 27 30 32 33 32 31 31 32 33 32 32 30 30 31 32 32 30 30 29
5 9 4 3 3 4 4 7 10 14 15 16 20 19 20 18 20 21 19 19 16 12 15 12 14 15 13 17 22 27 29 29 27 27 27 28 30 31 32 32 33 33 33 34 34 33 33 32 31 29 29 29 27 27
9 7 4 5 5 7 12 13 14 16 20 19 22 21 23 24 23 23 22 21 18 13 16 19 18 24 27 24 29 28 27 26 26 27 27 28 30 32 32 33 33 33 33 32 32 32 31 30 28 29 30 29 28 29
7 6 5 6 7 12 15 17 15 21 21 20 18 19 21 23 23 24 24 23 23 24 23 26 32 32 33 31 31 30 29 29 28 26 27 28 28 31 30 31 31 32 32 33 32 30 31 31 29 27 27 27 28 28
6 6 7 8 8 13 17 19 14 18 22 21 19 22 23 24 24 25 27 27 26 29 34 35 36 34 33 32 30 30 28 27 28 26 26 26 25 28 28 29 29 29 29 28 27 26 26 26 25 25 25 25 26 28
11 11 11 13 16 17 19 19 20 19 19 22 21 21 23 23 27 28 29 28 31 33 34 33 34 32 31 30 29 29 28 28 28 27 27 27 25 26 28 28 28 27 26 26 27 26 27 29 29 29 28 29 29 28
15 11 17 15 16 18 19 19 20 19 21 21 22 23 26 28 29 30 27 32 33 33 32 32 33 33 31 31 30 30 29 28 27 26 25 25 28 29 28 27 27 28 27 27 27 29 30 30 30 30 30 30 28 28
16 16 20 22 22 22 23 18 21 21 23 23 23 27 28 29 28 26 32 31 32 29 30 31 30 29 30 29 28 28 28 27 28 27 26 27 27 27 27 28 28 29 30 29 29 29 29 26 28 29 29 28 29 29
19 27 28 29 28 29 22 25 23 23 24 26 27 30 30 29 27 31 35 34 31 29 30 30 28 29 28 28 29 29 28 26 27 28 27 27 29 29 30 30 31 31 31 30 29 30 29 31 27 28 29 31 30 29
30 36 33 38 31 31 29 30 29 27 29 28 29 30 30 28 33 34 35 35 32 32 31 30 28 29 30 29 28 28 27 28 28 30 29 28 30 30 31 31 31 31 32 32 31 33 33 33 33 33 32 33 32 32
38 33 36 37 36 35 34 35 34 34 31 32 31 29 29 32 35 37 35 33 32 31 31 31 31 31 31 30 31 30 29 27 29 32 32 31 32 34 36 35 35 33 28 32 33 34 33 32 34 33 32 32 30 32
38 36 31 29 33 34 35 34 34 36 38 37 35 33 33 37 38 35 31 29 30 30 29 29 30 31 32 31 31 31 29 28 32 32 31 33 34 35 34 36 36 33 31 33 33 35 33 32 30 30 29 32 34 34
32 33 37 33 35 36 40 39 40 41 40 37 35 39 39 39 39 33 30 28 29 30 32 34 35 36 38 37 38 36 37 33 32 32 31 31 34 34 35 35 34 24 30 32 31 30 33 32 31 29 29 30 30 33
32 32 32 35 36 36 38 38 38 36 35 40 40 38 38 34 33 33 30 28 31 33 38 41 38 39 39 39 39 40 40 38 38 39 41 40 38 35 36 36 35 33 33 36 27 25 26 25 26 27 30 33 30 31
33 31 34 34 37 37 35 35 36 34 34 35 32 31 33 33 32 32 36 38 39 40 41 42 43 43 42 43 41 38 41 42 40 39 41 41 39 37 36 36 35 34 34 37 31 32 28 29 31 36 35 35 34 34
34 33 35 34 35 35 34 33 36 33 37 38 38 38 40 36 35 35 36 40 42 43 41 41 42 44 42 42 44 44 39 41 42 41 41 40 38 37 36 34 33 34 35 35 36 36 33 33 34 37 35 36 36 35
37 42 38 37 36 34 35 39 39 38 38 40 38 41 39 40 40 39 35 39 41 41 39 42 44 39 40 41 41 40 34 35 37 35 37 34 34 34 32 32 31 30 31 32 33 33 33 36 35 35 35 36 36 36
40 41 42 42 40 40 41 41 40 41 41 43 41 43 43 40 38 35 33 37 36 37 38 38 38 39 38 38 37 38 34 37 37 28 26 26 27 26 26 28 28 29 31 33 34 33 35 35 35 35 35 35 35 35

GFSWCAN_con_lsi_051.txt.gz
Lid_Strength_Index
1 1 0 -0 -0 -1 -0 -0 -0 -0 -0 -1 -1 -1 -1 -1 -1 2 4 1 4 8 7 7 7 9 8 9 10 11 11 12 13 14 14 14 15 14 16 16 17 17 17 17 16 17 19 15 17 15 15 16 16 16
1 0 0 -0 -0 -0 -0 -0 -0 0 -0 -0 -1 -1 -1 -1 -1 -0 6 2 1 6 7 5 6 6 5 5 8 10 11 11 10 11 12 13 15 15 15 17 15 16 15 16 14 15 16 16 15 15 15 16 16 15
1 1 1 0 -0 -0 -0 -0 -0 -0 -0 -0 -1 -1 -1 -1 -1 -0 5 4 3 7 8 8 11 8 6 5 5 9 10 9 10 10 11 12 14 14 15 16 18 16 15 14 15 15 16 16 14 15 16 17 16 15
1 1 1 0 0 0 0 0 -0 -0 -0 -0 -0 -1 -1 -1 -1 -1 3 2 3 6 9 10 8 9 7 6 6 6 7 9 9 10 11 12 13 13 14 15 14 14 14 16 17 17 16 15 15 14 15 16 16 16
2 1 1 1 0 0 0 0 0 0 -0 -0 -0 -0 -1 -1 -1 -0 1 2 2 6 11 11 12 10 8 6 6 6 7 9 10 11 12 13 12 14 15 15 15 16 15 15 16 14 13 13 13 13 13 15 16 16
2 2 1 1 0 1 1 1 0 0 0 -0 -0 -1 -1 -1 -1 1 6 2 2 2 8 14 10 11 10 7 7 7 8 9 9 10 12 12 13 13 15 16 14 14 14 13 13 13 13 15 12 12 14 15 15 15
2 2 1 1 1 1 1 1 1 1 0 0 -0 -0 -1 -1 1 4 6 3 1 2 8 13 13 9 9 10 9 9 8 9 9 10 12 13 14 13 14 17 14 14 14 15 14 13 14 15 15 13 13 14 14 15
2 2 1 1 1 1 1 1 1 1 0 0 0 -0 -0 -1 -0 3 2 1 1 6 7 11 14 11 9 11 12 10 11 10 10 11 13 14 14 13 16 14 15 16 15 15 15 14 14 15 15 16 16 17 17 17
2 2 2 1 1 1 1 1 1 1 1 1 0 0 2 4 5 4 -0 0 2 5 9 13 15 16 9 11 12 11 10 16 11 14 13 14 18 19 18 17 19 20 20 19 17 16 16 16 16 17 17 18 18 18
2 2 1 1 1 1 1 1 1 1 1 1 3 10 14 6 -0 0 5 6 6 7 8 11 17 16 10 12 13 14 15 19 19 17 13 18 23 19 21 22 22 22 22 21 19 19 20 20 19 18 18 18 17 18
2 2 1 1 1 1 1 1 1 1 1 5 7 10 7 0 6 7 8 9 9 10 8 10 14 13 10 16 15 12 18 21 23 19 19 24 25 20 22 23 23 23 23 24 22 21 21 21 21 20 21 22 22 22
2 2 2 1 1 1 1 1 1 2 4 6 6 3 3 5 8 11 11 13 10 12 12 14 13 11 11 10 13 15 19 17 23 23 21 24 22 26 27 26 26 27 27 27 26 25 24 25 25 24 26 26 26 26
2 2 1 1 2 2 1 1 1 0 0 3 6 7 8 13 12 15 18 16 13 12 12 11 12 12 11 10 13 13 18 18 17 22 22 25 25 28 30 29 29 29 28 28 28 27 27 28 28 29 28 28 28 28
2 2 2 3 3 2 2 1 1 0 3 9 12 12 13 14 16 11 19 16 14 11 13 10 13 13 12 13 13 15 16 17 21 23 24 29 30 32 31 31 33 32 31 30 30 29 29 29 30 30 31 30 30 30
2 2 3 4 2 2 1 1 1 2 6 11 10 13 18 22 23 18 16 14 16 10 9 13 14 12 16 13 14 16 20 22 22 23 30 30 30 31 32 33 33 32 32 32 32 32 31 31 31 31 32 31 30 29
2 3 6 3 2 2 3 5 7 10 15 18 19 18 16 19 22 22 17 14 15 9 8 10 12 14 14 14 16 19 19 23 28 34 31 30 32 32 35 35 33 33 33 33 33 32 30 30 31 33 32 31 30 30
5 10 4 3 3 4 6 10 12 16 17 21 22 24 23 19 21 22 21 22 20 15 12 11 14 15 13 19 26 29 33 32 31 31 30 31 31 33 36 36 34 33 32 33 34 32 32 34 33 29 30 34 32 33
11 7 4 4 5 8 13 13 17 20 23 23 25 25 23 24 26 26 25 24 22 18 19 23 21 29 30 29 33 31 29 28 28 29 30 30 31 35 35 33 33 33 32 32 33 34 33 32 29 31 33 34 32 32
9 6 5 5 7 12 15 16 15 24 23 19 19 19 22 24 24 26 26 25 25 26 27 30 34 35 35 33 33 32 30 29 29 29 29 29 29 31 31 31 31 31 31 33 32 32 32 32 32 30 31 30 30 31
7 6 7 7 8 14 17 18 14 19 24 21 20 22 23 25 26 26 28 28 28 31 35 37 38 36 34 32 31 30 29 28 28 29 29 27 27 27 28 28 28 28 28 29 28 28 31 30 28 29 31 30 31 30
12 12 11 13 15 17 19 19 19 18 20 22 20 21 24 25 28 30 31 29 33 34 36 34 34 32 30 31 30 30 30 29 29 30 29 29 27 27 27 27 27 28 29 30 31 31 30 32 31 31 32 31 31 31
17 12 19 17 17 18 20 19 19 18 20 22 22 23 27 29 30 31 29 33 34 34 33 33 34 34 32 32 31 30 30 28 28 27 26 27 28 29 29 30 30 31 30 31 32 33 32 30 31 32 32 32 31 32
17 17 21 23 22 22 25 19 22 21 23 24 24 27 29 30 29 27 33 33 33 31 31 31 30 29 30 30 30 29 28 28 29 28 28 28 28 29 30 31 32 35 33 31 31 31 32 30 30 31 31 31 32 31
20 28 30 31 30 29 24 27 24 24 24 26 28 30 30 30 28 32 37 35 32 30 31 31 29 30 30 30 31 31 30 28 29 29 28 29 30 31 32 36 35 35 37 36 36 36 33 33 31 31 33 36 37 36
31 36 35 40 33 31 31 31 31 28 31 29 30 31 31 29 34 36 37 37 34 33 32 30 30 30 32 31 30 30 29 29 30 31 31 30 30 32 33 32 33 34 37 34 34 37 37 36 34 35 35 37 37 36
40 36 39 38 37 35 35 36 36 35 32 33 32 30 31 33 37 39 36 34 33 32 32 32 32 32 33 32 33 32 32 30 31 32 33 35 35 35 38 38 38 35 34 39 37 38 38 36 38 36 35 34 31 36
40 38 33 31 34 34 35 35 35 36 38 38 37 33 33 38 39 36 31 30 31 31 31 31 31 32 33 34 33 34 34 34 34 34 34 35 35 37 37 38 38 36 36 38 39 40 39 38 36 35 34 35 38 37
33 34 37 34 36 36 38 38 39 40 39 37 35 38 38 38 38 33 30 29 30 30 32 34 35 35 34 36 41 41 40 40 36 33 32 35 40 40 40 40 38 26 33 35 34 32 36 36 34 32 33 33 32 33
31 31 32 37 39 37 38 38 38 36 35 38 37 38 38 34 34 33 31 31 34 34 36 36 36 43 43 44 45 46 46 43 39 41 42 41 41 37 40 37 38 37 38 40 30 26 26 26 27 29 33 34 32 33
33 33 35 37 40 38 36 36 37 35 34 35 34 33 35 35 34 34 36 38 38 40 43 45 47 46 45 45 44 41 45 47 42 39 42 42 39 39 40 38 37 37 37 42 34 33 30 32 33 39 38 36 36 35
35 34 36 36 37 37 37 35 40 40 41 40 41 40 41 41 38 40 40 45 47 48 44 44 45 50 45 44 46 45 40 43 45 42 43 42 40 40 39 37 35 37 39 38 36 37 35 34 35 36 36 36 36 35
39 45 40 38 37 37 40 42 46 46 43 41 43 46 42 41 42 40 38 43 44 41 40 45 45 40 41 42 44 42 36 37 38 36 38 36 37 36 34 34 34 36 35 33 32 34 33 35 34 34 34 35 35 35
44 44 46 44 41 40 42 43 42 43 43 45 43 48 47 42 38 35 35 40 37 38 40 40 39 40 40 39 39 39 35 38 38 29 26 26 27 27 27 28 31 31 29 31 32 32 34 34 35 35 35 35 35 35

GFSWCAN_con_lsi_054.txt.gz
Lid_Strength_Index
1 1 1 1 1 1 1 0 -0 -0 -1 -1 -1 -1 -1 -1 -1 1 3 2 6 7 6 5 5 9 9 10 14 13 10 11 11 13 13 14 15 14 15 14 15 15 16 16 15 17 19 14 16 15 14 17 16 16
1 2 1 1 1 1 0 -0 -1 -1 -1 -1 -0 -0 -1 -1 -1 -0 4 2 2 7 7 4 4 5 6 6 9 9 9 13 10 11 12 12 14 13 14 16 14 15 13 15 14 14 15 15 15 15 15 16 16 15
1 1 1 1 0 0 -0 -0 -1 -1 -1 -0 -0 -0 -1 -1 -1 -0 2 3 5 7 8 7 7 6 5 5 4 10 9 7 9 9 10 10 13 14 15 14 17 14 14 14 13 14 14 15 15 14 15 16 16 15
1 1 1 1 1 0 -0 -0 -0 -1 -1 -1 -0 -0 -1 -1 -1 -1 2 2 4 7 9 8 7 8 6 5 6 5 6 7 7 8 10 11 13 12 15 13 13 14 13 14 14 14 15 13 14 13 15 16 16 16
1 1 1 1 1 0 0 0 -0 -0 -0 -0 -0 -0 -1 -1 -1 0 2 1 1 5 10 10 8 8 7 5 6 6 6 8 9 10 10 12 13 15 17 14 15 14 14 13 14 13 12 12 12 13 14 15 15 16
1 1 1 1 1 1 1 0 -0 0 0 -0 -0 -0 -1 -1 -1 3 6 3 1 2 8 12 8 9 8 5 6 6 6 8 8 9 10 10 11 12 15 16 13 13 12 12 12 12 13 14 13 12 13 14 15 15
1 1 1 1 1 1 0 0 0 0 0 -0 -0 -1 -1 -1 2 5 9 4 -0 1 7 11 13 8 8 7 7 8 8 8 8 9 11 12 12 11 12 14 13 13 13 14 14 13 14 15 15 13 13 14 15 16
1 1 1 1 1 1 0 0 0 0 0 0 -0 -1 -1 -1 0 4 2 -0 -0 4 6 11 13 11 7 10 11 8 10 9 9 10 12 14 12 11 14 13 15 16 15 16 16 15 15 15 15 16 16 16 16 16
1 1 1 1 1 1 0 0 0 0 0 0 0 -0 2 5 6 5 -1 -1 2 5 9 11 14 15 8 9 10 10 9 12 10 13 12 13 15 14 17 17 19 21 20 19 17 16 16 16 17 17 17 18 18 18
1 1 1 1 1 1 0 0 0 0 0 0 3 7 9 8 1 0 3 5 5 6 7 11 11 14 9 11 13 14 12 14 19 15 11 14 20 19 21 22 22 23 23 22 19 20 21 20 19 20 21 21 20 20
1 1 1 1 1 1 0 0 0 0 1 4 9 9 7 1 5 9 9 9 9 10 8 11 12 12 9 14 15 11 16 16 19 19 17 21 21 20 22 24 25 24 23 24 23 22 22 22 21 21 23 24 23 23
1 1 1 1 1 1 0 0 0 3 7 6 7 4 5 9 7 10 15 14 10 12 11 14 14 10 9 9 12 14 14 16 18 21 21 23 21 26 27 27 27 27 28 27 26 26 25 25 25 25 26 26 27 26
2 1 1 1 1 2 1 1 1 0 1 4 7 9 12 13 14 14 19 21 18 14 13 15 11 10 10 9 11 13 15 17 16 20 21 24 26 29 30 30 29 30 29 28 28 28 28 29 29 29 29 29 29 29
2 1 1 1 2 3 2 2 2 1 3 7 10 16 16 13 17 18 19 19 16 15 13 9 13 11 11 12 11 15 14 14 21 21 21 29 30 31 31 32 34 32 32 30 31 30 30 30 31 31 32 32 31 31
1 1 2 3 2 2 2 1 1 2 5 8 12 17 18 21 22 24 21 19 15 14 9 13 11 10 13 13 12 15 18 19 20 22 31 30 31 31 32 33 34 33 32 33 34 32 32 32 32 33 34 33 32 31
0 3 5 2 2 2 3 4 6 9 13 13 17 15 19 21 22 20 21 17 18 17 9 11 11 13 14 14 16 18 19 21 27 37 32 31 32 32 33 33 32 32 34 34 34 33 31 32 33 35 33 32 32 32
4 10 4 3 3 4 5 9 11 15 16 18 23 24 25 25 25 27 25 24 21 21 10 10 13 14 15 22 26 30 29 32 35 33 32 31 31 32 32 32 32 32 33 33 33 32 34 36 34 30 31 35 35 35
12 7 4 4 5 9 12 12 16 19 21 21 24 28 25 28 27 26 27 25 23 21 20 24 22 28 30 29 33 32 31 31 30 30 31 31 32 32 32 33 34 34 34 33 33 34 33 31 30 32 34 36 33 32
9 7 5 4 8 14 15 15 16 22 24 24 21 22 24 26 25 26 27 26 25 26 27 29 34 36 36 34 35 33 31 29 30 30 30 30 29 31 31 32 32 32 32 34 32 32 31 32 32 30 32 30 32 34
6 6 7 7 9 15 18 18 16 21 26 23 24 26 24 27 26 26 29 28 29 32 36 37 38 36 33 33 32 31 30 28 29 30 30 29 28 28 29 29 29 29 30 30 30 30 31 30 30 31 33 33 32 33
12 12 11 13 16 17 19 19 20 20 21 22 20 22 25 25 29 30 31 29 33 35 36 35 35 33 31 31 31 30 29 27 29 29 30 30 29 28 29 29 29 30 31 32 32 32 31 33 34 35 36 36 36 35
18 12 19 17 17 18 19 19 20 20 21 22 23 24 28 29 31 31 29 34 35 34 33 33 33 32 32 32 31 29 28 27 27 27 27 28 30 30 31 31 30 32 32 33 34 35 34 34 34 35 34 35 34 35
17 18 22 24 23 23 24 19 22 22 24 24 24 28 30 31 30 27 34 34 34 31 31 31 30 30 31 30 30 30 29 29 30 30 30 31 30 31 31 32 33 33 34 35 37 36 37 33 34 34 35 35 36 35
21 28 31 32 31 31 26 28 25 24 24 27 29 31 31 30 28 33 37 36 33 31 32 31 30 31 30 31 32 32 31 29 30 30 29 30 32 33 33 34 36 38 39 38 38 39 37 38 34 35 36 39 39 39
32 37 35 40 33 33 33 32 32 29 31 29 32 32 31 29 34 36 37 36 34 34 33 31 31 32 33 32 32 32 31 31 31 32 32 31 33 33 34 35 35 36 37 36 37 40 40 40 39 39 37 40 38 37
41 37 40 39 37 36 36 37 37 36 33 33 33 30 31 33 37 39 36 34 34 33 34 33 33 33 34 33 34 34 34 33 33 35 36 36 35 35 37 36 36 35 38 41 40 41 41 39 41 40 38 37 35 38
40 39 34 32 35 34 36 35 35 36 39 39 38 33 33 38 39 36 32 30 32 33 32 33 32 33 34 34 34 36 39 41 39 37 40 39 38 40 38 39 40 38 40 42 43 43 41 42 40 39 37 37 40 38
34 34 38 35 36 35 37 37 39 40 39 37 36 38 38 38 38 33 31 30 32 32 34 35 35 35 35 39 42 42 41 41 35 35 37 39 41 42 44 43 42 29 37 38 37 36 39 38 37 34 34 35 33 34
32 32 32 37 37 35 37 37 38 36 35 37 37 38 38 35 34 32 31 31 32 32 35 36 36 40 40 43 45 48 47 42 38 40 41 42 43 39 42 42 42 40 40 43 32 27 27 28 28 31 35 35 33 34
33 33 35 37 38 38 35 35 36 35 33 34 33 33 34 34 33 33 33 34 34 36 40 43 43 41 43 44 45 42 46 48 44 40 42 42 40 41 44 42 40 39 40 44 36 35 30 33 34 38 36 35 35 34
35 36 37 37 37 38 37 36 37 37 37 37 38 37 39 41 36 37 36 41 41 44 42 42 45 50 46 45 47 46 41 44 47 44 45 44 43 42 41 39 37 39 41 41 39 38 35 35 36 36 36 36 35 35
38 43 40 38 37 39 43 45 48 42 40 38 40 42 40 38 39 37 37 41 42 41 39 45 46 41 42 44 46 45 36 40 40 37 39 37 39 38 36 35 36 38 38 35 34 34 34 35 35 34 34 34 34 35
46 46 48 45 41 41 44 44 43 43 43 46 44 50 50 43 38 36 38 42 38 38 40 40 39 41 41 40 39 40 37 39 39 30 27 27 27 27 27 28 31 32 32 31 31 32 33 34 34 34 34 34 34 34

GFSWCAN_con_lsi_057.txt.gz
Lid_Strength_Index
-0 -0 -0 0 0 0 1 1 1 1 0 0 0 1 0 0 -0 1 2 2 6 7 6 5 5 7 8 8 11 12 11 10 10 13 13 13 14 13 14 15 16 15 16 16 15 17 19 14 15 13 13 16 16 16
-1 -1 -0 -0 0 0 1 1 1 1 0 0 0 0 0 -0 -0 -0 3 2 1 7 7 4 4 4 4 6 7 10 12 11 10 13 11 11 13 12 15 17 13 15 13 15 13 14 10 13 12 13 14 15 15 15
-1 -0 -0 -0 0 1 1 1 1 1 0 -0 -0 -0 -0 -0 -1 0 4 2 4 7 7 6 7 5 5 4 3 8 9 8 8 7 9 10 13 12 15 14 16 14 13 14 13 13 13 14 15 14 15 15 16 15
-1 -0 0 1 0 0 1 0 1 0 -0 -1 -1 -1 -1 -1 -0 -0 3 2 3 6 9 9 6 7 6 4 4 4 6 6 7 7 9 10 12 11 15 14 16 14 13 14 14 13 13 13 14 13 14 15 15 15
-1 0 1 1 1 0 -0 -0 -0 -0 -0 -1 -1 -1 -1 -1 -0 1 3 2 1 6 10 9 9 7 6 5 5 5 5 6 7 8 9 11 10 11 15 14 14 13 13 12 14 13 12 12 11 12 14 14 14 15
-1 -0 1 1 0 0 0 0 0 -0 -0 -1 -1 -1 -1 -1 -1 3 8 5 2 3 7 12 9 10 8 5 5 5 4 5 7 8 9 9 10 10 13 15 13 12 13 11 10 11 13 12 12 11 13 13 14 15
-1 -0 0 0 1 1 1 0 0 -0 -0 -0 -0 -1 -1 -1 2 5 9 6 0 1 7 12 12 10 7 6 6 6 5 7 7 8 9 10 11 9 11 16 12 14 13 13 12 11 12 14 13 12 12 13 15 16
-1 -1 -0 0 1 1 1 1 -0 -0 -0 -0 -1 -1 -1 -1 -0 3 2 0 -0 4 5 15 14 13 7 9 10 7 8 8 8 9 10 13 11 11 13 12 14 16 15 15 15 14 13 13 14 15 16 16 16 17
-1 -1 -0 1 1 1 1 0 -0 -0 -0 -1 -0 -0 1 3 6 6 -0 -1 1 5 9 12 15 18 8 10 9 9 8 11 9 12 12 11 13 14 15 16 18 20 19 19 18 16 15 16 17 17 17 17 17 18
-1 -1 -0 0 1 1 0 -0 -0 -0 -0 -1 2 5 8 7 2 0 3 8 5 6 7 11 11 15 9 10 13 12 10 12 15 14 11 13 17 18 21 22 22 22 22 22 20 19 20 19 19 20 21 20 20 20
-0 -1 -0 0 1 1 0 -0 -0 -1 -0 3 8 11 6 2 6 12 12 10 16 13 9 13 11 12 8 16 14 10 13 13 16 14 14 19 21 18 22 24 24 23 23 24 23 22 22 22 20 21 23 24 24 24
-0 -1 -0 0 1 1 -0 -1 -1 2 5 4 6 4 6 12 13 11 14 17 16 17 11 13 12 10 9 9 10 12 13 14 16 17 17 21 17 24 24 26 26 26 27 27 26 25 25 25 25 26 27 27 28 27
-0 -0 -0 0 0 0 -0 -1 -1 -0 1 5 9 11 10 14 16 19 17 18 22 20 11 12 10 10 9 9 10 12 14 16 15 16 19 19 25 28 28 28 29 29 28 27 27 27 27 28 29 29 29 30 29 30
-0 0 0 0 0 1 1 0 -0 -0 3 9 12 13 15 19 18 20 21 20 18 17 13 14 14 10 9 11 11 14 13 15 18 20 20 30 31 31 30 31 33 32 30 29 29 28 29 29 31 31 32 31 30 31
-1 -0 1 1 2 2 2 1 1 2 5 8 11 17 18 20 23 24 25 22 17 18 15 10 10 10 14 12 12 15 17 17 17 20 31 30 30 30 31 31 32 32 31 31 31 30 31 31 31 33 34 33 32 31
1 2 3 2 2 1 1 3 6 10 15 14 17 15 24 23 26 25 25 24 21 20 15 12 14 11 12 13 16 17 17 19 23 35 32 31 32 31 32 32 32 32 32 32 33 33 32 33 33 36 34 33 33 32
3 10 2 2 1 2 3 10 11 15 17 21 26 24 27 27 28 30 29 25 22 20 13 13 17 13 15 20 23 30 31 34 35 33 31 31 32 32 31 31 31 32 32 32 33 33 34 36 33 30 32 34 33 33
10 6 3 2 5 7 12 11 15 17 22 23 27 30 28 28 29 29 28 24 24 23 20 23 21 23 24 23 29 31 32 32 30 31 31 31 32 31 31 31 32 31 31 31 32 31 31 30 30 32 32 34 31 32
8 6 4 3 7 12 14 14 14 20 22 24 23 23 26 28 26 26 27 25 25 26 27 28 32 34 36 32 34 31 30 30 31 30 30 30 30 30 30 30 30 31 31 31 31 31 31 32 32 31 31 31 32 34
5 6 6 6 8 14 17 17 14 18 22 22 23 25 26 28 27 28 28 27 28 30 34 36 37 35 33 32 31 29 28 28 30 31 30 29 28 29 29 29 30 30 30 30 30 30 30 30 31 32 33 33 33 35
12 12 11 13 16 16 18 18 18 18 20 22 23 23 26 26 29 30 30 28 32 34 35 34 34 33 31 32 30 29 27 26 28 28 30 31 29 29 30 30 30 30 31 31 31 32 32 34 34 36 35 37 38 37
18 13 20 17 17 19 20 19 18 18 21 23 24 26 30 31 32 32 28 32 34 34 33 32 32 32 31 32 31 29 28 27 28 28 28 28 30 31 32 31 31 33 34 34 34 35 36 37 37 36 36 39 36 35
18 18 23 25 24 24 26 20 22 22 24 25 25 27 29 32 30 27 34 33 33 31 31 31 30 30 31 30 30 30 29 29 31 31 31 31 31 31 32 33 32 32 33 36 37 37 38 34 35 36 37 36 37 36
21 29 32 33 32 32 28 28 25 25 25 27 29 31 30 30 28 32 37 36 33 31 32 31 30 31 30 31 33 33 31 29 31 31 30 32 33 34 34 35 35 36 37 37 37 36 37 39 36 36 37 40 41 41
31 38 36 41 34 34 33 33 32 30 32 30 32 32 31 29 34 36 36 36 34 34 33 31 32 32 33 33 32 33 32 32 31 33 33 32 34 36 37 37 38 38 39 37 40 41 42 42 41 41 41 42 42 41
41 38 41 40 38 38 36 37 37 37 33 34 34 32 32 33 36 39 36 34 34 34 35 34 33 33 34 33 33 33 35 35 33 34 35 39 39 40 41 40 39 38 42 43 43 43 43 42 43 43 42 41 38 41
41 41 35 33 35 35 35 35 34 36 38 39 38 34 34 39 40 37 32 31 32 33 33 34 33 32 33 34 34 35 36 38 38 38 42 43 42 42 40 40 40 39 43 44 45 45 43 43 43 42 40 40 42 40
34 34 39 36 36 34 37 37 38 39 38 37 37 40 41 41 40 34 32 31 32 33 34 35 35 34 34 36 38 38 41 42 39 40 41 40 43 43 45 44 43 29 39 41 40 39 42 41 39 38 36 36 34 38
33 33 33 37 35 35 37 37 38 36 35 37 38 40 41 37 37 33 32 31 31 32 33 34 35 36 36 38 42 49 48 41 39 40 42 41 41 38 43 45 45 43 43 46 34 28 30 31 31 31 33 34 34 36
34 33 34 35 36 37 35 36 36 35 33 34 33 33 34 35 34 32 32 32 32 34 36 38 40 38 39 39 40 41 47 49 44 39 41 40 39 42 46 45 42 42 43 46 38 37 32 34 35 39 37 36 36 34
34 33 33 34 36 35 36 37 36 34 34 35 35 36 37 37 34 35 35 40 42 46 43 42 44 48 46 45 46 44 40 43 44 42 45 46 46 45 42 40 39 41 43 43 41 41 37 37 37 37 36 36 35 34
38 45 41 38 38 38 40 40 41 39 39 38 40 44 42 40 40 39 40 45 45 43 41 45 45 40 41 41 45 45 37 41 42 39 40 38 39 39 38 37 37 39 40 37 36 36 36 37 36 35 34 34 34 34
48 48 49 45 41 41 44 44 42 43 43 46 45 51 50 44 39 37 38 42 39 38 40 39 39 42 42 41 40 40 37 39 39 31 28 28 28 28 29 30 33 34 35 34 33 33 34 34 34 34 34 34 34 33

GFSWCAN_con_lsi_060.txt.gz
Lid_Strength_Index
-0 -1 -1 -1 -1 -1 -1 -1 -0 -0 0 0 0 0 -0 -0 -0 2 5 2 5 8 8 7 6 8 10 11 12 13 9 9 9 12 13 14 14 13 14 13 14 15 16 16 15 17 19 13 14 13 12 14 15 14
-1 -1 -1 -1 -1 -1 -1 -1 -0 -0 -0 0 0 -0 -0 -0 -0 0 6 2 2 7 8 6 5 3 4 5 7 12 12 14 8 14 11 11 13 13 15 16 13 15 12 14 13 14 10 12 13 12 13 12 13 13
-1 -1 -1 -1 -1 -1 -1 -1 -1 -0 -0 -0 -0 -0 -0 -0 -0 1 5 4 4 7 8 8 9 5 4 3 2 8 7 7 8 8 9 10 13 12 15 14 13 12 12 13 13 12 11 12 13 14 14 14 14 14
-1 -1 -1 -1 -1 -1 -1 -1 -1 -0 -0 -0 -0 -0 -0 -0 -0 0 5 3 5 7 12 11 5 6 5 5 4 3 6 5 6 7 9 11 12 9 12 11 12 12 12 13 13 12 12 12 13 13 13 14 15 15
-1 -1 -1 -1 -1 -1 -1 -1 -1 -0 -0 -0 -0 -0 -0 -0 -1 0 3 3 2 7 12 11 8 7 7 5 5 5 6 6 8 9 9 11 12 12 15 13 12 13 12 13 13 11 11 11 13 12 13 14 14 15
-1 -1 -1 -1 -1 -1 -1 -0 -0 -0 -0 -0 -0 -0 -1 -1 -1 2 6 5 2 3 7 11 8 9 9 6 5 5 5 6 6 8 9 8 9 10 14 18 11 11 11 11 12 12 13 12 12 12 13 13 14 14
-1 -1 -1 -1 -1 -1 -0 -1 -1 -1 -1 -1 -1 -1 -1 -1 1 5 9 6 0 1 9 11 13 11 8 6 6 6 5 5 6 7 9 10 11 8 14 13 10 12 12 11 12 11 11 12 11 11 11 12 13 14
-0 -1 -1 -1 -1 -1 -1 -1 -1 -1 -1 -1 -1 -1 -1 -1 -0 3 3 0 -0 3 6 12 17 12 6 8 8 6 7 7 7 8 9 10 10 9 12 11 13 14 13 14 14 13 12 12 13 14 14 13 14 16
-0 -0 -1 -1 -1 -1 -1 -1 -0 -1 -1 -1 -1 -1 1 3 5 6 -1 -1 0 4 9 12 18 19 9 9 8 8 7 10 8 9 10 10 11 12 11 12 14 16 15 16 17 16 14 14 15 16 15 16 16 17
-0 -0 -1 -1 -1 -1 -0 -0 -0 -1 -1 -1 1 6 7 8 1 -0 3 6 5 5 6 15 12 12 9 10 10 13 11 11 16 12 10 11 13 14 17 19 19 20 20 20 18 17 15 15 16 18 18 18 17 18
-0 -0 -0 -1 -1 -1 -0 -1 -1 -1 -1 3 6 7 5 1 4 7 9 10 11 12 14 15 11 14 8 12 11 9 13 13 17 14 13 15 16 14 20 22 22 21 21 23 21 20 20 18 18 20 22 22 22 22
-0 -0 -1 -1 -1 -0 -0 -1 -1 2 4 3 4 4 5 8 9 11 14 16 13 16 18 12 13 12 8 9 9 11 13 14 18 17 15 18 17 23 23 24 25 25 26 26 25 24 23 23 23 24 26 26 27 27
-0 -0 -1 -1 -1 -0 -0 -1 -0 -1 1 4 8 10 9 13 16 16 18 19 21 22 17 11 11 8 8 8 10 11 14 16 15 16 19 18 25 27 27 26 27 28 26 26 26 26 26 26 27 27 27 28 29 29
-0 -0 -0 -0 -0 -0 -0 -0 -1 -0 5 10 12 15 16 19 21 21 21 20 18 15 19 15 11 12 8 10 10 13 13 15 17 17 20 28 30 30 29 29 29 29 28 27 27 27 26 27 28 29 29 29 29 30
-1 -1 -1 -0 -0 -0 -1 -0 1 3 5 10 13 17 19 22 26 28 29 24 24 23 16 11 13 9 13 11 10 14 16 17 18 19 29 30 30 29 29 30 30 29 29 28 27 28 28 28 29 30 30 30 30 30
1 2 3 1 0 -0 1 4 7 9 13 12 17 18 26 23 27 28 27 26 23 21 16 13 15 16 14 13 17 15 16 17 21 34 32 30 32 31 31 30 30 30 30 30 30 29 29 30 31 31 31 31 32 31
3 8 2 0 1 3 4 11 13 16 17 19 29 26 24 28 30 33 27 25 22 22 14 15 12 17 18 18 19 31 30 36 36 33 31 31 31 31 31 31 31 30 30 30 30 30 30 29 29 29 31 32 31 31
10 6 2 1 5 8 15 14 15 17 23 24 29 31 29 28 27 28 29 25 24 23 21 22 21 21 28 25 25 30 32 33 32 30 30 31 31 30 30 31 31 30 30 30 30 30 29 30 30 31 31 31 30 30
7 6 2 2 7 13 17 17 15 22 26 27 24 24 27 28 26 26 27 25 25 25 25 26 28 31 34 33 33 30 29 28 30 30 30 30 29 30 30 29 30 30 30 30 30 31 31 31 31 30 29 29 30 30
5 4 5 5 7 14 18 18 15 20 27 25 24 25 26 27 27 29 28 27 27 29 33 35 36 35 33 32 31 31 29 28 29 30 30 29 29 29 29 29 30 29 30 30 29 29 29 30 30 30 30 29 29 31
11 11 10 12 15 16 18 18 18 19 22 25 23 23 26 26 30 32 32 28 31 34 34 35 35 33 30 30 28 28 26 26 27 28 29 31 29 29 30 30 30 30 30 31 31 32 32 32 32 31 32 33 33 34
18 13 21 18 18 20 21 19 19 18 22 25 25 25 28 30 30 31 29 33 34 35 34 34 33 32 31 31 30 28 27 27 27 28 28 28 30 30 31 31 31 33 33 33 32 33 33 33 33 33 33 37 36 36
18 19 23 25 25 26 26 20 24 22 24 25 25 28 30 32 30 27 33 34 35 31 32 32 32 30 30 30 29 29 28 29 31 31 32 32 32 32 32 33 31 32 34 35 33 33 34 33 33 34 36 36 38 38
22 30 33 33 31 34 29 29 25 24 24 27 28 30 31 32 28 33 38 40 34 31 32 32 30 30 30 31 33 33 32 30 31 32 31 32 34 35 34 35 34 35 34 34 34 35 35 38 36 37 38 41 42 42
30 38 36 41 34 35 34 33 31 28 31 29 30 31 32 31 34 36 36 36 34 34 33 31 31 31 33 33 33 34 33 31 32 34 33 33 34 34 35 35 36 37 38 38 42 43 43 44 42 42 42 43 42 42
41 39 41 42 38 39 37 36 36 35 32 33 33 31 31 32 34 37 35 34 33 34 34 34 32 33 34 33 33 33 35 34 31 33 34 33 33 34 34 35 39 39 44 45 44 44 43 42 44 44 42 42 39 43
41 42 37 34 36 34 35 35 33 35 37 37 37 34 33 37 38 36 32 31 32 33 33 33 32 32 33 34 34 35 35 35 33 34 36 36 37 37 36 38 39 39 44 45 45 45 43 44 43 42 41 42 43 41
38 37 39 37 38 36 38 38 38 39 38 36 36 38 39 38 38 34 32 31 33 33 34 35 35 33 34 35 35 34 35 36 36 37 37 37 42 44 45 45 43 30 40 42 41 41 45 44 43 40 39 37 35 39
35 33 34 37 36 35 37 37 38 36 35 37 37 38 38 36 37 35 32 31 31 32 33 34 34 35 35 35 36 37 37 35 33 35 38 38 38 38 45 46 45 44 44 46 35 30 32 34 33 32 33 34 33 35
34 34 35 36 36 37 36 36 36 35 34 33 33 34 35 35 34 32 32 32 32 33 35 35 36 34 34 34 34 35 38 39 40 39 40 40 39 42 46 46 43 43 45 49 40 38 34 36 37 39 37 35 36 35
33 34 33 34 35 35 36 37 36 34 34 35 34 35 37 37 34 33 33 35 37 37 37 37 37 40 40 40 43 42 39 45 47 44 45 46 46 46 44 41 41 44 46 45 43 44 39 38 39 38 37 37 36 35
36 39 35 33 34 36 38 37 38 37 37 37 38 39 38 36 36 34 37 43 44 43 39 41 43 40 40 42 45 46 38 43 43 39 41 39 40 40 39 39 39 41 42 38 38 38 37 38 37 36 36 36 35 34
50 50 49 39 38 38 41 42 41 41 42 43 43 48 49 43 37 36 38 40 38 37 39 39 39 44 42 41 40 41 38 41 41 32 29 29 30 30 31 32 35 36 36 35 34 34 36 36 36 35 35 34 34 34

GFSWCAN_con_lsi_063.txt.gz
Lid_Strength_Index
3 2 1 1 -0 -1 -1 -1 -1 -1 -1 -1 -1 -1 -1 -0 -0 1 4 3 5 9 10 8 8 10 11 11 12 14 13 12 10 13 18 16 14 13 14 13 13 15 15 16 15 17 19 11 12 13 10 13 13 13
2 2 1 1 0 -1 -1 -1 -1 -1 -1 -1 -1 -1 -1 -0 -0 -0 5 2 2 7 9 5 6 7 6 7 9 13 11 15 10 16 17 19 17 17 18 17 12 15 12 14 14 14 10 11 10 11 12 13 13 14
-0 0 0 -0 -1 -1 -1 -1 -1 -1 -1 -1 -1 -1 -1 -1 -1 -0 3 3 4 7 8 8 9 6 5 5 3 8 11 8 9 9 13 13 13 14 18 15 16 12 12 13 13 13 12 11 10 12 12 12 12 13
-1 -0 -0 -1 -1 -1 -1 -1 -1 -1 -1 -1 -1 -1 -1 -1 -1 -1 3 3 5 7 12 13 7 8 7 6 5 3 5 5 6 6 8 10 12 10 12 12 13 13 12 14 13 11 10 9 11 11 11 12 13 14
-1 -1 -1 -1 -1 -1 -1 -1 -1 -1 -1 -1 -1 -1 -1 -1 -1 -0 2 3 3 8 14 17 12 8 7 6 6 6 5 6 6 8 9 11 9 10 11 11 15 12 11 12 12 11 10 10 12 12 12 12 12 14
-1 -1 -1 -0 -1 -1 -1 -1 -1 -1 -1 -1 -1 -1 -1 -1 -1 4 7 2 2 4 9 16 11 12 10 8 6 6 5 6 6 8 9 8 8 9 12 14 11 10 9 8 9 10 10 10 11 11 11 13 13 14
-0 -1 -1 -1 -0 -0 -0 -1 -1 -1 -1 -1 -1 -1 -1 -1 2 5 7 5 1 2 8 13 18 12 9 8 7 6 5 5 6 7 8 8 9 8 12 15 10 9 9 9 9 10 10 9 10 12 11 12 12 13
-0 -1 -1 -1 -0 -0 -0 -0 -1 -1 -1 -1 -1 -1 -1 -1 1 4 2 0 0 4 7 14 19 16 9 9 11 6 7 6 7 8 8 10 9 9 12 10 9 10 11 11 11 10 10 11 13 13 12 12 13 14
-0 -0 -0 -0 -0 -0 -0 -0 -1 -1 -1 -1 -1 -1 1 3 5 5 -1 -1 1 6 11 17 19 20 10 9 8 7 6 10 6 9 9 11 15 14 12 11 11 12 13 14 15 16 15 14 14 14 13 14 14 16
0 -0 -0 -0 -0 -0 -1 -0 -0 -1 -1 -1 1 5 8 5 1 1 4 6 6 5 7 12 11 14 10 12 11 12 8 10 16 12 9 11 14 11 12 18 18 18 18 18 17 17 19 18 17 16 16 16 15 17
1 -0 -0 -0 -0 -0 -1 -1 -1 -1 -0 4 6 8 5 0 5 7 9 9 10 14 12 16 11 13 11 16 13 8 12 11 14 15 12 18 19 13 19 21 21 20 20 21 21 19 19 19 17 17 19 20 20 20
0 -0 -0 -0 -1 -0 -1 -1 -1 1 3 4 5 4 4 7 9 11 12 12 14 17 18 12 12 12 13 11 13 11 14 13 16 17 13 19 15 23 23 23 24 24 24 24 23 22 23 23 23 22 23 23 24 24
-0 -0 -0 -0 -0 -1 -1 -0 -1 -1 1 4 7 9 10 11 13 14 17 21 17 23 18 11 11 11 9 7 11 11 14 16 15 16 19 17 24 26 27 26 26 26 25 25 25 24 25 26 26 26 26 26 27 28
-0 -0 -0 -0 -0 -0 -0 -1 -1 0 5 9 11 14 15 17 20 22 22 21 20 15 20 11 10 9 12 10 12 13 14 16 20 17 19 28 28 29 28 28 28 27 26 26 26 26 26 26 27 27 28 26 27 29
-1 -1 -1 -0 -0 -1 -1 -0 1 6 10 11 14 16 16 25 27 31 30 26 25 25 17 12 12 9 11 11 12 15 17 17 20 21 31 29 29 29 29 29 29 28 28 27 26 26 27 27 28 29 28 27 28 28
1 2 1 -1 -0 1 2 4 8 8 16 17 23 22 28 23 26 28 29 28 24 22 19 18 18 12 14 15 15 15 16 17 24 34 32 29 29 29 29 29 29 30 29 28 29 28 28 29 29 30 29 29 29 28
2 8 0 1 2 4 4 12 13 18 19 24 28 29 29 29 31 31 29 26 22 21 18 18 15 14 16 19 23 29 27 34 34 31 33 32 30 30 29 29 30 29 29 29 29 29 29 28 27 28 30 30 29 29
10 7 1 2 8 10 16 16 19 22 27 26 29 32 28 29 28 31 31 25 25 23 21 20 22 20 18 24 30 33 32 33 32 31 30 30 30 30 29 30 30 30 30 29 29 28 28 28 29 30 29 28 28 28
6 4 1 2 7 16 19 20 20 26 28 29 26 26 28 29 26 26 26 25 24 24 24 25 23 31 32 34 36 35 34 31 30 29 28 28 29 29 29 29 29 30 30 30 30 30 30 30 29 28 28 28 29 29
5 4 5 5 8 16 22 21 20 24 29 26 27 30 28 29 30 32 28 27 26 28 31 32 34 35 35 34 32 31 29 27 30 30 29 28 28 28 28 29 29 29 29 29 29 28 29 29 29 29 29 28 29 30
12 11 10 13 16 17 20 23 22 25 26 27 25 25 28 27 31 31 31 28 30 33 34 35 37 34 34 35 32 30 28 27 28 28 29 30 28 28 29 29 29 29 30 30 31 31 31 32 31 30 31 31 31 30
17 13 20 18 19 22 21 21 20 20 26 28 26 27 30 32 31 31 28 32 34 34 35 35 37 36 36 35 33 31 29 28 28 28 28 28 30 30 31 31 31 33 33 33 32 33 33 32 31 31 32 33 32 33
18 19 24 25 25 27 27 23 26 25 30 29 28 30 31 32 30 26 33 34 35 31 34 35 35 36 35 33 33 31 29 29 30 31 31 32 32 32 32 32 31 32 33 34 32 33 33 32 32 33 33 34 35 36
22 30 33 34 32 35 31 31 28 27 29 30 31 33 33 31 28 33 37 39 35 32 35 36 35 33 33 33 32 33 32 30 30 31 30 31 33 35 34 34 34 34 34 33 33 34 35 36 35 36 37 40 43 43
30 38 36 41 35 35 36 36 34 31 34 33 34 33 33 31 34 37 37 38 36 37 35 34 32 31 33 32 32 32 32 30 30 33 33 32 34 34 34 34 35 36 36 33 35 38 43 44 43 43 43 45 43 43
41 40 41 42 39 40 38 39 38 37 33 34 36 33 33 32 35 39 40 37 36 34 33 33 32 32 33 32 32 32 34 33 30 32 33 32 31 31 33 33 34 35 39 43 44 44 44 43 45 45 43 43 40 44
41 43 39 35 37 36 37 35 34 34 36 37 38 34 32 35 39 37 32 31 31 32 32 32 32 31 33 34 34 35 35 35 34 33 34 34 34 34 33 34 38 39 44 46 46 45 43 44 44 44 42 43 44 42
40 40 41 38 39 41 41 39 38 38 36 35 35 37 38 38 36 33 32 31 32 32 33 34 34 33 33 34 34 33 34 34 34 34 34 35 36 38 39 41 40 32 41 42 40 41 46 45 44 42 41 39 36 39
38 38 38 38 37 37 39 42 40 35 34 36 36 37 37 34 35 35 32 31 31 32 33 33 34 34 34 34 34 35 34 33 33 33 36 36 37 37 41 44 44 43 44 46 36 30 33 36 36 35 35 35 34 35
36 35 36 37 37 37 37 38 37 35 34 33 33 33 34 33 33 32 32 32 32 33 34 34 34 33 33 33 32 33 35 37 39 39 40 40 39 41 45 45 43 43 45 49 40 39 35 37 37 41 38 37 37 36
33 35 33 34 34 34 35 36 36 35 35 36 35 36 36 35 33 32 33 34 34 34 35 35 35 35 34 34 35 36 34 40 44 41 42 43 44 44 43 41 41 44 47 46 44 45 40 39 40 39 39 38 37 35
34 38 33 32 33 34 36 37 36 36 36 35 35 36 36 35 35 34 34 36 37 36 34 35 36 35 37 38 41 41 34 39 40 38 40 39 40 39 39 39 41 44 43 39 39 38 38 40 38 37 36 36 35 35
39 37 35 33 32 33 37 40 38 38 39 40 40 46 47 42 35 34 37 39 38 36 37 37 38 41 41 39 38 39 37 40 40 32 29 30 31 31 35 36 36 36 36 36 35 35 36 36 36 36 35 35 34 34

GFSWCAN_con_lsi_069.txt.gz
Lid_Strength_Index
3 3 3 3 3 3 3 3 3 2 2 1 1 0 -1 -1 -2 -0 2 1 3 7 6 5 6 7 7 7 9 9 9 9 9 11 12 12 12 11 12 12 12 12 13 14 14 16 18 7 8 13 10 8 9 9
3 3 3 3 3 3 3 3 3 2 2 1 1 1 -1 -1 -1 -1 3 1 1 5 6 3 4 4 4 4 5 8 8 8 7 9 10 9 11 10 11 14 9 13 11 12 12 12 8 7 7 6 6 8 8 9
2 2 3 2 3 3 2 2 2 2 2 2 1 0 -1 -1 -1 -1 2 2 2 6 7 7 7 4 3 3 2 7 6 6 6 5 8 9 12 9 13 12 10 9 8 10 10 9 8 7 7 6 7 7 7 8
0 1 1 1 1 1 1 2 2 2 2 1 0 0 -1 -1 -1 -1 2 2 3 5 8 8 4 5 2 3 3 3 5 4 5 5 7 9 11 7 10 9 10 8 8 9 10 9 7 6 6 5 5 6 7 8
-1 -1 -0 -1 -1 -0 -0 0 1 1 1 1 0 -0 -0 -1 -1 -1 1 2 1 4 8 8 7 4 3 3 4 4 4 5 6 8 9 10 8 8 8 8 10 8 9 10 11 7 7 7 5 5 6 5 6 8
-1 -1 -1 -1 -1 -1 -1 -1 -1 -0 1 1 -0 -0 2 -1 -1 1 6 2 1 3 7 10 6 6 4 4 5 5 5 5 6 8 9 7 6 8 11 12 8 7 6 6 7 5 5 5 4 4 5 5 6 8
-1 -1 -1 -1 -1 -1 -1 -1 -1 -1 -0 -0 0 0 1 -1 0 4 6 4 1 2 7 10 9 7 5 5 5 5 5 6 7 8 9 9 8 7 9 12 9 6 6 5 4 5 6 6 6 4 5 5 7 8
-1 -1 -1 -1 -1 -1 -1 -1 -1 -1 -0 -0 0 1 -0 -1 0 5 4 -0 1 5 6 10 11 9 6 8 9 6 8 7 8 8 8 9 8 8 11 9 7 6 6 6 6 5 5 5 7 7 8 8 8 8
-1 -1 -1 -1 -0 -0 -0 -0 -0 -0 -0 -1 0 -0 1 2 6 5 1 -0 2 5 9 9 12 12 7 8 7 8 7 10 7 10 9 8 10 12 9 9 9 11 12 13 12 9 9 9 9 9 9 9 9 8
-1 -0 -0 -0 -0 -0 0 -0 -0 -0 -0 -0 1 5 8 5 0 0 4 7 6 7 8 10 8 12 8 8 9 8 8 10 12 9 7 10 11 8 15 17 17 17 17 17 15 12 15 13 13 12 11 11 11 11
-0 -0 -0 -0 -0 -0 0 0 -0 -0 -0 4 6 8 5 1 5 6 8 9 9 10 8 10 8 11 8 10 10 8 10 9 13 10 11 11 12 12 20 20 19 19 19 19 19 18 17 17 16 16 14 14 15 15
0 0 0 -0 0 0 0 -0 2 3 4 4 5 4 5 7 9 10 11 11 11 12 11 10 9 8 8 6 8 9 11 10 14 9 11 14 12 22 23 23 22 22 22 22 20 20 19 19 19 19 18 18 18 18
-0 -0 -0 -0 -0 -0 -0 -0 1 1 2 4 6 9 9 11 13 14 16 14 14 12 10 10 11 9 8 7 8 10 12 13 10 12 13 12 22 22 25 24 24 23 22 22 21 21 21 21 22 22 21 21 21 21
-1 -1 -1 -1 -0 -0 -0 -0 1 3 5 9 10 14 13 14 12 13 11 11 15 11 9 8 10 10 8 10 9 13 10 11 14 15 14 16 24 26 26 25 26 26 25 24 23 22 23 23 24 23 24 23 22 23
-1 -1 -1 -0 -0 -0 1 2 4 8 10 12 10 15 15 21 21 22 20 17 20 17 9 9 9 8 9 10 10 11 15 15 13 14 16 23 26 26 26 26 26 26 26 25 24 24 25 24 25 25 25 24 23 24
1 1 2 0 1 1 2 5 10 10 18 18 22 18 20 17 20 20 19 20 19 15 13 9 10 12 12 11 12 13 14 15 13 20 24 25 26 27 27 27 27 26 26 25 25 25 25 25 25 26 26 26 25 25
1 4 1 2 3 4 5 10 13 19 21 21 25 25 24 23 23 25 23 22 20 17 12 11 13 13 12 14 15 14 12 19 24 24 25 26 28 28 28 27 27 27 26 25 25 25 25 24 24 25 27 26 26 26
6 4 2 3 6 7 12 13 16 19 24 23 23 26 25 25 25 25 24 23 20 18 16 13 12 14 14 15 13 22 24 25 25 26 25 27 27 27 27 27 27 26 26 26 25 25 25 25 26 26 26 26 26 27
5 5 4 4 6 11 14 16 16 23 24 23 23 24 25 25 25 24 24 22 22 21 18 16 14 13 15 23 24 26 26 26 25 25 25 27 27 28 28 27 26 26 26 26 26 27 27 26 25 25 25 25 27 26
6 5 5 7 8 13 17 19 16 20 23 24 23 24 25 25 25 25 25 24 22 21 21 21 23 27 26 27 26 26 26 26 25 27 26 25 25 26 26 26 25 25 25 26 26 25 26 27 27 27 26 26 27 28
9 9 10 11 15 16 19 20 22 21 22 24 23 23 25 25 27 27 26 25 25 29 27 29 29 28 29 28 27 27 27 26 25 25 25 26 26 25 25 25 25 25 26 26 28 28 28 29 29 28 28 29 29 29
14 11 15 14 16 18 20 21 21 21 22 24 24 25 27 27 28 28 26 27 30 31 30 29 29 29 29 29 29 29 28 28 27 24 25 25 26 26 26 26 26 27 27 27 28 29 29 29 28 28 29 29 29 29
17 16 20 21 21 22 25 21 23 23 25 26 25 26 28 28 28 25 30 31 30 28 29 29 30 31 30 30 30 29 30 28 26 26 27 27 27 27 27 27 27 28 29 29 28 29 30 29 29 29 29 29 29 29
21 28 30 30 27 29 26 28 24 25 25 27 27 30 30 29 26 28 30 31 30 29 30 31 30 29 29 31 29 30 29 27 27 27 27 27 29 30 29 29 29 29 29 29 29 30 30 31 30 30 30 30 31 31
26 36 32 36 31 31 32 31 31 27 30 29 29 30 30 28 29 31 32 32 31 31 31 30 29 28 29 30 29 30 31 27 27 29 28 27 29 29 30 29 30 31 31 29 30 31 31 32 32 32 32 32 33 33
39 37 36 37 35 34 35 34 35 34 31 31 32 30 29 29 30 30 32 31 31 31 31 31 30 30 30 29 29 29 30 29 27 28 28 27 27 27 28 28 29 30 31 31 30 31 31 32 33 34 34 34 35 36
38 38 35 32 34 34 35 34 33 33 35 35 34 31 30 31 32 32 30 29 30 31 30 30 31 29 29 30 30 30 30 30 29 28 28 29 29 29 28 28 28 30 32 32 33 33 34 35 35 35 35 34 35 35
35 35 38 36 36 36 39 38 38 38 36 34 34 34 35 33 33 32 31 29 30 30 31 30 30 29 29 29 29 30 30 30 30 30 30 30 30 30 31 31 31 30 33 34 34 35 36 36 36 36 36 36 34 33
35 34 34 40 38 36 38 38 38 35 33 35 35 34 34 32 32 33 30 29 29 30 30 30 30 30 30 30 30 30 30 30 30 30 29 28 29 29 31 32 32 33 34 35 34 29 31 34 34 34 34 34 33 32
35 34 35 39 39 37 35 35 35 34 33 32 31 31 32 32 31 30 30 30 30 30 29 29 29 30 30 30 29 30 30 30 30 29 29 28 29 31 32 33 33 34 35 37 36 35 32 32 34 36 34 34 33 33
32 35 35 34 35 32 33 33 33 33 32 32 32 33 32 32 31 30 30 29 29 30 31 31 31 30 30 30 30 29 29 30 31 31 31 32 33 34 35 35 35 36 37 37 37 37 36 36 36 36 36 36 35 34
34 37 34 35 33 33 33 34 32 32 32 32 32 33 32 32 31 29 29 30 32 32 31 30 30 29 28 28 28 28 29 30 32 33 35 35 35 35 34 35 36 37 37 36 36 36 36 37 36 35 35 34 34 34
34 32 32 32 34 34 36 38 34 35 34 34 34 38 38 37 34 30 30 30 29 29 29 29 28 29 30 30 30 31 32 34 35 30 29 29 31 31 33 34 35 36 36 35 34 34 35 35 35 34 34 34 34 33

GFSWCAN_con_lsi_072.txt.gz
Lid_Strength_Index
3 3 3 3 3 3 3 3 3 3 3 3 2 2 1 1 1 1 3 2 5 8 8 7 6 9 9 8 13 10 10 10 12 13 15 16 18 15 16 14 15 14 15 16 14 16 18 8 11 13 10 11 10 10
2 3 3 3 3 3 3 3 3 3 3 2 2 2 1 1 1 -1 3 1 1 6 8 5 5 4 5 5 8 9 11 13 10 14 15 15 18 16 16 21 12 15 14 16 14 15 9 8 10 8 7 8 9 8
2 2 2 2 3 3 3 3 3 3 3 3 3 2 2 1 0 1 2 2 2 6 7 8 8 5 3 4 3 9 10 7 9 7 11 12 16 13 18 15 15 12 10 12 13 11 10 9 8 8 7 6 7 8
2 2 2 2 2 2 3 2 3 3 3 2 2 2 2 2 1 0 3 2 3 6 9 10 5 6 3 3 4 4 6 6 6 8 11 14 15 10 14 13 14 12 12 14 13 10 10 9 8 7 6 7 7 7
-1 -1 -0 0 0 1 1 2 2 2 2 2 2 2 2 1 0 1 2 2 1 5 9 9 7 5 4 4 4 5 6 7 10 13 13 16 13 13 13 12 13 11 11 12 13 10 9 9 8 7 7 7 7 7
-1 -1 -1 -1 -1 -1 -0 0 0 1 2 2 2 2 1 1 -0 3 6 3 1 2 8 12 7 8 6 5 5 5 6 8 9 10 11 12 9 11 17 18 11 9 8 8 9 7 7 7 7 7 7 7 7 7
-1 -1 -1 -1 -1 -1 -1 -1 -0 -0 0 0 1 1 1 1 1 6 6 4 0 2 7 11 11 8 6 6 6 6 5 6 8 9 12 11 10 10 16 15 11 10 9 8 8 8 9 8 8 8 7 7 8 10
-1 -1 -1 -1 -1 -1 -1 -1 -1 -1 -1 -1 -1 -0 0 0 0 5 3 0 1 4 6 11 13 10 6 9 9 6 8 7 8 10 12 12 11 11 15 11 10 10 10 8 11 12 11 10 9 10 10 10 12 11
-1 -1 -1 -1 -1 -1 -1 -1 -1 -1 -1 -1 -1 -1 1 2 5 5 1 -0 1 5 9 11 13 15 8 10 9 8 8 12 8 13 12 12 16 17 12 11 13 16 16 17 16 14 14 14 13 13 13 13 13 12
-1 -1 -1 -1 -1 -1 -0 -0 -0 -0 -0 -1 1 4 6 4 1 1 3 7 7 8 8 10 11 15 9 11 12 11 11 13 14 12 9 15 15 10 16 18 18 19 18 18 18 16 18 19 17 16 16 15 15 14
-0 -0 -0 -0 -0 -0 -0 -0 -0 -0 -0 3 5 7 4 -0 5 6 9 10 10 12 9 11 11 13 11 15 13 10 12 12 17 16 14 20 19 13 19 21 20 20 20 21 21 19 19 19 19 19 19 19 18 19
-0 -0 -0 0 -0 0 1 0 -0 2 3 3 4 4 5 7 9 11 13 11 12 14 12 11 12 12 11 8 12 10 12 13 21 16 17 21 15 23 24 23 23 23 24 25 23 22 21 20 21 22 22 21 22 21
-0 -0 -0 -0 -0 -0 -0 0 -0 -0 2 4 6 9 10 12 14 15 17 15 16 13 12 12 14 12 11 9 11 11 14 18 17 18 19 17 22 25 27 26 26 26 26 26 25 24 24 24 24 25 25 25 24 24
-0 -0 -0 -0 0 1 0 1 2 3 6 9 11 16 14 15 14 15 14 14 15 11 11 10 13 12 11 11 11 15 16 16 21 23 20 24 29 30 29 28 31 29 29 28 27 26 26 26 26 27 26 25 25 26
1 1 1 2 1 1 2 3 5 11 13 15 13 18 20 22 22 22 21 20 19 14 10 12 13 11 13 12 12 14 17 23 20 20 23 28 29 29 29 29 31 31 30 30 30 29 28 29 28 28 27 26 24 24
1 2 3 2 3 3 3 8 12 13 19 20 26 20 20 20 21 22 22 22 21 16 14 11 13 14 16 13 16 19 21 22 19 29 30 29 31 31 32 32 32 32 32 31 31 30 28 30 29 29 28 26 26 25
3 7 3 2 3 6 6 13 17 20 22 23 27 26 26 24 26 27 25 24 21 18 17 16 20 21 17 20 21 20 19 25 31 32 30 30 31 32 33 33 32 33 32 31 30 31 29 27 26 26 28 27 26 26
8 7 4 3 6 10 16 16 20 22 26 25 26 27 26 26 26 27 26 23 22 21 20 18 16 21 22 23 22 29 31 33 32 31 30 32 33 34 34 33 33 32 32 31 30 29 29 27 26 26 26 26 26 27
6 6 5 5 8 15 20 21 20 27 26 25 24 24 26 27 25 24 25 23 23 24 24 22 21 24 27 30 33 33 33 33 32 29 30 32 32 34 34 33 31 32 32 32 31 31 31 28 28 25 25 25 27 27
5 6 6 7 8 16 22 24 19 23 26 25 24 26 25 27 27 27 26 26 25 27 27 28 33 34 33 33 32 33 32 30 32 33 31 30 30 33 33 32 30 31 31 32 31 28 30 29 27 27 27 27 28 29
11 10 9 13 16 19 21 22 24 21 22 24 23 23 26 26 31 31 31 26 29 32 32 34 34 35 36 36 35 35 32 31 31 32 33 33 31 31 32 31 31 32 32 33 33 33 30 29 28 28 28 29 29 29
15 11 17 14 17 20 22 22 21 21 25 25 24 24 26 26 27 30 28 31 33 35 35 34 35 36 37 37 38 37 37 36 33 30 29 30 32 32 33 33 33 34 34 34 33 33 31 29 28 28 28 29 28 29
16 16 20 22 22 23 26 21 25 25 28 29 28 29 30 29 29 25 32 36 34 33 36 37 38 39 38 38 37 36 35 34 33 34 34 34 35 34 34 34 34 35 36 34 32 30 30 28 28 29 28 29 29 29
20 28 30 30 28 30 29 29 26 28 30 31 32 35 35 35 30 31 35 39 37 36 37 38 39 38 38 38 38 38 37 35 34 33 34 35 36 36 36 36 36 35 34 31 30 29 29 30 29 29 30 30 31 31
27 37 34 38 33 33 34 35 34 32 35 36 36 36 36 36 35 36 37 40 38 39 38 38 38 36 38 39 37 38 37 35 34 36 34 35 36 35 35 35 34 34 32 31 30 30 30 30 30 31 31 32 33 34
40 39 40 40 37 37 38 39 39 39 37 38 40 38 38 37 37 36 39 40 39 40 40 39 39 38 38 37 38 36 36 36 34 35 34 33 32 32 32 31 31 31 30 30 30 30 30 31 32 32 33 33 33 36
41 43 38 35 37 37 39 38 38 38 41 41 41 39 38 37 37 38 37 36 37 39 37 37 38 37 37 38 37 37 36 36 35 34 33 31 31 30 29 29 29 30 30 31 31 32 32 33 34 35 37 40 41 40
40 40 42 41 42 42 46 44 44 44 41 40 40 40 39 37 37 37 36 33 37 36 36 37 36 36 36 36 36 35 35 34 33 31 31 30 29 30 30 30 30 27 31 31 32 33 35 35 39 42 42 39 37 40
41 40 40 43 43 42 43 44 44 42 39 43 41 39 39 37 39 40 37 35 37 38 39 39 37 37 36 36 35 34 33 32 31 31 31 29 30 29 30 30 30 31 32 33 32 29 33 36 37 36 36 36 35 37
41 41 41 44 43 42 41 41 43 43 41 39 38 36 37 38 38 37 38 39 38 39 37 36 34 35 35 35 33 32 31 31 32 31 31 29 29 30 31 31 32 32 33 36 35 35 32 35 36 41 39 38 38 36
38 42 41 40 40 40 40 40 41 40 39 40 39 41 40 39 37 37 33 35 36 33 32 32 33 31 32 31 31 31 30 31 31 30 31 31 32 33 33 32 33 35 38 38 39 41 40 40 41 40 39 38 37 36
40 42 40 39 39 39 40 38 34 35 35 36 36 37 38 37 34 33 30 30 34 34 31 30 31 30 29 29 28 28 27 29 30 31 32 32 33 35 36 38 40 42 42 40 41 40 39 39 38 37 36 36 36 35
40 38 38 38 39 37 40 39 36 36 37 39 39 43 42 40 36 34 35 34 33 32 33 31 31 31 29 30 30 31 30 33 34 28 27 28 31 33 39 39 40 40 39 38 37 36 37 36 36 36 36 35 34 33

GFSWCAN_con_lsi_075.txt.gz
Lid_Strength_Index
2 2 2 2 2 2 2 2 3 3 3 3 2 2 2 1 1 2 3 3 6 9 11 9 8 11 12 12 14 13 10 10 12 15 17 18 21 16 18 16 15 16 18 18 19 17 18 10 11 12 11 11 10 10
1 2 2 2 2 2 2 2 3 3 3 3 3 2 2 1 1 1 5 2 3 7 11 7 6 6 7 7 10 13 13 15 11 14 17 18 19 20 18 20 13 17 14 16 14 15 10 9 10 9 8 10 10 10
1 2 2 2 2 2 2 2 2 3 3 3 2 2 3 2 2 2 4 4 4 7 9 11 9 8 5 6 5 11 10 9 10 10 13 16 18 16 20 20 17 13 12 14 14 13 12 11 10 9 7 8 8 8
1 1 1 2 2 2 2 2 2 3 2 2 2 2 2 2 2 2 4 4 4 7 9 10 7 8 6 5 6 6 7 6 7 10 14 18 19 12 17 14 15 14 13 16 16 12 11 10 9 8 8 7 7 8
-1 -1 -0 -0 1 1 2 2 2 2 2 2 2 2 2 2 2 3 2 3 3 5 10 13 10 8 6 5 6 6 6 8 12 14 14 14 14 13 16 14 17 13 13 13 15 11 11 10 9 9 9 8 7 8
-1 -1 -1 -1 -1 -1 -0 1 1 2 2 2 2 2 2 2 2 4 7 4 3 3 9 13 9 10 8 5 6 6 6 8 11 13 14 13 9 11 19 24 12 11 11 10 11 9 9 9 8 9 8 8 8 8
-1 -1 -1 -1 -1 -1 -1 -1 -1 -0 1 1 2 2 2 2 3 7 8 8 2 2 8 12 12 9 6 6 6 7 6 9 9 12 15 11 10 11 19 16 11 11 10 10 9 11 11 10 10 9 9 9 10 11
-1 -1 -1 -1 -1 -1 -1 -1 -1 -1 -1 -0 0 0 1 1 2 5 4 2 1 4 7 12 13 10 6 9 9 6 7 7 9 10 12 11 11 12 17 13 10 12 11 11 12 13 12 12 11 13 13 12 14 13
-1 -1 -1 -1 -1 -1 -1 -1 -1 -1 -1 -1 -1 -1 1 3 6 7 2 1 1 5 9 13 14 15 7 9 9 9 8 11 8 11 11 11 17 15 12 11 11 15 14 15 17 16 15 15 15 16 16 16 17 15
-0 -0 -1 -1 -1 -1 -1 -1 -1 -1 -1 -1 1 4 6 6 0 1 4 6 6 6 8 12 12 14 9 12 11 13 11 12 14 14 10 12 18 10 14 18 18 19 19 19 20 18 22 22 19 19 19 18 18 18
-0 0 -0 -0 -0 -1 -1 -1 -1 -1 -0 3 5 6 4 -0 3 5 8 9 9 12 9 11 11 12 12 14 15 11 13 12 15 16 15 22 21 12 19 21 21 20 21 21 22 21 21 21 21 21 22 22 22 23
0 -0 -0 -0 -0 -0 -0 -0 -0 1 3 3 5 2 3 5 7 10 10 10 11 13 11 12 12 11 11 8 11 11 13 14 17 20 18 24 16 23 23 23 23 23 25 26 25 24 23 22 23 24 25 25 25 24
0 1 1 0 0 0 0 0 0 -0 1 4 6 7 8 10 13 14 15 16 15 12 12 11 12 12 10 9 11 12 16 18 18 17 20 18 23 26 28 27 27 28 28 28 27 26 26 25 26 27 27 27 27 26
1 1 1 1 2 1 2 2 2 2 6 8 11 14 14 15 15 14 14 15 14 12 10 10 15 12 10 12 12 16 17 18 24 21 22 23 26 29 30 30 32 31 31 29 30 29 28 28 28 29 30 29 28 28
1 2 2 2 2 3 3 5 6 11 13 16 14 19 21 22 23 22 21 19 18 10 10 12 13 12 15 13 14 16 19 22 22 21 21 29 30 30 30 31 33 33 32 32 32 32 30 31 32 32 31 31 30 27
2 4 6 2 2 4 5 10 13 14 19 22 26 21 22 21 22 24 24 21 21 18 14 12 16 15 15 14 17 20 21 23 20 25 31 29 32 33 34 34 34 34 35 33 33 32 31 32 32 32 33 32 30 28
6 10 4 3 3 7 8 16 17 21 23 24 27 26 27 25 27 26 26 25 22 17 18 18 21 17 15 19 22 22 21 25 34 34 34 33 32 33 36 36 35 35 35 35 34 33 33 32 33 33 33 32 30 29
10 8 4 4 7 12 20 20 22 23 26 26 26 28 26 27 28 27 26 24 23 21 19 18 15 18 19 20 22 27 32 35 36 34 34 35 36 37 36 35 35 35 35 35 34 33 32 32 32 32 32 31 30 27
7 7 5 6 9 20 22 22 23 28 27 26 24 24 25 26 25 25 25 24 23 23 21 19 18 21 23 29 32 36 36 36 33 31 33 36 33 36 36 36 35 35 34 35 35 34 34 34 33 31 30 28 28 27
6 7 7 8 12 21 25 26 23 26 32 27 26 27 27 27 26 27 26 26 25 26 30 31 34 36 33 34 35 36 35 33 30 34 34 33 34 36 34 34 33 34 34 35 34 31 35 34 32 30 30 28 28 28
12 12 11 16 21 23 25 27 26 26 26 28 25 25 26 25 28 29 29 27 30 34 33 36 37 37 39 40 40 39 35 33 35 34 33 34 33 33 35 35 35 36 35 37 36 36 35 35 32 29 29 29 28 28
17 11 20 17 20 25 26 25 27 25 28 28 25 25 28 28 29 29 28 32 35 36 37 36 38 40 40 40 40 41 40 41 38 34 31 30 33 33 34 35 35 37 37 37 38 38 36 33 29 28 29 29 27 28
16 17 22 23 24 27 30 27 30 28 24 27 24 25 28 28 29 26 32 37 38 36 39 40 41 43 41 42 40 38 40 38 37 37 36 36 38 38 36 38 38 36 37 36 37 36 34 28 28 28 28 28 28 28
21 29 30 31 30 34 33 32 30 29 26 26 27 30 30 32 29 29 38 42 38 38 39 40 42 39 38 39 40 41 39 40 39 38 39 35 37 37 40 39 39 39 37 36 35 34 31 30 28 29 29 29 29 30
27 37 34 38 35 35 36 37 36 32 32 34 32 32 32 34 31 35 37 41 42 42 41 43 42 40 41 43 42 41 40 39 38 38 38 39 40 39 37 38 37 36 36 35 34 33 31 30 30 30 30 30 30 31
40 41 41 46 39 38 41 40 40 40 40 38 39 40 43 39 35 34 39 42 43 42 42 42 41 41 40 41 40 40 38 41 40 38 38 38 35 36 38 36 35 33 33 31 30 30 30 29 31 31 31 31 31 32
41 43 40 40 40 40 40 41 41 39 42 40 43 41 40 35 36 37 40 39 39 41 41 41 41 40 39 40 41 42 42 41 38 36 37 37 35 34 32 31 31 29 29 29 29 30 30 31 31 32 32 33 34 34
42 43 42 43 43 46 47 47 46 44 43 42 42 39 37 36 36 39 37 36 40 41 40 42 41 39 39 38 38 38 38 38 36 34 33 32 32 31 30 30 29 26 30 30 30 31 31 32 32 33 34 35 34 36
41 43 42 44 45 42 45 45 45 45 42 47 42 41 40 39 41 42 37 36 41 40 41 41 39 41 39 39 38 38 37 37 35 36 35 32 32 30 30 30 30 30 30 30 29 28 31 32 32 33 33 34 35 37
42 45 43 46 43 43 42 43 45 47 46 41 41 38 38 38 37 41 40 41 39 40 40 41 41 40 39 39 37 36 36 35 34 31 31 29 29 30 31 31 31 31 31 32 32 32 30 31 34 36 37 39 39 38
44 46 43 44 42 44 43 45 47 45 45 44 46 42 42 41 37 42 37 40 41 43 40 39 35 33 32 32 32 33 31 30 29 29 29 29 30 31 32 31 31 32 33 34 34 36 37 39 42 42 40 39 38 37
44 44 41 39 40 42 45 45 43 42 41 41 37 41 39 39 38 34 31 32 36 34 32 32 32 31 29 28 28 28 26 28 29 30 31 30 31 31 31 32 36 40 39 38 41 42 42 41 40 38 37 37 36 36
44 44 43 41 39 37 40 40 39 38 37 36 36 38 38 37 34 32 33 33 32 32 31 30 29 30 29 29 29 28 27 29 30 26 25 26 29 31 38 40 42 42 41 39 38 38 38 38 37 36 36 36 35 34

GFSWCAN_con_lsi_078.txt.gz
Lid_Strength_Index
2 1 1 1 1 1 1 1 1 1 2 2 2 2 2 2 1 2 3 3 5 9 11 9 8 11 12 12 14 14 10 11 12 13 14 17 21 17 19 16 16 16 17 18 15 16 19 12 11 13 12 11 11 11
2 1 1 1 1 1 1 1 1 1 1 2 2 2 2 2 2 2 5 2 3 8 9 7 7 6 7 8 11 12 12 14 11 13 16 16 19 20 19 21 13 17 15 17 15 15 11 11 10 9 9 10 10 11
2 1 1 1 1 1 1 1 1 1 1 2 2 2 2 2 2 2 4 4 4 9 9 11 10 8 6 6 6 12 13 10 11 10 14 15 16 16 20 19 17 13 12 14 14 12 12 11 11 10 8 9 9 9
1 1 1 1 1 1 1 1 1 1 1 2 2 2 2 2 2 1 4 3 5 8 10 11 8 8 6 6 6 7 8 8 9 11 17 18 19 13 17 15 15 14 13 16 16 12 12 11 10 9 9 9 9 9
-1 -1 -1 0 1 0 1 1 1 1 1 1 2 2 2 2 2 3 3 3 3 6 11 14 12 9 6 6 7 7 7 10 14 15 16 18 18 16 18 16 19 14 13 14 15 11 11 11 10 9 10 10 10 10
-1 -1 -1 -1 -1 -1 -0 0 1 1 1 1 2 2 2 2 2 5 9 5 3 3 9 14 11 13 9 7 7 8 8 11 13 15 18 16 11 13 20 24 14 13 11 10 12 11 10 10 10 10 10 10 9 9
-1 -1 -1 -1 -1 -1 -1 -1 -1 0 1 1 1 1 1 1 3 7 9 9 3 3 9 13 13 11 9 8 7 8 8 11 11 15 17 13 11 11 19 22 12 12 11 10 10 11 12 11 12 11 11 11 12 13
-1 -1 -1 -1 -1 -1 -1 -1 -1 -1 -1 -0 0 1 1 1 2 5 4 2 2 6 7 11 13 11 8 9 9 7 8 9 9 12 14 13 11 12 18 13 11 10 11 10 10 12 12 13 12 14 14 15 16 15
-1 -1 -0 -1 -1 -1 -1 -1 -1 -1 -1 -1 -1 -1 1 3 6 8 2 2 2 5 9 11 13 14 7 9 8 9 8 11 8 11 12 10 14 14 13 11 12 13 12 12 16 16 16 16 16 17 17 18 18 17
-1 -0 -0 -0 -1 -1 -1 -1 -1 -1 -1 -1 0 4 6 8 1 1 4 6 7 7 7 11 14 12 8 10 11 12 10 12 14 13 10 12 16 11 12 17 16 16 17 18 18 18 22 22 20 19 20 19 20 20
-1 -1 -0 -0 -0 -1 -1 -1 -1 -1 -1 2 5 6 6 -1 3 5 8 9 9 11 11 9 11 11 9 14 16 11 15 12 16 14 15 19 20 11 18 20 20 19 20 21 22 21 21 22 22 21 22 24 24 25
1 0 -0 -0 -0 -0 -0 -0 -1 1 2 2 3 2 4 6 7 9 12 10 12 13 11 11 10 8 10 8 11 12 13 13 17 17 18 20 17 20 20 21 22 22 23 25 25 24 23 22 23 24 25 26 27 27
1 1 1 1 1 1 1 1 -0 -0 -0 3 5 7 7 8 12 15 16 18 12 11 10 13 10 9 9 9 11 12 15 16 16 16 19 19 21 25 27 26 28 28 28 28 28 27 26 26 27 28 28 29 29 29
2 1 2 2 1 2 2 3 2 0 3 7 10 13 12 14 17 12 15 12 11 11 9 8 11 10 10 12 12 16 16 16 19 20 22 20 23 25 28 29 30 31 31 29 31 30 29 28 28 30 31 32 31 30
2 2 3 3 2 3 4 5 6 11 13 15 14 16 22 24 21 23 24 23 17 9 7 9 11 10 13 13 13 18 19 20 19 20 20 25 26 28 30 32 32 32 32 33 33 33 31 32 33 33 34 35 34 32
3 5 7 3 3 5 6 10 13 15 19 21 25 22 22 20 20 24 24 20 19 9 8 11 12 13 15 14 18 20 21 23 19 23 31 29 28 30 32 34 34 35 35 35 35 34 32 34 33 34 36 36 35 34
5 14 4 3 4 8 9 16 17 21 22 23 26 28 26 25 26 25 25 23 21 17 13 13 15 16 14 18 22 25 21 23 34 35 32 30 30 33 35 36 37 37 37 37 36 36 35 36 37 36 35 34 35 34
13 9 5 4 8 14 20 20 21 22 26 25 25 27 25 27 27 25 25 24 22 17 15 15 14 18 19 20 22 26 33 34 31 31 32 34 35 37 35 35 37 37 37 37 36 37 37 35 35 34 36 35 34 34
8 7 5 6 11 21 22 23 22 27 27 25 24 24 25 26 25 25 25 24 23 22 18 17 18 23 25 29 30 30 29 29 30 31 33 37 34 35 36 38 37 37 36 37 37 36 37 37 35 34 33 32 32 32
7 7 7 9 13 20 24 26 24 25 27 26 25 26 26 26 26 26 26 27 25 25 29 28 31 34 32 32 33 31 32 30 31 34 35 34 35 38 37 36 35 37 37 38 37 34 36 34 34 34 33 32 32 32
13 13 12 17 22 23 25 27 26 26 28 27 26 27 26 25 27 28 29 27 29 35 33 35 35 35 36 36 36 35 33 32 36 35 34 35 36 35 37 38 38 38 37 38 36 37 37 36 35 34 34 33 32 29
18 12 21 18 22 26 26 26 27 26 27 30 28 29 29 28 29 29 28 31 34 36 36 35 35 36 36 37 39 43 43 43 40 34 32 31 34 34 36 37 35 38 39 38 39 37 37 36 34 33 32 31 29 28
17 17 22 24 25 27 31 27 29 29 29 29 28 27 29 30 29 26 34 36 35 35 38 40 41 43 41 42 42 40 42 39 39 40 39 40 41 41 39 40 39 36 37 36 39 38 35 29 29 30 30 29 28 28
21 29 30 32 30 34 34 33 31 32 30 31 29 30 30 30 29 28 35 42 39 38 39 42 44 40 39 39 41 43 42 44 42 41 43 36 37 38 41 40 41 41 37 37 36 36 34 33 29 30 29 30 30 29
26 36 34 39 36 35 37 38 37 33 36 37 32 30 30 32 26 29 35 40 42 43 42 46 44 43 42 45 43 43 43 42 39 39 40 41 42 40 38 39 39 38 39 36 36 36 35 33 31 30 30 30 30 31
39 41 40 47 40 38 41 39 41 41 41 38 39 36 37 31 26 31 38 40 41 40 41 42 41 42 41 43 41 40 39 43 41 38 38 39 37 37 39 38 37 33 35 36 35 34 32 31 30 30 29 29 30 31
40 42 41 42 42 41 41 42 43 40 42 40 42 40 39 34 35 36 41 40 40 41 42 43 42 41 40 40 41 43 44 43 38 37 39 40 36 36 34 35 34 31 32 32 31 31 30 30 29 30 30 30 31 32
42 44 41 44 43 48 46 47 46 44 43 42 42 39 36 35 35 37 36 36 41 43 42 44 43 42 41 41 42 41 40 40 37 36 34 34 35 34 33 32 30 24 29 29 29 29 30 30 30 30 31 31 31 31
42 45 43 44 45 42 45 44 45 45 41 47 41 40 39 39 41 43 39 39 44 41 41 41 40 44 42 42 42 41 40 37 35 35 36 35 33 31 30 30 30 29 29 29 27 27 30 30 30 30 30 31 31 33
42 47 43 47 42 42 42 44 45 47 47 43 43 39 39 40 39 43 42 43 40 40 41 42 44 41 41 40 39 38 41 38 35 35 35 33 32 33 33 31 30 30 30 31 31 31 28 28 30 33 32 34 35 36
46 47 44 45 42 45 46 48 50 48 48 47 49 44 43 42 38 43 39 41 42 46 42 41 42 44 41 39 38 36 33 34 33 32 32 30 29 29 29 29 30 32 32 33 32 33 33 33 35 36 38 38 38 37
45 45 42 39 40 44 48 47 47 45 46 44 42 45 42 40 39 37 37 38 37 37 34 33 33 32 32 30 30 28 27 29 29 28 29 29 29 29 30 31 34 38 38 35 36 37 39 40 40 39 38 38 37 36
46 47 47 43 41 40 44 43 42 41 41 41 41 43 42 40 36 33 33 33 34 33 33 31 30 30 29 28 28 28 26 27 27 24 23 25 27 29 36 39 40 40 39 38 38 38 38 39 38 37 37 36 35 34

GFSWCAN_con_lsi_081.txt.gz
Lid_Strength_Index
2 2 2 1 1 1 1 1 1 1 1 1 1 1 1 0 0 2 3 2 5 10 11 9 8 11 12 12 14 14 11 12 13 14 17 18 22 18 20 17 17 15 15 16 17 18 21 14 13 14 13 12 11 12
2 2 2 2 2 1 1 1 1 1 1 1 1 1 1 1 1 1 5 2 3 8 9 7 7 7 6 7 10 12 12 13 11 14 16 16 20 21 20 22 14 17 14 16 14 14 12 12 11 10 10 11 11 11
2 2 2 2 1 1 1 1 1 1 1 1 0 1 1 1 1 2 4 4 4 8 8 8 9 8 6 7 6 11 13 10 11 10 14 15 18 16 20 20 17 14 13 15 15 13 12 11 11 10 10 10 10 10
1 1 1 1 1 1 1 1 1 1 1 1 1 0 1 1 1 1 4 4 5 8 10 12 8 8 6 6 7 7 8 9 10 12 14 17 19 13 17 15 15 14 13 16 16 13 12 12 11 10 10 11 11 10
0 -0 -1 -1 -0 0 1 1 1 1 0 0 0 0 1 1 1 2 4 3 3 7 11 13 10 9 7 6 7 7 8 10 13 15 18 17 17 15 18 16 17 14 14 14 16 12 12 11 10 10 11 11 11 11
-1 -1 -1 -1 -1 -1 -0 1 1 0 0 0 0 0 1 1 1 4 8 4 3 3 9 14 9 13 10 8 7 8 8 12 13 14 16 16 12 13 20 21 14 13 12 11 12 11 11 11 11 11 11 11 11 11
-1 -1 -1 -1 -1 -1 -1 -1 -0 -0 -0 -0 -0 -0 0 1 3 6 8 8 2 3 9 12 13 10 10 9 8 8 8 10 11 14 15 13 12 14 22 20 14 13 12 12 12 12 13 12 12 12 12 13 14 15
-1 -1 -1 -1 -1 -1 -1 -1 -1 -1 -1 -1 -1 -0 -0 0 1 4 3 2 2 6 8 12 14 14 8 9 10 7 8 9 10 11 14 14 13 17 21 14 14 13 13 12 12 12 12 13 14 15 16 16 18 17
-1 -1 -1 -1 -1 -0 -1 -1 -1 -1 -1 -1 -1 -1 1 4 6 7 1 1 2 6 12 11 15 15 8 9 8 9 8 11 9 12 13 11 15 15 15 13 13 14 13 13 15 17 18 17 16 17 18 19 20 18
-0 -1 -1 -1 -0 -0 -1 -1 -1 -1 -1 -1 1 4 6 9 1 1 4 7 7 7 8 12 19 15 9 10 11 12 10 12 14 12 11 12 16 11 13 15 14 13 13 16 18 19 23 22 18 19 20 20 20 20
0 -0 -1 -1 -1 -0 -0 -0 -1 -1 -1 3 5 6 7 -0 4 5 9 9 9 12 13 13 12 14 10 13 13 11 13 11 15 14 13 15 18 13 14 17 16 15 15 19 18 19 19 19 19 21 23 24 25 26
1 0 0 0 -1 -1 -1 -0 -0 1 4 3 4 3 5 5 7 10 11 11 14 15 17 13 13 11 10 11 11 11 12 12 16 13 15 18 16 16 16 17 20 20 20 23 24 22 22 21 22 23 24 26 27 28
1 1 1 1 0 0 1 0 0 -0 -0 2 4 7 9 9 12 13 16 18 20 19 18 17 14 10 12 8 10 12 15 15 14 15 16 19 19 22 20 23 26 27 26 27 27 26 26 26 27 28 29 29 30 31
2 1 2 2 1 1 3 2 2 0 2 7 8 11 11 13 17 16 16 13 13 11 14 10 12 12 11 11 10 15 16 16 16 18 20 20 18 22 26 27 26 28 27 27 28 29 28 29 29 31 32 33 33 33
3 2 3 4 2 2 4 5 5 5 9 11 12 13 16 21 28 30 29 23 20 20 9 9 14 12 14 12 12 16 19 18 17 20 19 15 25 26 28 30 30 30 30 31 32 32 31 32 33 34 36 37 37 35
3 5 8 3 3 4 6 10 13 14 18 19 22 20 25 26 29 30 29 26 21 19 10 8 10 12 13 12 15 16 17 19 18 20 28 30 28 28 30 30 31 32 33 34 35 34 32 33 33 35 38 38 38 37
4 15 5 4 4 8 9 14 16 20 21 22 32 32 31 28 28 28 27 25 20 18 10 10 13 13 11 14 15 16 18 21 35 36 31 30 28 30 31 32 33 34 34 35 38 37 36 38 38 37 34 36 38 37
13 9 5 5 7 14 21 19 19 21 26 25 30 31 30 29 28 26 26 23 22 17 13 12 11 14 15 17 20 23 34 35 32 32 32 32 33 34 32 34 35 35 36 38 37 38 38 36 35 36 38 38 37 37
8 6 6 6 10 22 22 23 22 25 29 31 27 24 25 27 24 23 24 23 22 21 21 14 15 16 19 28 33 33 31 29 29 30 32 33 33 34 36 35 35 36 36 39 38 37 38 38 36 36 36 36 34 35
8 8 7 9 13 21 25 26 24 24 26 25 25 25 24 24 24 25 25 26 23 23 28 27 31 35 33 32 32 29 28 27 29 31 31 32 33 34 34 33 34 37 37 39 38 36 37 36 36 36 37 36 35 34
14 14 13 18 23 24 27 27 27 27 27 26 25 24 24 23 25 27 28 26 29 34 32 33 33 33 33 33 33 31 31 28 29 28 29 32 33 33 37 40 37 39 37 39 37 38 38 37 37 37 37 36 37 35
19 13 22 19 22 26 27 27 27 26 27 28 26 25 28 27 28 28 27 31 35 35 34 33 34 34 33 34 35 37 37 35 35 33 31 32 34 35 37 39 36 39 40 39 39 38 39 39 38 37 36 36 32 32
17 18 23 24 25 27 31 28 30 31 29 30 30 30 29 29 28 26 34 35 34 34 35 35 36 38 37 37 36 35 37 35 35 36 38 37 41 40 36 40 40 37 39 39 41 40 37 32 31 33 32 31 31 31
21 30 31 32 31 34 34 33 31 32 33 33 32 33 33 34 30 29 34 35 35 34 34 36 38 37 38 38 38 39 39 41 40 41 43 36 37 40 44 43 44 42 39 38 37 38 36 35 30 31 32 33 33 32
26 36 34 37 36 35 37 37 36 33 37 41 36 35 35 36 28 31 33 36 36 36 36 40 41 40 40 44 42 44 45 43 39 39 42 44 44 42 40 41 41 40 40 36 38 38 37 36 34 33 32 33 33 32
38 42 39 46 39 38 41 39 40 41 42 38 41 41 42 33 28 33 36 38 41 41 41 41 41 42 41 44 42 40 40 46 43 38 39 42 40 38 40 38 37 34 36 38 37 37 35 33 33 32 32 31 29 29
39 42 41 43 42 42 41 43 43 41 41 40 43 40 37 31 30 31 35 34 33 34 36 36 36 40 40 41 43 44 46 47 40 38 40 42 39 39 36 36 36 33 35 34 34 32 30 29 29 29 29 29 29 29
42 45 40 43 43 48 46 46 45 43 43 42 44 38 34 33 32 36 33 32 37 40 43 46 46 44 43 43 43 43 42 43 41 40 39 38 39 38 37 36 33 24 31 30 29 28 29 29 29 29 29 29 29 28
43 46 44 43 45 42 45 43 44 44 41 46 41 39 39 39 41 41 36 35 42 41 42 42 41 47 44 44 44 44 43 40 36 37 37 37 36 32 34 34 33 32 32 31 26 26 29 29 29 29 28 29 28 29
43 48 43 47 42 42 42 44 46 48 49 44 45 40 40 40 40 45 45 45 41 41 43 44 46 42 41 41 40 39 42 39 35 34 36 36 34 35 36 34 33 33 32 33 31 30 28 29 29 32 30 30 31 31
48 49 44 45 42 45 47 50 52 51 50 49 51 45 43 43 39 44 41 42 44 47 43 42 44 46 42 42 41 40 35 38 36 35 36 38 36 36 34 31 31 32 34 34 34 35 33 33 34 34 34 34 34 35
45 47 42 39 40 45 50 49 49 46 48 45 44 49 43 42 39 36 38 41 42 42 37 38 38 34 34 34 35 35 30 34 33 31 32 30 28 28 28 29 30 30 32 32 34 36 38 37 38 38 37 38 37 37
48 49 49 44 41 40 45 45 43 42 44 44 44 47 47 43 37 34 34 34 33 32 33 33 32 32 31 31 31 30 27 28 27 23 22 23 25 27 32 35 38 38 38 38 37 38 38 39 38 37 37 37 36 35

GFSWCAN_con_lsi_084.txt.gz
Lid_Strength_Index
2 2 2 2 2 2 2 1 1 2 1 1 1 1 1 1 0 1 3 2 5 9 9 9 9 11 12 12 15 15 12 11 14 16 18 21 23 19 20 18 17 16 17 18 21 23 21 16 17 17 15 15 14 14
2 2 2 2 2 2 2 1 2 1 1 1 1 1 1 1 1 0 4 2 3 8 8 7 8 7 7 8 9 12 13 14 11 14 17 18 23 23 22 23 15 16 15 17 16 17 15 15 14 13 13 14 13 13
2 2 2 2 2 2 2 2 1 1 1 1 1 1 1 1 1 1 4 2 4 8 8 8 9 7 7 7 6 11 13 10 11 11 15 18 19 17 21 21 19 15 14 14 14 15 14 13 12 11 11 12 11 11
2 2 2 2 2 2 1 1 1 1 1 1 1 1 1 0 0 1 5 3 5 7 10 12 8 9 7 6 7 7 8 9 10 10 13 18 19 14 18 16 16 15 13 17 17 15 13 13 12 11 11 12 11 11
2 2 1 2 2 2 2 1 1 1 1 1 1 1 1 -0 -0 1 4 3 4 7 11 12 11 8 8 7 7 8 8 10 13 14 14 13 15 15 18 16 19 14 14 14 16 12 12 11 11 11 11 12 12 12
2 1 1 0 0 -0 0 1 1 1 1 1 1 0 0 0 -0 3 7 4 3 3 9 13 9 12 11 8 8 8 9 11 12 13 16 15 12 13 18 20 13 13 12 11 12 11 11 11 10 11 11 12 11 12
1 0 -0 -1 -2 -1 -1 -1 -1 0 1 1 0 -0 -0 -1 1 6 9 7 1 3 8 12 15 11 9 10 9 9 8 10 11 14 15 13 13 14 20 19 13 12 12 11 11 12 13 12 12 11 11 12 14 15
0 -1 -1 -2 -1 -1 -1 -1 -1 -1 -0 0 -0 -1 -1 -1 -0 3 4 2 1 5 7 12 13 11 9 10 10 9 10 10 10 10 15 13 13 14 17 13 13 13 12 12 12 12 12 13 13 15 15 16 18 18
0 -0 -1 -1 -1 -1 -1 -1 -1 -1 -1 -1 -1 -1 0 2 5 6 -0 -0 1 7 11 11 17 18 11 10 9 9 9 11 9 11 13 12 15 15 13 14 14 14 13 13 16 17 17 16 15 17 18 20 19 19
-0 0 -1 -1 -1 -1 -1 -0 -1 -1 -1 -1 1 4 7 5 -1 -0 3 5 6 6 8 14 21 16 10 13 15 12 11 11 14 12 11 13 12 11 12 15 13 14 13 15 18 20 23 21 18 19 19 20 20 20
1 -0 -0 -1 -1 -1 -1 -1 -1 -1 -1 3 6 7 4 -0 4 7 8 9 9 11 9 12 14 15 10 14 11 11 15 13 15 13 12 14 13 12 11 16 15 14 14 14 13 13 14 15 17 19 23 24 24 25
1 1 0 -0 -0 -0 0 -1 -1 1 3 4 4 4 4 7 7 10 11 11 12 12 16 14 14 12 9 11 14 11 13 12 16 12 14 18 16 13 15 15 17 16 15 20 22 19 21 20 21 21 23 25 27 28
2 1 1 1 1 -0 1 1 0 0 1 3 6 9 9 10 12 13 17 17 14 21 18 16 16 13 9 8 10 12 13 14 13 14 15 16 14 21 15 21 24 25 23 24 25 24 24 26 26 27 27 29 30 31
2 2 2 2 2 1 1 3 2 2 4 7 8 12 13 14 17 16 14 14 15 15 17 16 18 13 12 10 10 13 15 17 16 16 15 18 19 17 16 23 23 24 23 24 25 26 26 27 28 30 30 31 32 33
3 3 3 4 2 2 3 4 5 11 9 9 12 15 15 18 28 31 32 23 22 21 12 15 17 11 13 13 11 14 17 18 17 19 17 16 17 21 24 25 24 24 25 27 29 28 29 29 30 33 37 37 36 36
3 4 7 4 3 4 6 9 11 13 18 20 22 19 24 21 29 30 32 27 22 15 11 12 17 17 18 13 14 15 17 17 17 20 26 29 31 32 31 29 29 28 29 31 31 30 31 32 32 32 39 40 39 37
5 13 5 4 4 8 9 13 15 19 19 27 31 33 32 32 30 32 30 25 20 19 12 11 16 14 14 18 18 15 15 17 25 34 34 34 33 34 32 31 31 30 31 33 35 33 35 37 36 36 34 37 40 39
14 10 5 4 8 14 21 19 17 20 24 25 29 32 31 31 30 30 27 24 22 18 16 14 11 14 17 17 20 18 32 36 35 34 33 34 36 35 31 32 31 31 33 34 33 36 37 35 33 34 36 40 39 39
8 7 6 6 11 22 21 23 22 24 25 25 26 25 27 28 25 24 26 25 22 20 21 15 13 15 18 30 34 36 36 35 33 30 32 34 32 32 31 31 32 34 34 36 35 33 36 37 35 35 35 36 35 38
8 8 8 10 14 21 24 26 24 23 24 25 24 24 24 25 26 27 25 24 22 23 23 24 30 34 34 33 33 30 27 29 29 30 30 30 30 30 31 31 31 35 36 37 37 36 36 37 38 39 39 37 35 36
14 14 13 19 23 24 26 28 27 30 25 25 25 24 25 23 27 28 27 25 29 33 31 32 32 33 31 32 31 31 28 26 27 27 28 30 30 30 31 33 34 34 37 35 33 39 38 37 38 40 38 38 40 38
19 13 22 19 22 26 27 28 27 27 28 26 24 24 28 27 27 28 27 31 35 35 36 34 33 34 31 32 34 34 33 30 29 28 29 30 31 31 32 33 32 34 36 39 38 37 40 40 40 40 38 38 36 36
18 18 23 25 25 27 31 28 30 31 29 29 29 26 28 28 27 25 33 33 35 34 35 35 35 35 34 33 33 32 34 30 31 31 32 33 35 35 34 35 37 37 39 39 43 40 38 35 34 35 36 35 35 35
22 30 31 32 30 35 35 33 32 31 32 33 32 31 29 31 30 26 32 33 33 32 33 34 35 31 32 32 33 34 35 34 34 35 36 32 33 37 39 39 42 43 41 39 40 40 38 37 33 35 35 36 37 36
25 35 34 37 36 34 36 37 37 33 36 39 34 32 35 36 27 29 29 31 32 32 33 35 34 35 33 34 35 37 40 40 37 34 38 42 43 43 40 42 42 42 43 37 40 40 40 39 37 36 36 37 37 37
38 42 39 46 39 36 41 38 41 42 44 39 41 41 44 36 29 32 30 31 32 32 32 32 32 32 33 37 36 35 37 47 45 39 40 44 41 39 41 38 37 35 39 40 38 39 39 37 38 37 37 36 33 34
37 40 41 43 43 43 42 44 44 41 42 41 44 41 39 34 36 35 34 32 31 31 32 33 33 33 33 35 39 43 47 49 42 40 42 44 42 41 38 37 37 34 38 38 38 37 36 36 36 36 35 35 35 35
42 44 39 42 44 48 45 46 44 43 43 42 44 38 36 35 34 37 36 35 37 38 36 39 38 40 43 42 44 44 43 45 43 42 42 40 42 41 40 40 37 26 35 35 34 35 36 34 33 33 31 30 31 31
43 46 45 41 43 41 44 43 43 44 41 46 41 39 39 39 41 43 40 41 47 44 42 42 39 46 44 45 46 47 46 42 37 37 38 37 38 33 38 38 37 35 35 34 27 28 32 31 32 31 30 29 30 32
42 50 43 45 40 40 41 44 45 48 49 45 46 40 40 41 41 46 46 46 41 41 43 45 47 44 41 42 40 39 41 40 37 36 36 36 35 36 39 37 36 36 35 37 33 33 27 30 31 33 35 35 36 36
48 49 44 44 41 45 48 53 54 53 52 51 54 46 43 44 39 45 43 44 45 49 44 42 44 48 44 43 43 41 35 38 38 36 37 39 39 39 38 36 35 36 36 33 32 33 32 36 38 39 39 37 37 35
46 47 42 38 39 46 50 50 51 48 49 46 44 51 43 42 39 36 39 43 44 43 38 41 43 36 38 35 38 37 33 36 38 34 34 33 34 33 32 30 30 30 31 31 31 32 34 37 38 39 38 38 37 37
48 50 49 44 40 40 45 45 43 41 44 44 43 48 49 43 36 34 36 38 37 37 35 34 32 33 33 32 32 32 30 31 30 24 22 23 24 25 29 30 32 33 34 36 37 38 39 40 38 38 38 37 36 35

GFSWCAN_con_lsi_087.txt.gz
Lid_Strength_Index
2 2 2 2 2 2 2 2 2 2 2 2 2 2 1 1 0 1 3 3 5 9 10 9 9 10 11 12 15 16 14 15 16 16 18 19 24 20 20 17 16 17 17 18 21 20 21 17 17 18 16 16 16 16
2 2 2 2 2 2 2 2 2 2 1 2 2 1 1 1 1 1 4 2 2 7 8 7 8 8 8 8 10 12 13 14 12 15 19 21 23 24 24 21 17 16 16 18 17 17 16 16 16 14 14 14 15 15
3 3 3 3 3 2 2 2 2 2 2 1 1 1 1 1 1 2 4 3 4 8 9 8 9 6 7 7 6 11 13 11 11 11 16 18 20 19 23 23 21 17 16 16 15 17 16 15 15 14 13 13 14 14
3 3 3 3 3 3 2 2 2 2 2 1 1 1 1 1 1 1 4 3 4 7 13 13 8 8 7 6 7 7 9 9 10 12 15 18 20 15 19 17 17 16 15 18 18 16 14 14 14 14 14 14 14 14
3 3 3 3 3 2 2 2 2 2 2 1 1 1 1 1 1 1 2 3 3 8 12 15 11 9 8 7 7 8 8 10 14 14 17 16 16 17 21 18 21 16 17 16 16 13 12 11 11 11 13 13 13 13
3 3 2 2 2 2 2 2 1 1 1 1 1 1 1 1 0 3 8 4 3 5 10 16 10 12 10 8 8 8 8 11 12 14 16 14 11 13 20 22 15 14 14 12 13 11 11 11 10 11 12 12 12 12
3 3 2 2 2 2 1 1 1 1 1 1 1 1 0 0 2 6 8 6 2 5 9 13 17 12 9 9 9 9 8 9 10 14 16 13 13 11 15 22 14 13 12 12 11 11 13 12 11 11 11 12 14 16
2 2 2 2 1 1 -0 -1 -1 -1 -1 -0 0 0 0 -0 -0 3 3 1 1 6 10 12 13 12 9 11 11 8 9 10 9 10 15 14 13 15 17 13 12 12 12 12 12 12 11 12 13 13 15 16 17 17
2 1 1 1 -0 -1 -1 -1 -1 -1 -1 -1 -1 -1 2 2 4 4 -0 -1 2 7 11 11 15 15 11 11 9 8 9 11 8 10 13 11 13 14 13 12 13 14 13 12 15 16 16 14 13 15 16 18 17 18
2 1 1 0 -1 -1 -1 -1 -1 -1 -1 -1 1 4 6 4 -0 -0 3 5 6 6 9 12 21 16 9 12 10 12 11 10 13 11 11 11 12 10 11 14 12 13 12 14 17 18 20 19 16 17 17 17 17 18
2 2 1 0 -0 -1 -1 -0 -0 -1 -0 3 5 6 4 -1 4 7 9 10 9 10 9 16 16 17 11 11 11 10 14 13 14 14 12 13 14 11 10 15 14 12 13 13 10 10 12 12 14 17 21 20 21 23
2 2 1 0 0 0 -0 0 -0 1 2 3 3 3 4 7 8 11 12 11 13 16 16 14 12 13 13 13 13 10 12 13 14 11 13 18 13 12 13 13 14 14 14 13 14 13 15 17 16 16 20 23 25 27
2 2 2 1 1 1 0 1 1 0 0 3 6 8 10 11 13 14 16 16 18 20 15 14 16 11 9 11 13 13 14 14 13 13 17 16 16 14 13 16 16 16 14 17 22 22 22 24 25 23 25 27 28 29
2 2 2 2 2 1 1 2 2 3 4 9 12 14 15 16 19 16 17 17 15 15 16 16 13 12 12 12 11 13 13 17 17 17 17 18 16 13 19 19 19 19 18 17 20 23 24 25 27 27 27 28 29 30
3 3 3 4 3 2 3 4 5 10 10 11 13 17 20 21 28 32 34 24 22 23 13 16 14 11 12 17 13 14 16 18 16 15 16 18 26 27 24 25 21 22 22 24 25 25 26 28 28 32 33 32 31 32
3 5 7 4 3 4 5 10 13 13 18 18 21 21 26 23 28 29 31 24 23 18 15 14 16 16 17 17 18 19 18 19 18 19 23 30 30 32 32 31 30 28 28 28 27 27 28 28 29 32 37 35 35 33
5 13 6 4 5 7 8 15 17 19 24 26 30 36 31 30 27 30 29 24 20 17 17 17 17 16 15 18 21 16 16 17 16 25 29 33 34 32 35 35 34 31 28 28 28 28 31 32 32 32 32 38 37 39
15 10 5 4 11 14 20 20 19 21 27 27 30 30 32 31 31 29 29 24 20 20 17 14 14 17 20 21 21 17 18 35 37 36 33 31 32 35 35 35 34 32 31 29 29 33 33 31 30 31 33 37 38 41
10 7 6 7 12 21 21 23 22 24 30 30 28 25 28 29 26 26 27 25 23 20 19 17 15 17 17 29 34 37 38 36 34 31 32 34 31 34 34 34 33 31 31 31 30 30 31 33 34 33 33 35 34 38
8 8 8 10 14 20 23 24 23 21 25 26 27 27 25 24 25 26 26 24 21 21 19 20 29 36 35 34 34 33 29 28 30 30 28 31 31 31 31 33 31 31 32 32 33 34 35 34 37 37 36 36 34 36
14 13 12 19 22 24 27 27 26 27 24 24 24 23 23 22 25 27 28 25 26 31 29 33 34 31 30 31 31 32 30 29 27 28 29 30 28 31 32 29 30 33 30 30 30 32 32 32 36 40 38 39 40 39
19 13 22 19 21 25 26 27 27 25 26 27 25 25 25 25 26 27 26 30 33 34 34 34 33 34 32 32 33 33 32 31 29 27 28 27 29 29 28 32 28 29 29 30 30 31 34 36 38 38 34 36 38 38
18 18 23 25 24 26 30 27 28 30 25 27 25 23 26 27 27 25 31 33 33 33 34 34 34 34 34 32 31 31 32 30 30 30 29 30 30 29 29 30 28 29 30 32 33 31 32 33 33 34 37 37 37 37
22 31 31 32 29 33 34 31 29 30 29 30 27 26 28 30 30 26 31 34 34 32 32 33 33 31 31 30 32 33 35 34 31 32 33 29 30 32 31 32 32 32 32 32 33 33 34 37 34 36 37 39 40 38
26 36 34 37 34 33 34 34 34 32 36 39 34 32 33 36 26 28 30 31 31 32 32 32 32 32 31 31 31 32 35 35 31 30 33 33 34 33 33 34 34 34 37 35 36 38 41 41 39 38 38 39 38 38
38 42 39 46 38 34 38 36 40 40 43 38 40 41 44 37 32 33 30 31 31 31 31 32 32 31 32 34 34 34 34 38 37 32 33 36 35 36 37 36 36 35 40 41 39 40 41 39 40 39 38 38 35 38
36 40 42 43 43 41 39 41 42 40 43 41 44 41 38 33 35 35 33 30 30 31 31 32 33 33 32 34 36 37 40 43 41 38 41 43 41 41 38 37 37 35 40 40 40 39 37 37 38 37 37 38 38 36
42 44 39 42 43 48 45 46 44 43 44 43 46 39 36 35 33 35 35 35 39 35 33 35 38 39 40 39 40 39 38 39 37 39 42 42 44 42 42 42 39 27 37 37 36 37 38 36 36 36 37 34 34 36
42 47 45 41 43 41 44 43 43 44 41 47 41 39 38 39 41 43 40 42 48 43 42 43 41 46 43 42 43 43 44 40 36 37 38 38 37 34 40 40 39 37 37 36 28 29 33 33 33 34 33 34 33 35
42 49 42 45 39 39 41 44 45 48 50 46 47 41 40 40 41 46 46 46 42 41 44 46 49 45 43 42 41 38 44 43 39 37 37 37 36 37 40 39 38 38 37 39 34 34 28 30 31 33 35 36 37 37
48 50 44 44 40 44 48 54 56 54 53 52 56 47 44 44 40 44 45 46 48 49 43 41 42 49 44 43 43 40 34 39 41 39 39 39 38 39 38 37 36 39 39 38 37 37 36 36 37 37 37 37 37 36
46 48 41 37 39 46 52 51 51 48 50 47 45 53 44 43 39 36 39 45 44 43 38 42 43 37 39 39 41 41 34 37 38 35 36 34 35 34 34 34 35 37 36 33 34 33 33 34 35 36 36 37 37 37
49 51 50 44 39 39 44 45 42 40 43 43 42 47 48 43 35 33 36 38 34 34 34 35 35 36 36 36 35 35 32 33 31 26 24 25 27 27 30 31 32 33 34 34 34 34 35 37 37 37 37 37 36 35

GFSWCAN_con_lsi_093.txt.gz
Lid_Strength_Index
2 1 2 2 2 2 2 3 2 2 2 2 2 2 1 1 0 1 2 1 4 7 7 8 9 10 12 10 13 12 11 12 13 14 14 14 14 14 14 13 14 15 15 16 15 17 18 14 14 13 11 13 12 10
1 1 2 2 2 2 2 2 3 3 3 2 2 2 2 1 1 0 4 1 1 6 7 5 6 6 7 9 10 12 12 12 9 11 12 13 15 15 13 16 13 14 12 13 13 13 12 12 12 11 11 11 12 10
1 1 2 2 2 2 2 2 3 3 3 3 3 2 2 2 1 2 3 2 5 8 7 7 7 5 4 6 6 10 11 11 10 11 11 12 14 12 15 15 13 13 13 12 12 11 12 12 12 12 11 11 11 11
2 2 2 2 2 2 2 3 3 3 3 3 3 3 3 2 2 2 4 3 4 7 9 8 5 6 4 4 5 6 8 9 10 10 12 13 13 13 13 13 13 12 12 13 13 14 13 12 11 11 11 12 12 12
2 2 2 3 3 3 3 3 3 3 3 3 2 3 2 2 2 2 2 3 2 5 9 9 7 6 5 5 5 6 6 7 8 9 11 12 13 14 15 15 14 13 12 13 12 11 10 11 11 11 11 12 12 12
2 2 2 2 3 3 3 3 3 3 3 3 3 2 2 2 1 3 7 4 2 2 8 11 7 8 6 6 6 6 6 6 6 7 8 9 11 12 14 15 12 12 12 11 11 10 11 12 9 10 11 11 12 12
2 3 3 3 3 3 4 4 4 3 3 2 2 2 2 2 1 5 6 4 1 2 8 10 10 8 7 6 6 6 5 6 7 7 9 9 10 9 12 14 11 11 11 11 11 12 13 12 11 11 11 11 13 14
4 3 3 3 3 3 4 4 3 3 3 2 2 2 1 1 1 4 2 2 1 5 6 10 11 11 7 9 9 6 8 7 7 8 8 9 10 9 12 12 10 10 10 11 11 11 12 11 11 12 12 13 14 14
4 4 3 3 3 3 4 4 3 3 2 2 1 1 1 3 6 4 1 0 0 5 8 9 12 13 8 8 8 8 7 10 7 9 9 8 10 12 10 10 9 9 10 9 10 12 13 13 11 12 12 12 12 13
4 4 4 4 4 3 4 4 3 3 2 2 3 5 7 5 1 0 3 5 6 5 6 9 7 11 8 9 10 9 8 10 12 9 8 10 11 8 8 8 9 8 9 10 13 14 14 13 12 12 12 11 10 11
4 5 5 4 4 3 3 3 3 2 3 3 6 6 2 -1 2 5 8 8 8 9 7 8 8 11 7 10 10 8 10 9 13 10 11 11 12 9 7 8 8 9 8 9 8 7 8 8 9 10 11 11 11 12
4 3 3 4 4 3 3 3 2 3 4 4 4 4 3 4 7 9 10 8 9 11 10 10 10 6 8 6 8 9 11 10 14 8 11 13 10 9 8 8 8 9 9 9 8 8 8 9 8 9 10 10 12 12
3 3 3 3 3 3 3 3 2 1 2 4 5 6 7 7 11 12 14 13 13 10 10 9 10 8 8 7 8 9 12 12 9 12 13 11 10 14 16 16 14 12 10 9 9 9 8 9 11 10 10 12 12 16
3 3 3 3 4 4 3 3 2 4 6 7 8 12 10 12 10 10 9 9 7 8 9 7 9 8 7 9 9 11 10 10 13 15 14 9 13 18 19 19 19 18 17 15 12 11 11 14 15 18 16 15 16 18
3 3 3 4 4 4 3 3 5 7 9 9 9 12 12 12 14 16 17 12 13 7 8 9 9 8 9 10 9 11 14 14 13 14 10 8 16 19 18 20 21 21 22 20 17 17 19 20 19 19 23 20 19 22
3 4 5 4 3 3 4 7 9 9 15 14 17 14 17 13 15 15 15 14 16 8 8 8 11 12 12 11 13 13 14 14 11 9 8 14 19 21 22 24 24 24 24 23 20 20 19 21 20 19 24 24 24 23
4 7 5 4 5 6 6 10 11 17 18 16 21 23 22 19 20 20 22 17 17 11 10 11 13 13 12 13 14 11 12 9 9 15 20 24 25 25 27 26 25 25 25 24 23 23 24 26 26 25 25 26 25 25
8 6 4 4 7 10 13 14 15 17 21 21 20 23 22 23 21 21 20 19 16 12 10 11 10 13 13 15 13 10 17 21 21 22 23 25 26 26 26 26 26 25 25 25 26 26 26 26 24 23 26 27 27 27
7 6 6 7 9 12 14 17 17 20 23 22 21 21 21 22 21 21 20 18 17 16 12 10 11 11 12 23 22 21 23 25 24 23 23 25 26 28 28 26 26 25 25 25 24 23 23 24 21 23 25 25 25 25
6 7 8 9 10 13 17 19 17 19 21 21 20 21 20 21 21 21 20 20 17 15 15 17 22 26 26 26 26 27 27 26 26 24 20 21 23 25 25 26 24 25 24 25 25 25 25 25 25 25 24 23 25 25
11 11 11 13 17 19 22 23 22 21 20 21 20 19 21 20 22 23 23 21 21 27 24 28 27 27 27 27 26 27 27 27 26 25 24 25 22 23 24 24 24 23 23 23 24 25 23 24 25 25 24 24 24 25
14 13 16 15 18 21 23 24 23 22 20 22 21 21 23 23 24 25 23 23 27 29 29 29 29 29 29 28 28 28 28 29 28 27 25 24 24 23 24 24 23 24 24 23 23 24 26 26 25 25 26 26 25 26
16 16 19 20 20 21 26 22 23 24 21 23 21 22 24 24 25 24 27 28 28 28 29 30 30 30 30 28 28 29 29 30 27 27 27 26 25 25 25 25 24 24 24 26 24 25 26 26 25 26 26 26 26 26
21 28 27 27 26 27 26 26 24 25 25 25 23 25 26 27 28 23 26 28 28 28 29 30 30 28 27 28 28 29 30 30 28 27 28 27 26 27 27 27 26 26 26 26 25 26 25 26 26 26 26 26 26 26
23 33 31 33 29 28 28 27 28 25 28 31 26 27 30 33 24 26 27 28 28 29 28 28 28 28 29 27 27 28 30 31 30 28 29 28 27 26 26 26 27 28 28 26 26 26 27 27 27 27 27 26 27 28
35 38 34 36 33 31 33 29 32 34 32 29 32 32 34 29 25 27 27 28 28 29 29 29 30 29 27 29 29 28 30 31 32 28 29 31 30 29 27 26 25 27 29 29 26 26 28 28 28 29 29 29 30 30
32 35 36 37 36 35 33 33 34 31 32 32 34 34 29 28 28 27 27 27 27 28 28 29 30 30 30 29 29 30 30 31 32 31 31 32 31 32 31 29 28 29 30 30 29 29 29 29 29 29 29 29 30 31
37 38 35 35 35 37 35 34 33 34 34 35 38 31 30 29 28 27 27 28 30 30 29 29 30 31 31 31 31 33 32 32 32 32 32 32 32 32 33 32 32 27 30 31 30 31 31 30 30 30 31 31 30 30
35 39 40 37 36 33 36 34 34 35 36 36 33 30 30 29 29 29 28 32 34 32 30 28 28 32 31 31 33 33 34 33 31 32 32 29 29 29 31 32 32 30 30 31 28 28 31 30 31 30 30 30 29 30
36 42 34 35 34 31 33 37 36 39 41 40 41 37 34 33 32 34 35 34 33 31 31 34 35 34 32 33 31 30 32 33 33 31 30 30 30 30 31 31 30 30 31 32 30 29 26 26 27 29 30 31 30 30
41 40 35 33 33 34 38 43 46 46 44 42 45 41 36 36 35 33 35 34 35 36 34 32 32 33 35 33 33 33 29 32 35 34 34 33 32 32 31 30 30 31 32 32 31 32 30 30 31 31 31 31 31 31
37 39 36 33 33 39 42 40 39 38 38 38 36 43 38 35 32 28 33 37 36 35 33 34 34 31 33 32 32 32 32 31 32 31 33 31 31 31 30 30 31 32 33 32 31 31 31 32 32 31 31 32 32 33
40 41 40 37 35 34 37 39 35 34 37 37 36 38 38 37 32 28 33 35 31 31 31 31 31 31 32 32 31 31 30 31 31 27 25 25 25 25 26 28 28 30 31 31 30 30 31 32 32 32 33 33 32 32

GFSWCAN_con_lsi_096.txt.gz
Lid_Strength_Index
1 1 1 2 2 2 2 2 2 1 1 1 2 2 2 2 1 2 3 2 6 9 9 10 10 12 12 12 14 13 13 13 13 14 14 15 15 15 16 15 15 15 15 16 15 17 18 15 15 14 13 15 15 13
1 1 1 1 2 1 1 2 2 2 2 2 2 2 2 1 1 1 4 2 2 7 8 6 8 8 9 10 11 12 13 13 12 13 13 14 16 15 15 17 14 15 13 14 13 15 14 14 15 13 12 13 15 14
1 1 1 1 1 1 1 2 2 2 2 2 2 2 2 1 1 1 4 3 5 8 8 8 8 7 6 8 8 12 12 11 12 12 12 13 15 14 17 17 16 14 13 13 14 14 14 14 14 14 13 13 13 13
1 1 1 1 1 1 1 2 2 2 3 3 3 3 3 2 2 1 4 3 4 7 10 10 6 7 6 6 8 9 10 10 10 11 13 14 16 14 16 16 15 14 14 16 16 14 14 13 13 12 13 14 13 13
1 1 1 1 1 2 2 2 2 2 3 3 3 3 3 3 2 2 2 3 2 6 10 11 9 8 6 6 7 7 9 11 12 13 13 15 14 15 16 16 17 15 14 14 15 12 12 12 12 12 13 14 14 14
1 1 1 1 1 2 2 2 2 3 3 3 3 3 3 3 3 4 8 4 3 3 9 12 9 10 9 7 7 7 7 9 11 13 14 13 13 14 17 19 14 13 13 12 13 12 12 13 12 12 13 13 13 14
1 2 2 2 2 2 3 3 3 3 3 3 3 3 3 3 4 7 8 6 2 3 9 12 12 10 9 9 9 9 8 9 10 10 12 13 13 13 17 21 14 14 13 13 13 13 14 13 13 12 12 13 15 16
2 2 2 2 3 3 3 3 3 3 3 3 3 2 2 2 3 7 4 3 2 6 7 11 14 14 9 11 11 9 10 9 11 11 12 12 12 12 17 15 14 14 14 13 12 12 12 13 13 14 15 15 16 16
4 4 3 3 3 3 3 3 3 3 3 3 3 2 4 6 7 8 1 1 2 6 9 10 17 19 11 11 11 9 8 12 11 14 12 11 14 14 14 13 12 12 13 12 12 14 15 16 15 16 17 18 17 16
3 3 3 3 3 3 3 4 4 4 3 3 5 9 12 8 1 2 6 7 7 6 7 10 13 15 10 13 13 13 13 16 14 12 10 13 13 10 10 11 12 11 10 12 15 15 17 16 14 14 14 14 13 14
3 3 3 4 4 4 4 4 4 4 4 8 11 13 7 1 5 7 9 11 9 11 11 11 11 14 11 14 14 11 15 16 19 17 14 17 20 11 9 10 10 10 10 11 9 9 11 11 11 12 13 13 14 15
3 3 4 4 4 4 4 4 4 6 9 8 7 5 6 6 8 11 13 11 14 16 13 14 13 11 13 11 15 14 14 16 17 15 17 19 14 13 15 15 15 14 13 13 13 10 11 11 11 11 11 12 13 12
3 3 3 3 3 3 4 3 3 4 5 7 8 9 8 10 12 13 19 20 19 15 16 15 16 11 11 10 13 10 13 14 13 15 18 16 15 19 22 22 21 20 19 17 16 16 16 16 17 16 15 17 15 14
3 2 2 2 3 3 4 3 3 6 9 9 11 12 11 12 15 13 16 15 13 13 12 13 15 12 12 13 12 14 12 12 15 16 19 17 18 22 23 24 24 24 24 23 22 21 20 20 18 21 21 20 16 16
4 3 2 3 3 4 4 4 5 10 10 11 9 12 11 12 19 22 21 15 16 12 8 9 10 8 10 11 10 16 18 17 17 19 18 18 24 24 25 25 25 25 26 26 25 25 23 23 24 23 26 24 23 23
2 3 5 3 3 4 4 7 11 12 14 14 16 15 18 15 21 20 19 20 18 12 10 9 11 12 12 12 14 16 17 19 17 19 22 24 27 28 29 29 29 29 29 27 25 26 25 26 28 28 30 29 29 28
3 8 4 3 4 6 6 13 12 16 16 16 22 21 22 22 24 24 24 23 17 13 14 13 13 14 12 14 17 18 19 20 24 27 27 30 30 30 32 32 31 30 28 28 28 29 30 30 30 30 30 31 31 30
7 6 4 4 8 10 15 13 14 15 20 21 22 24 25 24 23 24 22 19 16 13 14 14 13 17 18 20 20 23 26 27 29 29 28 30 32 32 32 32 32 32 32 31 31 31 32 31 30 30 32 33 31 29
6 7 6 6 9 13 15 16 16 20 23 22 21 21 23 24 21 20 20 19 19 19 19 16 19 22 24 29 33 32 34 33 33 28 27 31 31 33 32 31 30 31 32 33 32 31 30 29 27 29 31 29 29 28
6 6 7 8 9 13 16 18 15 19 22 22 21 24 21 22 21 22 21 21 19 21 26 29 33 33 32 32 31 32 31 29 31 31 28 27 28 30 30 31 29 29 28 29 30 26 28 28 26 26 26 25 26 27
11 11 10 13 15 19 22 22 21 21 20 22 21 22 24 24 27 27 27 23 27 32 32 32 33 33 34 34 31 32 31 30 32 32 31 28 27 26 27 29 30 30 29 28 28 28 27 30 27 25 24 24 24 25
15 11 16 14 16 19 22 23 22 22 23 23 22 21 24 25 26 27 25 27 31 33 35 35 36 36 36 35 35 34 34 36 35 31 28 27 28 28 29 29 28 27 30 29 27 27 28 27 26 26 25 25 24 24
15 15 18 19 18 20 24 21 23 25 24 24 23 24 25 27 27 25 29 31 31 33 35 36 36 37 37 34 34 33 33 34 32 32 32 30 29 30 30 30 29 28 28 28 26 26 28 25 24 25 25 25 25 25
20 27 26 26 25 27 25 25 23 24 24 26 26 29 31 33 30 24 30 33 33 31 34 34 34 32 32 32 30 28 30 30 30 28 30 30 28 30 31 30 29 28 28 26 26 25 25 25 24 25 24 24 25 25
23 32 31 32 29 30 29 29 29 27 30 31 29 31 31 32 24 26 27 28 27 28 28 28 29 28 29 28 27 30 32 32 32 31 28 30 29 27 28 27 28 28 28 26 26 26 26 26 25 25 25 25 26 26
34 38 36 37 34 34 37 34 35 36 35 34 36 36 39 35 30 31 30 29 28 28 29 30 30 29 28 28 29 29 30 31 32 31 28 31 30 31 29 27 26 28 29 29 28 27 27 26 26 26 26 27 27 28
34 38 38 39 39 37 38 38 38 37 39 39 41 39 36 33 33 32 30 27 27 28 28 28 29 30 30 29 29 31 32 32 33 31 32 32 31 32 32 32 31 31 31 32 33 32 32 30 28 28 28 29 31 31
40 41 41 38 40 41 41 40 40 41 40 39 42 37 34 33 32 33 32 31 31 31 30 29 28 29 31 31 30 32 33 35 33 32 33 32 32 32 33 33 32 26 30 31 32 32 34 34 36 36 36 35 34 34
41 43 43 40 41 39 41 40 41 41 41 43 40 37 36 34 36 37 35 37 40 38 35 33 32 35 33 32 33 34 35 38 37 35 36 35 35 33 35 35 35 34 34 35 29 25 30 33 34 35 35 35 35 37
41 45 40 39 37 37 39 43 43 47 46 45 46 41 39 38 37 39 41 42 41 39 39 40 40 41 38 39 36 34 38 38 37 36 36 35 34 37 38 37 37 37 36 38 34 34 28 32 31 33 34 35 36 36
43 46 41 40 38 41 45 49 51 51 50 50 51 48 43 42 38 39 40 41 42 44 43 41 40 40 40 40 40 39 34 38 40 37 37 37 36 36 35 34 34 37 38 38 37 38 35 35 37 37 36 35 35 33
43 45 42 37 37 44 48 46 46 46 46 46 44 49 44 42 38 33 37 42 42 40 37 39 41 35 36 38 38 37 32 33 34 33 34 33 33 33 33 33 35 38 38 36 37 37 37 37 36 36 35 35 34 34
46 48 47 44 41 40 43 45 42 41 44 45 44 47 46 42 36 32 36 38 35 36 35 36 35 35 36 36 34 33 32 34 35 27 26 25 26 27 29 30 32 33 33 33 33 33 33 33 33 33 33 33 32 32

GFSWCAN_con_lsi_102.txt.gz
Lid_Strength_Index
1 1 1 -0 0 0 -0 -0 -1 -1 0 1 1 1 1 1 0 3 5 5 9 13 11 11 10 11 11 12 15 13 13 12 13 13 13 14 14 14 16 15 15 15 16 17 19 21 19 14 14 13 12 15 14 13
0 0 0 0 0 0 0 -0 -0 0 1 1 1 1 1 1 1 2 5 3 5 11 11 9 9 9 10 10 12 12 13 13 11 12 13 13 15 16 17 18 13 14 13 14 13 15 14 14 13 14 13 14 15 14
-0 0 0 0 0 0 0 0 0 0 1 1 1 1 1 1 1 3 5 3 7 12 12 12 11 9 8 9 9 12 13 10 11 10 12 13 15 14 16 16 16 13 12 13 12 13 13 14 14 13 13 14 13 14
0 0 0 0 -0 -0 -0 0 1 1 1 1 1 1 1 1 1 3 6 4 7 12 16 14 10 10 8 8 9 9 10 10 10 11 13 14 15 13 14 15 16 13 12 13 14 14 14 13 12 13 14 14 14 14
-0 -0 -1 -1 -1 -1 -1 -0 0 1 1 1 1 1 1 1 1 4 4 4 3 9 15 16 12 11 9 9 9 9 10 12 12 13 14 15 14 16 17 17 18 13 13 13 14 12 11 12 13 12 13 13 13 14
-1 -1 -1 -1 -1 -1 0 0 1 1 2 2 2 2 1 1 3 8 13 6 3 4 13 18 11 12 10 10 10 10 11 12 13 15 14 13 13 14 20 24 16 14 13 12 12 11 11 11 12 12 13 13 13 14
-1 -1 -1 -0 0 1 1 1 1 2 2 2 3 2 2 2 6 11 13 8 3 4 12 15 20 10 10 11 12 12 11 13 13 14 15 14 13 14 20 18 14 14 13 13 13 13 14 14 13 13 13 14 16 17
-0 -0 0 0 1 1 1 1 2 2 2 2 2 3 3 2 4 10 6 2 2 6 8 18 16 15 9 12 12 11 13 14 14 15 15 14 14 16 21 16 14 14 13 13 13 13 14 14 14 15 16 17 17 17
0 0 0 0 1 1 1 2 2 2 3 3 2 2 6 10 15 12 3 3 4 7 12 14 18 19 10 12 11 13 12 14 13 16 15 15 19 19 17 15 13 13 13 13 15 17 18 16 17 18 18 19 18 17
1 0 0 1 1 1 2 2 2 3 3 3 8 15 17 15 5 4 12 10 11 9 13 19 23 18 10 13 15 14 15 17 15 14 11 15 20 14 14 14 14 13 13 15 16 16 18 18 18 18 18 18 18 17
1 1 1 1 1 1 2 2 3 3 4 13 17 19 13 5 11 18 17 18 17 18 18 18 18 17 11 15 17 13 16 20 20 18 16 21 19 14 12 14 15 14 14 15 15 15 17 17 17 17 17 20 21 20
1 1 1 1 1 2 2 2 3 9 14 11 12 11 15 15 17 20 21 20 20 21 21 14 17 13 13 13 17 16 20 21 22 22 20 23 17 18 18 18 20 21 19 18 18 18 18 17 19 20 20 20 21 21
1 1 1 1 2 2 1 2 3 3 7 13 16 19 17 19 15 19 26 20 24 24 15 20 17 11 11 11 15 16 19 18 16 16 21 19 20 23 25 24 23 24 23 23 23 22 22 22 22 23 23 24 23 22
1 1 1 1 1 1 2 3 4 8 14 19 22 23 22 23 21 15 24 21 18 20 18 20 13 15 14 13 12 17 16 18 23 22 23 23 28 31 29 29 28 28 28 27 27 27 26 26 25 26 26 26 26 25
-0 -0 0 0 0 1 2 3 5 16 19 22 20 22 25 24 20 26 27 26 22 21 18 16 17 13 17 14 14 17 16 19 22 22 23 28 31 31 30 31 31 31 31 30 31 30 29 29 29 28 30 30 30 28
-1 1 3 1 1 2 4 9 17 21 24 24 24 24 26 23 21 23 30 28 18 18 18 16 18 16 18 16 17 17 19 23 20 31 31 31 33 33 34 33 33 33 33 33 32 32 31 30 31 31 31 34 32 33
2 6 2 2 3 4 4 17 20 25 27 27 28 33 31 28 24 25 25 24 18 16 18 16 16 16 15 17 19 19 17 26 28 31 33 34 34 34 35 35 34 34 33 33 34 33 32 32 34 34 30 30 33 35
7 3 2 4 9 11 20 22 22 26 29 28 27 30 30 28 30 29 24 20 19 16 19 18 16 19 20 19 21 28 30 33 31 31 29 31 33 30 31 34 33 34 34 33 35 35 36 34 33 31 34 34 32 34
5 6 4 4 10 18 20 21 21 25 28 26 26 23 25 26 22 21 21 20 18 17 17 18 21 27 28 32 32 32 33 33 29 28 27 28 29 33 34 34 33 34 34 34 35 32 32 34 32 32 30 32 32 33
4 4 5 6 9 18 21 20 17 19 24 23 24 24 23 22 22 22 22 23 20 21 24 24 33 35 31 29 29 29 29 30 34 34 31 29 32 34 32 35 32 32 33 34 33 31 32 30 32 30 30 30 30 29
11 11 8 14 17 18 20 20 20 20 20 21 21 20 22 22 25 25 24 23 25 30 29 33 32 33 31 36 34 35 32 32 35 35 37 34 33 31 31 32 33 35 35 35 35 31 33 34 31 30 33 32 31 30
17 9 16 13 16 18 20 20 20 20 22 24 23 24 26 25 27 26 24 26 29 29 29 29 29 30 33 36 37 39 38 40 40 38 33 32 33 32 32 33 35 34 34 34 35 33 32 32 31 32 32 31 29 29
14 14 18 19 19 20 22 19 22 24 24 24 25 26 27 28 27 25 29 30 31 30 33 34 37 40 39 39 41 40 41 39 38 38 36 36 34 34 36 35 37 36 34 34 34 31 31 29 29 30 30 29 29 28
18 26 25 26 25 26 22 23 22 25 26 27 28 31 32 36 31 30 34 39 34 38 37 36 40 37 38 37 36 34 33 33 35 36 37 37 35 34 35 34 36 37 34 31 30 29 30 30 27 28 29 30 30 30
23 32 29 30 28 27 28 27 28 28 28 31 30 31 33 39 32 34 33 34 35 35 34 35 34 33 34 36 34 35 38 38 37 39 36 36 37 35 34 31 32 34 34 33 32 30 28 27 28 29 30 31 31 30
34 37 35 40 35 33 37 34 38 38 41 36 39 40 43 37 32 32 34 34 34 32 32 32 32 31 30 28 32 32 33 35 37 37 35 37 38 38 38 35 33 31 32 34 34 34 32 29 29 28 27 27 27 28
33 37 40 42 41 41 39 41 42 40 41 38 42 40 39 33 33 31 35 35 33 33 32 31 31 31 30 29 29 29 30 32 34 33 32 35 33 33 33 34 34 31 35 35 36 38 37 36 35 34 34 34 35 34
41 44 39 40 41 47 42 45 42 39 41 43 43 35 32 33 31 32 32 34 39 41 40 38 35 31 29 29 29 30 31 35 34 32 32 32 33 33 36 35 35 27 29 34 34 33 35 35 34 34 34 34 33 36
42 46 45 39 43 42 42 39 40 43 43 46 40 38 36 36 38 40 37 39 46 43 40 40 37 44 38 39 37 38 39 40 36 34 36 36 36 32 38 39 38 36 36 38 31 26 27 28 29 29 31 32 32 37
41 50 42 44 39 35 39 44 45 50 51 47 48 42 41 40 38 43 44 44 41 38 39 42 44 44 39 42 38 35 40 39 35 33 35 34 32 35 39 36 34 34 36 41 34 33 29 31 32 36 34 33 34 35
49 50 44 45 41 44 48 54 57 55 55 54 57 49 44 43 40 41 41 43 45 48 44 40 41 45 43 43 44 43 33 38 39 36 35 34 34 34 34 33 33 35 38 38 37 37 35 35 37 36 36 35 34 33
50 49 44 39 39 47 52 51 52 50 52 51 48 57 48 45 39 33 37 43 44 41 36 41 44 34 36 35 38 36 32 33 34 33 34 33 32 32 31 32 33 36 37 35 35 35 35 36 35 34 34 34 34 34
51 54 53 48 43 41 46 47 45 42 47 47 46 50 49 43 35 31 35 37 32 32 32 33 33 34 34 34 33 32 32 32 32 28 26 26 27 28 29 29 31 33 34 33 33 32 34 34 33 33 33 33 32 32

GFSWCAN_con_lsi_105.txt.gz
Lid_Strength_Index
2 1 2 1 -0 -0 -0 -1 -1 -1 -1 0 1 1 1 0 1 4 5 6 10 13 11 11 10 11 12 12 14 13 12 13 13 13 13 14 16 15 16 15 15 15 16 18 21 23 19 14 15 14 13 15 14 13
1 1 1 1 -0 -1 -1 -1 -0 -1 -0 0 0 1 1 0 1 2 6 5 7 11 12 9 9 9 9 10 11 12 13 13 11 12 13 13 14 15 17 16 14 14 13 15 15 15 13 14 14 13 13 14 14 14
1 1 1 1 0 -0 -0 -1 -1 0 -0 -0 1 1 1 1 1 3 5 5 8 12 12 11 12 10 9 10 9 12 12 10 11 10 12 13 15 14 15 18 16 14 13 14 13 14 14 14 14 13 13 14 13 13
1 1 0 0 0 -0 -0 -0 -1 -0 -0 -0 0 1 1 1 1 3 6 5 8 12 15 14 10 11 9 9 10 10 10 10 10 11 12 14 17 13 17 16 16 13 12 14 14 14 14 14 14 13 14 13 13 13
0 0 -0 -0 -1 -1 -1 -0 -0 -0 -0 -1 0 1 1 1 1 4 5 3 4 10 15 16 12 11 10 9 10 10 10 11 12 13 14 14 15 17 17 16 17 12 12 13 15 12 12 12 13 13 13 13 13 14
-0 -1 -1 -1 -1 -1 -1 -1 -1 -1 -1 -0 0 1 1 2 4 8 12 7 3 5 13 17 13 13 11 10 11 11 11 13 13 13 14 14 13 14 17 21 15 13 12 9 11 9 9 10 11 13 14 14 13 13
-1 -1 -1 -1 -1 -1 -0 -0 0 1 0 1 1 1 2 2 6 11 13 9 3 5 13 15 18 12 12 12 13 12 12 13 13 14 14 13 14 14 18 19 14 13 12 13 12 12 14 13 13 12 12 13 15 16
-1 -1 -0 -0 0 0 0 1 1 1 2 2 2 2 2 2 5 10 6 2 3 7 13 19 16 13 10 14 15 13 14 14 15 15 14 14 14 16 22 17 14 13 13 13 13 13 13 13 14 15 16 17 17 18
-1 -0 -0 0 1 1 1 1 2 2 1 1 2 3 6 10 14 11 3 4 6 10 16 20 18 18 10 13 11 13 14 18 15 17 15 15 18 19 17 15 14 13 13 13 15 17 17 16 17 17 18 19 19 17
-0 -0 0 0 0 1 1 1 1 2 2 3 8 14 17 14 5 4 11 13 14 14 14 20 23 16 11 12 15 14 15 16 17 15 13 19 21 14 13 14 14 13 14 15 16 16 18 18 18 18 18 19 19 19
-0 -0 -0 0 0 1 1 2 2 3 5 13 19 19 13 7 13 19 17 20 17 20 17 16 19 15 11 16 15 13 17 19 20 18 17 24 22 15 16 17 19 18 17 17 17 17 18 18 18 18 19 21 23 23
0 1 0 0 1 1 2 2 3 9 15 12 13 12 15 17 20 21 24 20 19 21 22 14 16 14 15 13 17 16 20 19 23 21 18 24 19 21 22 21 23 23 23 22 22 22 22 21 22 22 23 24 26 26
0 0 0 1 1 1 1 2 2 3 7 14 17 20 18 21 21 26 27 24 25 27 21 19 15 13 12 11 15 17 20 20 17 18 19 20 21 25 26 26 24 25 25 24 25 24 24 25 26 27 28 29 29 28
0 0 0 0 1 1 2 3 3 8 14 19 23 23 24 27 24 19 27 27 23 21 18 20 14 17 18 13 12 18 18 18 22 21 21 25 29 31 30 29 29 29 29 28 28 28 27 27 27 28 29 30 30 29
-1 -0 0 0 0 1 3 3 6 17 19 22 21 25 27 26 24 23 23 29 23 19 19 16 17 14 15 14 13 16 18 20 22 23 25 30 33 33 32 33 33 32 32 31 31 32 31 31 30 29 29 31 32 31
-1 -1 2 0 1 2 4 9 17 22 26 25 25 25 27 27 24 28 27 24 22 19 17 17 17 17 19 16 17 17 20 24 22 33 34 34 36 36 36 36 35 36 36 36 34 34 33 32 33 33 33 34 33 33
1 4 1 3 3 4 4 17 19 28 29 29 30 36 33 27 25 27 30 24 21 19 15 17 21 19 17 17 21 24 22 27 34 35 35 36 36 36 36 36 34 33 32 32 34 34 35 36 37 35 33 34 36 35
5 3 3 5 10 11 20 22 25 27 30 30 28 30 35 29 26 28 26 23 23 21 20 16 14 15 17 23 23 29 32 34 34 33 32 34 36 36 36 35 32 32 33 33 34 36 38 34 34 33 36 35 34 35
5 5 3 4 9 18 20 21 22 24 25 29 30 27 29 27 23 22 24 22 21 20 19 17 15 18 24 30 33 34 35 36 34 31 31 32 32 35 35 34 34 33 33 33 35 33 34 37 34 34 32 31 31 30
4 4 4 5 9 18 23 22 20 21 24 23 25 27 25 25 24 26 23 22 20 20 23 25 30 36 35 35 35 35 33 30 35 34 32 30 29 32 34 33 34 34 34 34 34 31 32 31 33 32 32 32 31 29
10 9 8 14 18 19 20 20 20 20 21 21 23 22 23 22 23 23 24 22 23 29 28 31 35 35 36 37 34 30 28 28 29 34 36 35 34 32 32 34 38 39 38 38 37 33 34 35 32 32 33 31 32 30
16 9 15 12 15 17 19 19 21 20 21 23 21 22 24 24 25 26 24 25 28 29 29 31 32 32 30 29 32 35 34 40 41 39 35 35 36 32 31 34 36 35 36 36 37 35 33 32 32 32 34 31 30 30
13 13 17 19 19 20 23 19 24 24 25 26 24 26 26 27 28 26 31 33 32 31 34 34 36 39 38 39 41 40 43 42 40 40 38 37 37 35 36 35 37 38 34 34 37 34 33 31 31 31 31 31 33 32
18 26 26 26 26 29 25 26 25 26 28 30 31 31 30 33 32 29 32 37 34 38 38 37 40 36 38 40 38 37 37 39 40 38 39 40 37 35 37 34 34 35 35 33 34 34 33 32 30 30 28 31 32 33
24 32 29 31 29 29 30 29 29 27 30 31 31 32 34 39 32 34 33 33 37 37 37 38 37 36 37 38 37 37 39 38 38 39 35 37 38 37 35 36 36 35 37 38 37 37 35 33 32 32 30 30 30 30
35 40 36 43 38 35 40 36 40 40 43 38 39 41 44 38 32 31 34 35 37 37 36 36 35 36 35 31 31 32 32 37 39 38 32 34 34 37 38 37 37 33 37 38 39 39 38 36 38 37 35 34 32 32
32 36 40 43 42 42 40 42 44 41 40 37 41 39 38 32 32 30 35 36 35 35 36 34 33 32 30 29 28 29 30 32 31 29 29 31 31 32 33 35 34 33 38 38 38 38 38 37 37 36 35 35 36 35
41 44 38 40 42 48 41 46 42 38 40 43 43 35 32 32 30 31 31 34 39 43 42 41 39 35 34 31 34 35 33 37 37 34 33 32 32 32 33 32 31 26 29 33 34 34 36 35 35 34 34 32 31 34
43 48 46 40 45 43 42 39 39 43 42 46 40 38 36 35 38 40 37 40 48 43 39 37 36 46 39 39 38 37 38 40 37 34 35 33 35 30 36 36 36 36 35 36 31 26 28 29 29 29 29 29 29 33
43 52 43 45 40 35 39 44 45 50 52 48 49 43 41 40 39 43 45 45 41 38 39 42 44 45 39 43 37 35 39 38 34 32 34 31 31 36 40 39 35 33 35 40 34 33 29 30 33 37 34 33 33 32
52 52 45 47 41 44 49 55 58 57 57 57 59 51 44 44 42 41 41 42 44 48 44 38 40 44 43 43 44 43 32 38 39 36 34 33 32 32 31 31 31 33 36 36 36 36 34 34 35 35 34 34 33 32
50 49 44 39 40 49 54 54 54 51 53 52 50 59 49 46 39 32 37 43 43 40 34 38 42 32 35 33 36 35 31 30 33 32 34 32 31 31 30 30 31 34 34 34 34 34 34 35 34 33 32 33 33 33
52 56 55 49 42 40 46 47 45 43 47 47 46 50 49 42 33 29 34 36 30 30 29 30 31 32 33 33 32 31 31 31 31 26 25 25 27 27 29 29 31 32 32 33 32 32 33 33 33 32 32 32 31 31

GFSWCAN_con_lsi_108.txt.gz
Lid_Strength_Index
2 1 1 1 0 -0 -0 -1 -1 -0 -1 -1 -0 0 1 -0 1 4 6 6 9 12 11 10 10 12 12 12 12 13 12 13 13 13 14 14 15 15 17 15 15 15 16 18 23 23 18 15 14 13 12 14 13 13
2 1 1 0 -0 -1 -0 -0 -1 -1 -1 -0 -0 0 1 0 1 3 8 5 7 10 11 9 10 9 10 10 11 13 13 13 11 12 13 12 15 16 19 18 14 15 13 15 14 15 13 14 13 13 13 13 14 13
2 1 1 0 -0 -0 -0 -1 -1 -1 -1 -1 -0 0 0 0 1 3 7 7 9 12 12 12 12 10 9 10 9 12 12 11 12 11 12 14 17 17 19 18 16 14 13 14 13 14 14 14 14 13 14 14 13 13
1 1 1 1 0 -0 -1 -1 -1 1 -1 -1 -1 0 0 0 1 2 5 6 9 13 15 13 10 11 10 9 9 9 10 9 10 11 13 14 17 14 16 16 17 14 13 15 15 14 14 14 13 13 13 13 13 13
1 1 1 1 1 0 -1 -1 -1 -0 0 -1 -1 -1 -0 0 1 3 4 4 6 10 16 15 12 11 10 10 10 9 10 11 12 13 13 14 14 15 16 16 18 12 12 14 16 13 13 13 13 13 13 13 14 13
0 -0 -0 -0 -0 -0 -1 -1 -1 -0 1 -1 -1 -1 0 2 4 8 10 7 4 8 13 16 13 13 12 11 11 11 11 12 13 12 13 13 13 14 18 21 15 12 11 9 11 9 9 10 12 13 13 13 13 14
-1 -1 -1 -1 -1 -1 -1 -1 -1 -1 -1 -1 -1 -0 0 1 5 9 13 8 3 6 13 18 19 13 12 12 13 13 12 13 13 14 14 14 14 15 21 20 14 14 12 12 12 11 13 13 11 12 13 13 14 16
-0 -0 -0 -0 -0 0 1 0 -0 -0 -0 -0 -0 0 2 2 5 7 5 3 4 9 13 19 18 14 11 14 15 13 14 15 15 15 14 16 16 17 21 16 14 14 13 14 14 14 13 14 14 15 16 16 17 17
-0 -0 0 0 1 1 1 1 0 0 0 1 2 2 6 9 13 8 3 5 6 11 18 22 20 19 12 14 13 14 14 18 16 17 15 15 21 20 17 16 15 15 15 14 16 17 17 16 17 18 18 18 18 18
-0 -0 -0 0 1 1 1 2 2 2 2 4 8 12 15 10 4 7 13 16 15 15 16 20 24 17 11 14 17 16 17 17 18 16 14 20 21 15 17 18 18 18 17 17 17 17 18 18 18 19 20 20 20 20
-0 0 0 0 1 1 2 2 2 3 4 13 17 16 12 7 12 18 20 21 22 21 17 17 20 18 12 17 18 14 19 20 23 20 18 21 21 17 19 21 22 21 20 22 20 20 20 20 19 19 21 24 24 25
0 0 1 1 2 1 1 1 2 9 15 12 12 13 15 17 19 20 23 21 20 24 22 15 17 16 16 14 16 18 20 20 22 21 19 26 20 23 25 25 25 26 25 25 24 24 24 24 24 24 25 27 28 28
0 0 0 0 1 1 1 2 2 3 8 15 17 20 18 21 21 25 29 25 26 26 23 19 15 12 13 13 19 19 21 21 19 19 21 21 23 27 29 28 26 27 27 27 28 27 27 27 27 28 28 29 30 29
-0 -0 0 1 1 2 2 3 3 8 14 19 23 23 25 29 25 24 28 29 25 22 22 18 14 16 16 15 15 19 20 19 23 24 22 23 29 31 29 30 30 30 30 29 30 29 29 29 29 30 32 33 32 32
-0 -1 -0 1 2 2 3 4 6 17 20 21 22 26 26 28 26 26 25 27 24 23 21 17 16 14 16 15 14 18 21 21 22 23 24 29 31 32 31 32 33 32 33 32 32 32 31 32 32 32 34 35 35 34
-1 1 2 1 2 2 4 10 18 22 27 26 26 26 31 27 25 26 27 22 24 22 20 18 15 17 19 15 18 20 20 24 22 34 33 33 35 34 34 35 34 34 35 35 35 35 34 34 35 35 34 35 35 36
2 6 3 2 3 4 5 18 21 30 30 30 31 39 36 28 29 32 30 25 21 23 20 20 17 19 16 20 23 23 24 29 36 36 37 37 37 38 38 38 36 35 34 34 35 35 36 37 38 36 34 33 34 34
6 4 3 3 9 10 20 23 26 28 31 32 29 32 38 31 28 32 27 26 25 22 21 19 18 20 22 24 24 29 33 35 35 34 34 36 38 40 40 38 37 37 36 34 35 36 35 37 37 35 38 36 35 34
4 5 3 4 9 18 20 21 23 28 30 33 33 30 32 32 26 24 27 26 24 22 22 21 17 23 25 30 34 36 37 37 37 33 34 37 36 38 37 36 35 35 35 34 33 35 37 39 37 37 36 36 36 33
4 3 4 5 9 18 23 23 23 24 26 24 30 30 29 29 26 28 30 27 24 24 24 26 31 34 31 31 31 32 34 34 38 37 35 33 33 37 35 35 32 34 33 34 35 32 33 33 35 35 36 35 35 32
9 9 7 14 18 20 22 22 21 22 23 23 24 23 25 25 29 30 29 23 25 29 28 33 36 34 36 39 38 37 32 30 33 35 34 32 35 36 34 35 39 40 38 38 38 34 36 36 33 33 36 33 34 33
16 9 16 13 16 18 19 19 20 19 20 23 22 23 26 27 29 27 25 24 27 30 30 29 34 35 35 34 36 40 38 41 42 39 34 35 37 36 36 37 38 37 38 38 39 37 34 32 32 33 35 32 31 32
14 14 18 19 19 20 23 19 22 24 24 25 26 26 26 26 28 26 28 32 31 31 34 35 37 40 38 40 42 41 43 41 40 41 40 39 39 39 37 37 38 38 36 35 38 37 35 32 31 31 32 33 35 34
19 27 27 27 27 29 26 28 28 28 29 30 31 30 31 34 33 29 31 34 33 36 37 36 40 37 39 40 38 37 38 41 41 41 40 42 39 36 39 37 37 36 34 36 38 37 36 36 32 33 33 36 35 35
23 32 32 34 34 33 34 34 34 32 36 40 35 33 35 40 32 31 32 32 37 39 38 41 41 39 38 39 38 38 41 38 37 37 35 39 40 39 36 37 34 33 36 38 38 39 38 39 38 37 36 38 36 34
33 40 36 43 38 35 40 35 39 40 43 39 38 41 46 38 31 30 33 34 38 37 37 37 35 36 36 34 34 32 31 37 39 38 34 36 36 35 37 37 35 32 34 37 39 39 37 36 39 37 36 35 34 36
32 36 41 44 42 43 41 44 45 42 39 36 41 39 39 32 32 29 34 36 35 35 37 38 37 35 33 32 34 33 34 37 33 31 33 33 33 33 32 32 33 32 37 38 39 39 37 36 35 35 35 33 35 35
42 46 38 42 44 50 42 47 43 37 39 44 43 35 32 31 29 31 30 34 39 43 43 41 39 36 35 32 32 36 35 40 40 36 33 31 31 31 31 31 30 26 32 32 33 34 36 35 34 34 33 33 31 31
44 50 47 40 45 44 42 38 39 42 43 45 39 37 35 35 37 39 37 41 49 44 40 39 37 47 41 40 38 37 38 41 38 35 36 32 35 30 35 34 34 35 35 35 31 26 29 32 32 31 30 30 28 29
44 54 44 46 41 35 40 45 46 52 53 50 51 44 41 40 39 44 45 46 41 36 38 41 44 45 38 42 36 35 39 38 34 31 32 30 30 35 40 39 36 35 34 35 33 32 29 29 31 36 33 32 33 32
53 53 46 48 43 45 50 57 60 58 58 57 61 51 45 44 42 40 40 41 42 46 43 35 37 42 41 40 42 40 29 35 36 34 32 31 31 31 30 30 30 32 33 34 33 33 32 32 32 33 33 32 31 31
52 50 44 39 40 50 56 55 55 53 54 53 50 60 50 47 39 32 36 42 43 41 34 35 38 30 33 31 33 33 29 28 32 32 34 31 31 30 29 29 30 33 33 32 32 33 33 35 33 32 31 31 31 31
54 58 57 50 43 42 47 48 46 44 49 49 46 50 51 44 34 29 35 36 30 30 28 29 29 30 31 32 31 29 30 30 30 26 24 25 27 27 28 29 30 31 32 32 31 31 32 33 33 32 32 31 31 30

GFSWCAN_con_lsi_111.txt.gz
Lid_Strength_Index
2 1 1 -0 -1 -1 -0 -0 -0 -0 -0 -1 -0 0 0 -0 1 4 6 6 8 11 9 9 11 12 12 12 12 13 12 13 13 13 14 14 21 17 19 17 17 18 18 20 23 18 19 15 14 13 12 13 12 13
2 1 1 -0 -0 -0 -0 -0 -0 -0 -1 -0 -0 -0 0 0 1 3 7 6 6 10 9 8 9 9 10 11 11 12 12 12 11 13 13 13 16 18 19 21 14 16 14 17 15 15 13 14 13 13 13 13 13 12
1 1 -0 -0 -0 -0 -0 -0 -0 -0 -1 -1 0 0 -0 0 1 3 7 8 9 10 10 10 11 10 9 10 9 12 12 11 12 11 13 16 18 17 19 20 17 13 13 15 14 15 14 14 14 13 13 14 13 13
1 1 0 -0 -0 -0 -0 -0 -0 -0 -0 -1 -0 -0 -0 -0 1 3 6 6 9 13 13 12 9 11 10 9 8 8 9 9 11 11 13 13 15 14 17 16 16 14 13 16 17 14 14 14 13 13 13 13 13 13
1 1 1 1 -0 -0 -0 -0 -1 1 -0 -1 -1 -1 -1 -0 1 4 5 5 7 11 15 13 11 10 10 9 8 8 9 11 12 13 14 15 14 14 16 16 18 12 13 14 17 13 13 13 13 13 13 14 14 14
1 1 1 0 0 -0 -0 -1 -1 0 -0 -1 -1 -0 1 2 4 7 8 6 4 8 12 15 12 12 11 10 10 11 11 12 12 13 14 13 13 14 17 22 16 12 11 10 11 11 12 13 13 13 13 14 14 14
-1 0 1 -0 -1 -1 -1 -1 -1 -0 -1 -1 -1 -0 -0 1 5 10 11 7 3 8 14 18 17 12 12 12 12 12 12 13 13 14 14 14 14 14 18 19 15 12 10 10 10 10 11 11 12 13 13 14 15 17
0 1 -0 -1 -1 -0 -1 -1 -1 -0 -0 -0 0 1 1 2 4 7 5 4 5 11 14 20 19 14 11 14 14 13 14 14 15 15 14 15 15 16 17 16 14 14 14 13 13 14 12 13 14 15 15 15 15 17
0 1 1 0 0 -0 -0 0 0 1 1 2 2 3 6 10 12 11 4 6 8 10 18 22 20 19 12 13 13 15 14 17 15 16 15 15 19 18 18 16 16 18 16 15 16 16 15 16 17 18 17 17 17 18
0 0 1 1 1 1 1 2 2 2 3 3 7 13 16 11 4 7 13 16 15 17 17 21 22 18 12 15 17 16 17 19 19 17 15 18 20 19 21 22 22 21 20 20 17 17 18 19 19 20 21 21 21 21
0 1 1 1 1 1 2 2 2 3 5 13 18 17 11 7 12 18 20 20 23 22 20 18 21 18 13 17 18 15 20 21 22 20 19 20 21 20 22 24 25 24 22 24 21 21 22 21 21 21 23 26 26 27
1 1 1 1 1 1 1 2 3 9 16 13 13 14 16 18 20 20 23 23 24 24 23 19 17 16 16 14 16 19 21 22 24 22 21 26 21 26 27 26 27 27 27 27 26 26 25 26 26 26 27 28 29 28
0 1 1 1 2 2 2 2 3 4 9 15 17 21 19 22 22 25 27 24 25 25 23 21 15 14 16 15 20 20 21 22 21 23 23 23 25 29 30 29 28 29 29 29 29 29 28 28 28 29 30 31 31 30
0 1 1 2 2 2 2 3 4 8 15 20 24 24 25 28 26 28 27 28 23 21 22 21 16 14 15 17 19 21 22 21 26 24 23 27 32 33 31 31 30 31 31 31 32 31 31 31 30 31 33 33 33 33
0 1 1 2 2 3 3 5 7 19 20 23 23 27 28 27 28 28 28 27 24 24 22 20 17 14 15 16 16 21 22 25 24 23 27 30 31 32 32 32 33 32 32 32 33 33 32 32 33 33 34 35 35 34
1 3 4 2 3 3 4 12 20 23 27 27 28 28 30 29 27 30 31 28 23 23 22 21 20 19 18 19 20 22 23 25 23 33 34 33 35 34 35 35 34 35 35 34 33 33 32 33 34 35 35 36 35 36
3 11 3 3 4 5 6 20 22 30 29 29 31 41 37 33 31 33 32 25 22 25 22 19 18 16 19 21 21 25 24 28 35 36 35 36 36 37 39 38 37 37 37 35 35 34 34 35 35 35 34 35 37 37
10 6 2 3 9 11 22 25 27 26 30 33 29 31 38 34 31 31 30 26 25 24 24 20 20 17 23 24 26 30 32 34 33 32 32 34 37 39 39 39 38 39 38 38 38 38 38 37 37 35 37 34 35 35
4 4 3 3 9 19 21 22 24 28 31 35 34 31 33 32 29 26 28 27 25 23 24 25 24 23 27 30 34 35 38 40 38 34 36 38 37 40 40 39 38 38 38 39 39 38 38 38 36 36 36 36 35 34
4 4 4 6 10 19 23 24 25 25 30 26 32 31 31 30 28 30 32 30 27 29 28 31 33 31 32 31 32 35 36 35 39 38 36 35 35 39 38 38 37 38 38 38 37 34 37 35 37 37 38 38 38 34
10 10 8 14 19 20 23 26 26 26 27 27 27 28 28 30 33 33 33 28 27 30 30 34 34 35 37 38 39 40 35 34 36 36 37 36 35 37 36 38 40 42 40 40 40 37 37 37 36 35 38 35 36 35
16 9 18 14 17 20 22 22 24 24 25 26 24 26 30 31 32 31 28 28 30 32 30 30 29 31 32 36 37 39 39 41 43 40 35 36 36 35 35 38 37 36 36 37 39 37 36 35 35 35 37 33 32 33
15 15 20 22 21 23 26 22 26 27 27 27 28 27 27 29 32 28 28 30 31 29 33 33 34 36 35 39 42 39 41 41 39 40 38 38 38 38 38 36 39 39 36 33 38 38 36 33 33 33 34 34 36 34
19 28 28 30 29 31 30 31 30 31 32 33 33 31 32 38 34 31 30 36 33 39 38 37 40 37 39 41 39 38 39 41 42 40 40 42 38 34 38 35 38 37 34 34 37 36 37 37 34 35 36 39 38 38
23 32 32 33 35 32 34 34 35 31 36 41 35 33 35 43 33 33 31 32 37 39 39 43 44 40 37 40 38 38 41 38 37 36 35 37 40 40 37 36 34 33 35 39 37 38 37 40 38 38 38 40 37 35
34 41 36 43 38 34 40 35 39 40 44 39 38 42 46 38 31 29 32 34 37 37 37 36 36 38 39 35 37 37 35 37 38 35 33 34 33 32 31 31 31 30 33 31 35 36 36 36 37 37 36 35 34 35
32 37 43 45 44 44 42 46 48 44 40 37 40 40 39 33 32 29 34 36 34 35 37 38 36 35 34 34 35 35 37 39 34 33 36 36 33 32 30 31 31 30 36 36 36 36 36 35 35 35 34 33 34 34
43 46 37 42 44 50 41 47 43 37 38 44 43 35 33 30 28 29 30 34 40 44 43 43 41 38 35 33 34 37 35 42 42 38 35 32 31 31 31 30 29 25 34 35 33 34 36 35 34 34 34 33 31 31
45 52 49 41 46 45 41 38 38 42 43 46 39 37 34 34 36 39 37 41 50 44 40 36 35 48 43 40 38 37 38 42 38 35 36 31 34 30 35 34 35 34 34 34 29 26 31 33 32 32 32 31 30 29
45 56 46 48 42 36 40 46 46 53 54 50 52 44 41 40 39 43 45 46 40 35 36 39 42 43 36 41 34 34 37 37 35 31 31 28 28 33 39 37 36 34 34 36 33 32 27 28 28 32 33 32 31 30
55 55 47 50 44 46 52 60 63 61 60 59 63 52 45 45 43 40 40 39 39 45 42 35 34 38 38 37 40 40 29 34 35 34 31 29 29 30 29 29 29 31 32 32 32 32 32 32 32 33 33 33 32 31
52 50 45 40 40 51 57 55 57 54 56 54 51 61 50 48 40 31 36 42 42 39 34 35 36 29 30 29 32 31 28 26 31 31 33 31 30 29 28 28 29 31 32 32 32 32 33 34 33 32 31 31 31 30
55 58 57 50 43 41 47 47 46 44 49 49 47 50 50 45 34 29 34 34 28 29 27 28 27 27 28 29 28 27 28 28 27 24 23 24 26 26 27 28 29 30 31 31 30 31 32 32 32 32 31 31 31 30

GFSWCAN_con_lsi_114.txt.gz
Lid_Strength_Index
1 1 1 1 -0 -1 -1 -0 -0 -1 -0 -0 -0 -0 -0 -0 1 3 5 5 6 9 10 11 11 12 12 11 12 12 11 11 12 13 13 14 14 15 14 14 14 14 14 15 14 15 17 11 12 12 9 9 9 10
1 2 2 -0 -1 -1 -1 -0 -0 -0 -0 -1 -0 -0 -0 -0 1 2 5 4 5 8 10 9 10 10 10 11 11 12 11 12 9 12 12 13 15 15 14 16 13 14 11 13 12 12 11 11 10 10 10 10 9 9
2 1 -1 -1 -1 -1 -0 -1 -0 -0 -1 -1 -0 -0 -0 -0 1 2 5 6 6 9 9 9 11 10 10 10 9 11 12 10 10 9 11 13 14 14 15 14 13 12 11 12 12 12 12 11 12 11 11 11 11 10
0 -0 -0 -1 -1 -1 -1 -0 -1 -1 -1 -1 -1 -0 -0 0 1 3 6 6 7 9 11 11 8 10 10 9 8 8 10 10 10 10 12 13 13 13 14 13 12 11 11 13 13 13 12 12 11 11 12 11 11 12
0 0 -1 -0 -1 -0 -1 -1 -0 -1 -1 -1 -0 -0 -0 0 2 3 4 4 6 8 12 11 10 9 9 8 9 9 9 11 12 12 12 13 13 14 15 14 14 12 12 12 12 11 10 12 11 11 11 12 12 12
0 0 -0 -1 -1 -1 -1 -1 -0 -0 -1 -1 -1 -0 1 2 4 4 7 5 4 7 10 13 11 11 10 10 10 10 10 11 11 12 13 12 12 13 13 13 14 11 10 9 11 10 11 11 11 11 12 12 12 13
0 -0 -0 -1 -1 -1 -1 -1 -1 -1 -1 -1 -0 -0 0 1 3 7 9 6 4 6 11 13 13 10 10 11 12 12 11 12 11 12 13 13 13 13 14 14 14 11 10 10 10 10 12 11 13 12 13 14 15 16
-1 -1 -1 -1 -1 -1 -1 -1 -1 -1 -1 -0 -0 0 1 1 3 7 6 4 6 9 11 15 14 12 10 12 12 12 12 12 13 13 12 13 13 14 15 15 15 15 13 13 14 12 10 13 13 15 14 14 15 16
1 1 0 1 1 1 1 0 1 2 1 1 2 3 5 8 9 8 4 6 7 9 14 16 16 15 10 12 12 12 13 15 13 14 14 14 16 18 20 19 19 20 18 16 15 15 14 15 16 16 16 16 16 18
1 1 1 1 1 1 2 2 2 3 3 3 6 10 11 9 5 6 11 12 14 16 14 17 19 15 12 13 14 13 15 17 16 16 14 16 19 21 22 23 23 22 22 20 15 16 17 18 18 19 20 20 20 20
1 1 1 1 1 2 2 2 3 4 5 10 12 11 9 7 10 15 17 16 18 17 18 17 17 14 12 14 15 15 16 18 18 17 16 18 18 21 23 25 25 25 23 24 22 21 21 20 19 21 23 24 25 25
1 1 1 1 2 2 2 2 3 8 12 11 11 12 13 16 16 17 21 20 19 19 20 18 15 13 13 13 13 15 17 18 19 19 17 19 21 27 27 27 28 28 27 27 26 25 25 26 25 25 26 27 27 28
1 2 2 2 2 2 2 2 3 5 9 12 15 18 16 19 20 22 24 20 19 21 21 20 16 13 12 13 16 15 18 19 19 19 19 20 26 29 30 29 28 29 28 29 29 28 28 28 29 28 29 30 29 30
2 2 2 2 2 3 3 3 4 8 14 18 20 22 22 23 23 23 22 22 20 20 21 21 19 14 13 14 16 17 19 19 20 21 20 25 30 31 31 31 30 31 31 31 31 30 30 30 30 31 32 33 32 31
2 2 3 3 3 3 4 6 8 17 18 20 20 24 24 24 25 24 25 24 22 22 21 19 17 14 13 14 17 19 20 20 20 19 23 28 31 31 31 32 32 32 33 32 32 32 32 32 32 31 33 33 33 32
3 4 5 3 3 4 5 13 19 21 26 24 26 24 26 24 24 26 26 25 23 23 22 20 17 16 15 15 18 20 20 21 19 26 30 30 31 32 33 32 32 33 32 32 32 32 31 32 33 32 32 32 33 32
3 10 2 2 4 6 8 19 20 29 27 26 29 37 31 29 26 27 29 25 22 24 22 21 19 18 17 19 20 20 19 23 29 30 31 31 31 32 34 34 33 34 33 32 32 31 31 32 32 30 29 30 32 31
11 8 2 3 9 12 21 22 24 24 28 29 26 28 32 30 28 28 27 25 25 23 22 20 21 17 18 20 18 25 28 29 31 30 29 31 32 33 34 34 34 34 33 34 34 34 33 32 30 29 32 31 32 30
5 5 3 4 10 19 20 21 23 27 30 32 30 28 30 29 28 26 26 26 25 23 23 21 21 19 20 26 28 30 32 32 31 30 31 33 33 33 34 34 34 34 34 34 33 32 32 34 33 31 31 32 31 30
5 5 5 6 10 18 22 23 24 24 28 26 30 28 28 27 28 30 28 28 26 26 25 25 26 28 28 28 29 30 30 31 33 32 30 30 31 35 33 33 32 33 34 33 33 33 31 30 30 30 31 31 31 29
10 10 9 14 19 20 23 25 24 25 27 25 27 27 27 29 30 30 30 29 27 30 27 31 31 31 33 33 33 34 32 32 31 31 30 30 31 31 31 32 34 33 33 32 32 30 32 31 29 30 31 30 30 29
16 10 18 16 18 21 23 23 24 24 25 27 26 28 30 29 31 31 29 27 28 28 30 29 29 32 33 32 31 35 35 37 36 34 33 33 31 29 29 31 32 31 31 31 31 30 29 29 30 30 30 29 29 28
15 16 20 22 21 23 27 25 26 29 26 26 29 27 28 31 32 29 26 28 28 30 33 32 33 35 33 36 39 36 37 36 33 32 32 32 32 32 33 32 33 33 30 28 29 30 30 30 30 30 29 29 29 28
20 28 29 30 28 30 31 31 30 31 31 32 31 29 31 35 35 28 27 30 29 34 34 36 36 31 33 36 33 31 32 36 33 34 34 35 33 30 31 31 31 32 30 29 30 30 30 30 30 30 30 31 30 30
24 32 32 33 36 32 33 33 34 31 35 41 35 32 34 42 31 30 29 28 33 34 34 40 38 35 32 32 32 32 38 34 32 31 29 32 31 33 31 30 30 30 29 32 31 32 31 31 32 31 31 32 32 31
33 40 36 42 38 33 39 34 38 40 43 38 38 40 44 37 30 27 29 29 32 32 33 33 32 35 34 34 32 32 30 35 36 34 31 32 33 32 31 30 29 27 29 29 29 30 29 30 31 32 31 31 31 31
32 37 44 46 44 44 42 46 47 42 39 35 38 37 36 31 31 27 30 32 31 31 33 34 32 31 29 30 33 33 34 36 32 30 33 33 31 30 29 29 30 27 30 32 32 32 30 30 30 30 31 30 30 31
44 48 38 45 46 51 42 47 43 37 37 43 42 34 32 29 27 27 27 32 38 41 39 39 37 35 33 32 32 34 35 39 39 37 35 32 31 30 30 30 28 24 28 32 31 32 33 32 31 31 31 31 30 28
46 54 50 43 48 46 43 39 39 42 43 45 38 35 33 33 35 37 34 39 47 42 37 33 32 44 39 39 37 36 35 37 35 32 30 27 29 26 31 30 31 31 30 30 28 26 31 31 31 31 30 30 28 27
45 57 46 49 42 36 40 46 47 54 55 50 52 44 41 40 39 43 44 45 39 34 33 36 39 40 33 38 32 33 35 35 33 29 28 26 25 30 33 33 32 32 32 33 31 30 27 25 25 25 26 28 28 28
54 55 47 49 42 46 52 59 62 60 59 59 62 51 45 44 43 41 40 38 35 43 40 34 33 35 36 34 37 36 28 31 33 32 30 27 27 27 27 27 27 28 29 30 31 31 30 30 30 31 31 31 30 30
53 49 44 38 39 51 57 55 56 54 55 54 52 61 51 49 40 32 35 42 43 40 34 35 35 29 30 28 29 29 27 25 29 30 32 30 29 28 27 27 27 28 29 29 30 30 30 32 31 30 30 29 29 29
56 58 57 50 42 41 48 48 46 45 50 50 48 50 51 46 36 30 35 36 29 29 27 29 29 29 30 30 29 27 28 28 27 24 23 23 25 25 25 26 27 28 29 29 29 28 29 30 30 29 29 29 29 28

GFSWCAN_con_lsi_117.txt.gz
Lid_Strength_Index
1 2 1 1 1 -0 -0 -0 -0 -0 -0 -0 -0 -0 -0 0 1 2 4 3 5 9 11 11 11 12 11 10 12 12 11 11 13 13 14 14 14 13 13 12 13 14 14 15 14 16 17 9 10 12 9 9 9 9
1 2 2 1 -0 -0 -0 -1 -0 -0 -0 -0 -0 -0 -0 0 1 1 4 3 3 8 10 9 10 10 11 12 11 12 11 12 8 12 12 13 14 13 13 15 12 14 11 13 12 12 10 9 9 8 8 8 9 8
1 1 1 0 -0 -0 -1 -1 -1 -0 -0 -1 -0 -0 -0 0 1 1 4 4 4 9 8 9 11 10 9 11 11 10 11 9 10 8 11 12 13 11 14 13 12 11 9 10 11 10 10 10 10 10 9 9 9 9
-0 -0 -0 -0 -0 -1 -0 -0 -0 -0 -1 -1 -0 -0 0 0 1 2 5 4 5 7 9 10 8 10 9 8 8 9 9 9 9 9 12 13 13 12 11 11 11 10 11 12 11 12 11 11 10 9 10 10 11 11
-0 -1 -0 -0 -0 -0 -1 -1 -0 -0 -1 -1 -0 -0 0 1 1 2 3 4 4 7 10 10 9 10 10 9 10 10 10 10 11 12 12 13 12 12 13 11 11 11 11 12 12 10 9 9 10 10 11 11 11 12
-1 -1 -1 -1 -1 -0 -0 -0 -0 -1 -1 -1 -0 0 2 3 4 2 7 4 5 6 8 12 10 11 11 10 10 11 11 12 12 12 13 13 13 12 12 13 12 10 10 9 9 9 9 10 10 10 11 11 12 12
-1 -0 -1 -1 -1 -1 -1 -1 -1 -1 -0 -0 0 0 1 1 3 7 8 6 5 5 8 11 11 10 11 10 10 11 10 11 11 12 13 13 13 12 12 13 13 13 10 10 11 11 12 11 12 12 12 14 15 15
-1 -1 -1 -1 -1 -1 -1 -1 -1 -1 -0 0 1 1 1 2 3 6 5 5 5 7 8 12 13 11 10 11 11 11 12 10 12 12 12 13 13 12 15 17 18 19 14 14 14 11 11 12 13 14 14 15 16 16
1 1 1 1 0 0 1 1 -0 -0 1 1 3 3 3 6 7 7 4 6 6 7 12 12 14 14 10 11 11 11 12 14 12 13 14 13 14 16 20 20 21 22 21 20 16 14 14 15 15 15 15 15 16 17
1 1 1 1 1 1 2 2 2 2 3 3 4 5 8 7 5 5 7 8 11 11 12 14 15 14 12 12 12 12 13 15 16 16 14 14 19 21 22 23 23 24 23 21 15 16 16 17 18 19 20 19 19 19
2 2 1 1 2 2 2 2 3 4 4 5 7 8 6 6 6 9 13 13 14 14 16 16 15 14 11 13 14 14 15 16 16 16 16 16 17 21 23 25 25 25 24 24 22 21 20 18 19 20 22 23 23 24
1 2 2 2 2 2 2 2 3 6 8 7 7 9 7 10 10 13 17 15 16 18 17 18 15 14 12 12 12 14 15 16 18 17 16 18 22 26 26 27 27 27 27 27 26 25 25 25 23 23 24 26 26 27
2 2 2 2 2 3 3 3 4 5 7 6 9 13 12 14 17 17 18 16 16 19 19 19 16 13 11 11 14 14 15 17 17 17 17 21 26 28 29 29 28 29 28 28 28 27 27 28 28 27 28 28 27 28
2 2 2 2 3 3 4 4 5 7 9 14 14 19 18 17 19 19 19 19 19 19 20 19 18 14 12 13 13 15 17 17 18 20 19 24 29 30 30 30 30 30 30 30 30 29 29 28 29 30 31 31 30 30
2 2 2 3 3 3 4 6 7 12 12 15 14 20 20 21 21 21 22 21 20 20 20 17 16 15 12 14 15 16 18 18 17 18 23 27 30 30 31 31 32 32 32 31 31 31 30 30 30 30 32 31 31 31
3 3 4 2 3 4 5 9 12 13 19 18 21 19 21 19 20 20 22 21 20 21 20 19 16 14 14 14 16 16 17 18 18 24 27 28 30 31 31 32 32 32 32 32 31 31 30 31 32 31 31 31 32 31
4 7 3 3 4 7 7 12 14 22 20 19 23 27 25 22 22 22 24 22 21 21 17 18 15 16 14 15 16 18 17 22 25 27 27 29 29 30 31 31 31 31 31 31 31 30 31 30 31 30 28 29 31 30
7 5 3 3 6 9 15 16 17 18 23 23 21 23 24 25 23 21 22 21 22 21 19 19 19 16 16 17 16 22 24 26 27 27 26 28 29 31 31 31 31 31 31 31 31 31 31 30 28 27 29 29 29 27
5 5 4 5 8 13 15 17 17 21 24 24 23 23 23 23 23 23 23 22 22 21 22 19 17 17 18 22 23 25 26 27 27 27 27 29 30 30 31 31 31 31 31 31 30 30 30 30 30 30 29 29 29 28
6 5 5 7 8 12 16 19 17 18 21 22 22 21 22 21 23 23 23 23 22 21 20 20 22 23 24 25 26 27 27 28 29 28 26 27 28 32 30 30 30 30 31 30 30 31 29 28 27 28 29 29 30 28
9 9 8 11 14 16 19 19 19 21 21 20 22 22 21 22 23 24 24 25 21 24 21 24 25 25 27 28 28 29 29 28 28 28 27 28 28 29 29 29 30 30 30 29 28 27 30 28 27 28 29 29 28 28
13 10 14 13 15 17 20 21 20 20 19 21 20 21 22 21 23 25 28 22 22 23 24 25 25 26 27 28 28 31 29 32 30 30 30 31 29 27 27 27 29 29 28 28 27 28 27 26 27 28 29 28 28 27
15 15 18 19 19 20 24 21 21 24 21 22 21 20 22 23 25 27 22 23 22 24 26 26 27 30 29 29 33 32 32 32 30 28 27 28 27 27 28 28 28 29 29 26 26 27 27 27 27 28 27 27 27 26
20 27 26 26 24 26 25 26 25 25 24 25 24 22 24 28 30 22 19 20 21 26 27 28 29 26 27 31 28 25 26 30 29 27 27 29 28 26 25 26 26 26 27 26 26 26 26 26 27 27 27 27 27 28
22 30 29 29 28 26 27 26 27 25 27 31 28 26 27 34 24 22 21 19 22 23 24 29 29 28 26 25 24 25 31 29 27 26 24 26 26 26 26 26 26 25 25 27 28 27 27 27 27 28 28 28 28 28
30 37 32 32 31 28 31 28 30 31 32 30 28 30 33 28 26 22 20 20 22 23 24 25 25 25 26 28 26 25 25 29 30 29 26 26 28 28 27 27 26 24 24 26 26 26 26 27 27 28 28 28 28 29
30 33 37 41 37 36 34 38 39 34 32 30 28 30 29 28 25 21 20 23 22 22 24 24 24 25 24 23 25 26 27 30 29 26 27 28 28 27 27 28 27 25 25 28 28 28 28 28 28 28 28 27 27 28
37 38 34 38 38 40 35 35 33 32 28 34 34 31 29 25 23 20 21 24 26 29 29 29 29 28 27 26 26 27 28 29 32 32 32 30 30 28 28 28 27 23 25 26 27 27 29 29 28 28 28 28 27 26
37 44 43 41 41 38 35 31 30 31 35 33 30 28 27 26 26 26 25 30 35 33 30 27 25 31 32 32 32 31 31 31 32 31 28 25 22 22 27 28 28 28 28 28 26 24 28 29 28 28 28 28 27 26
40 48 38 41 39 32 33 38 36 43 45 43 46 40 36 35 33 33 34 34 33 30 27 28 30 32 30 30 27 28 30 31 31 28 26 24 22 24 27 27 27 27 27 28 28 27 24 24 24 25 25 25 26 26
47 45 39 38 35 36 43 49 51 51 49 47 50 45 39 39 40 35 35 32 30 32 33 30 29 31 32 31 31 30 26 26 30 30 28 26 25 25 24 24 24 25 26 27 28 28 28 28 28 29 28 28 27 27
43 41 39 36 34 44 47 44 44 43 44 45 42 49 45 42 36 28 30 35 34 32 30 30 29 26 27 27 26 26 25 24 24 26 30 28 27 26 25 24 24 25 26 26 27 27 28 29 29 29 28 28 27 27
44 46 45 42 37 37 41 43 39 39 42 40 39 41 40 38 33 27 30 32 26 24 22 23 24 25 27 28 27 26 25 25 25 22 21 21 23 23 23 23 24 24 25 26 26 26 27 27 28 28 28 28 28 27

GFSWCAN_con_lsi_123.txt.gz
Lid_Strength_Index
2 2 2 1 2 0 0 1 -0 -0 -0 -0 -0 0 0 0 1 5 7 5 8 10 11 10 11 13 13 12 13 13 12 13 13 14 15 15 17 18 19 16 15 16 17 17 18 21 19 14 13 14 13 14 14 13
2 2 2 1 1 0 -0 0 0 -0 -0 -0 -0 -0 0 0 1 3 8 5 5 10 10 9 10 10 12 13 14 12 13 13 11 14 14 15 20 18 19 18 14 16 14 16 15 15 14 14 13 13 12 13 13 13
1 2 1 -0 -0 -0 -0 -0 -0 0 -0 -0 -0 0 0 0 1 3 7 7 7 9 10 11 12 10 9 11 11 13 12 11 11 10 14 15 16 17 20 21 15 15 13 16 15 14 14 13 14 13 12 12 12 12
2 1 0 -0 -0 -0 -0 -0 -0 -0 -0 -0 0 0 1 1 2 4 8 6 6 9 14 12 8 11 9 9 9 9 10 9 10 11 14 15 16 15 17 16 15 15 14 17 17 15 14 14 13 11 12 12 13 13
0 -0 -0 -0 -0 -0 -0 -0 -0 0 0 1 1 1 1 1 2 5 7 7 7 9 14 13 11 10 10 9 10 10 10 11 12 13 14 16 17 17 17 16 17 15 14 14 16 13 12 12 12 12 13 13 13 13
-0 -0 -0 -0 -0 -1 -0 -0 -0 0 0 1 1 1 1 3 3 7 11 7 6 8 11 16 11 12 12 10 10 11 12 12 12 13 14 15 14 15 16 18 16 17 17 16 15 14 13 13 12 13 13 14 14 14
-0 -1 -1 -1 -1 -0 -0 -0 -0 -0 0 1 1 1 2 3 7 11 12 8 5 7 12 15 15 12 12 11 11 12 11 13 12 13 14 14 15 14 14 17 20 20 20 18 18 16 14 14 14 14 15 16 17 18
0 1 1 1 1 0 0 1 1 2 2 2 2 2 2 2 5 10 8 5 6 10 12 17 16 14 12 14 14 12 13 12 14 13 14 15 14 14 19 22 23 24 21 19 21 19 17 16 16 17 17 17 18 19
2 2 2 2 2 2 2 2 2 2 3 2 2 2 7 9 13 12 5 5 9 12 17 18 20 19 12 13 13 13 12 15 13 16 16 14 19 26 26 26 27 27 26 26 23 20 20 20 20 20 19 20 20 21
2 2 3 3 2 2 2 2 2 2 3 3 8 13 16 14 5 6 13 15 15 18 18 20 17 17 14 15 16 15 14 17 18 17 15 18 25 24 25 27 27 27 26 26 23 21 24 24 24 24 24 23 23 23
2 2 2 2 2 3 3 2 3 4 5 11 17 18 13 6 14 20 22 20 21 22 21 22 17 18 13 18 17 15 17 17 18 18 17 18 23 25 26 27 28 28 27 28 26 26 25 24 25 26 27 28 27 27
2 2 2 2 2 3 3 3 3 9 15 13 14 14 16 18 21 21 29 24 24 26 24 26 21 18 17 14 18 18 20 18 20 21 18 20 26 28 28 28 28 29 29 28 28 28 28 28 27 27 28 29 29 28
2 2 2 2 2 2 3 4 4 5 8 15 18 21 19 23 23 28 30 27 28 27 26 25 24 20 18 15 19 20 23 24 23 20 22 26 27 28 29 29 29 29 29 29 29 29 28 29 29 29 29 28 28 28
2 2 2 2 2 3 3 4 5 8 15 20 24 25 27 31 30 31 30 30 24 23 25 24 28 21 21 18 20 21 22 23 25 26 25 28 30 30 29 30 30 31 31 31 31 30 30 29 30 30 30 29 28 29
3 3 3 3 3 4 4 6 7 17 21 25 24 29 29 27 27 27 28 28 26 25 24 27 24 18 20 21 22 23 23 25 24 24 28 30 30 31 31 31 32 32 32 31 31 31 31 31 30 30 31 30 29 29
3 6 7 3 3 5 5 13 19 22 26 27 28 27 28 29 30 32 36 33 26 24 25 26 28 24 21 21 22 25 26 25 24 29 30 30 30 31 32 32 32 31 31 31 31 31 30 31 31 31 29 30 30 30
6 13 4 3 4 7 8 20 22 28 29 30 28 35 34 34 31 33 34 30 24 30 30 30 25 25 21 21 22 25 25 28 32 33 32 30 30 31 32 32 32 32 32 32 31 30 30 30 29 28 28 29 30 29
17 11 4 4 9 13 22 23 25 27 31 32 29 31 34 35 34 33 34 31 29 31 31 29 25 22 24 23 26 29 31 34 33 33 31 32 34 33 32 32 31 32 32 32 32 32 31 31 30 29 30 30 30 29
12 8 6 6 11 20 22 23 24 29 32 35 32 30 33 33 32 31 34 31 31 28 30 30 29 30 28 28 30 33 35 35 35 31 31 33 33 35 35 34 33 33 32 32 32 31 31 31 31 30 30 30 30 30
8 8 7 9 12 20 24 25 24 26 30 28 33 32 31 31 32 35 36 33 33 33 30 30 31 32 31 33 34 34 34 34 37 35 34 33 34 36 35 35 32 33 33 34 33 30 31 30 29 28 29 29 30 29
14 14 12 17 22 24 27 29 28 29 30 28 32 31 29 32 34 34 34 35 31 33 30 34 35 34 38 38 38 38 35 34 34 34 35 35 35 36 33 34 37 39 38 37 35 32 33 32 30 31 32 31 32 31
22 13 22 18 22 27 27 29 28 28 28 31 30 33 33 32 34 35 36 32 32 30 32 33 35 37 37 36 35 39 37 40 40 38 34 36 35 36 36 37 38 36 35 33 35 33 31 31 33 35 37 33 35 35
19 19 24 26 26 28 31 30 30 32 30 30 33 31 31 35 35 32 30 32 30 33 36 36 37 40 38 39 41 39 40 39 37 36 35 34 34 33 33 32 35 34 32 30 33 32 31 31 32 31 33 33 36 33
23 31 31 32 31 33 35 34 34 34 36 35 36 33 33 39 35 32 30 34 31 38 38 38 41 38 39 40 40 38 37 37 38 40 38 39 34 31 33 31 32 32 30 28 31 31 31 31 31 32 31 33 34 34
26 33 34 35 37 34 36 36 37 34 37 41 36 35 36 43 35 35 30 29 35 37 38 43 43 40 36 40 38 37 41 36 36 36 35 35 35 37 33 31 30 29 30 33 32 33 31 34 35 34 33 34 32 32
33 41 37 43 38 34 40 35 39 39 43 39 39 41 45 39 34 30 30 30 33 34 35 34 33 39 38 34 35 37 33 37 39 38 34 36 34 33 34 34 30 27 31 30 32 35 33 33 34 34 33 33 32 32
31 36 44 48 45 44 41 45 45 42 39 35 39 40 39 33 34 28 30 32 31 32 33 34 32 31 29 31 34 35 38 37 33 32 37 39 35 33 31 30 29 27 35 34 33 33 31 30 31 31 31 30 30 30
42 45 35 42 44 49 41 45 42 37 37 42 40 35 34 31 27 28 28 33 38 41 40 40 38 35 32 30 33 36 36 41 40 38 34 30 30 30 30 29 28 24 26 28 30 30 31 30 29 29 29 29 28 27
41 49 45 40 45 45 41 36 37 40 42 41 35 34 32 33 35 36 34 37 45 41 37 31 31 42 39 38 36 34 34 38 37 34 33 28 28 25 30 30 29 29 29 29 26 23 25 27 27 27 27 27 26 25
40 48 42 45 40 34 37 44 45 52 53 49 50 43 40 39 37 40 42 43 38 32 30 34 37 37 33 37 31 32 35 34 32 30 31 27 25 30 32 28 26 25 25 25 26 25 22 22 23 24 24 24 24 24
44 45 39 39 37 41 45 52 56 54 53 55 56 49 43 43 41 40 38 36 33 42 39 33 32 35 34 32 36 37 28 32 31 30 29 27 27 26 25 24 23 22 22 22 23 24 24 25 25 25 25 26 25 25
40 40 39 35 33 43 48 44 44 44 45 49 48 54 48 46 39 32 37 40 41 38 34 35 35 29 31 30 34 31 27 27 28 27 28 26 25 24 23 23 23 23 24 24 24 24 25 25 25 25 25 25 25 25
39 39 39 38 35 34 38 40 38 39 40 40 40 43 44 41 34 29 34 35 32 33 32 32 31 32 33 32 30 29 28 28 25 21 20 19 19 19 19 20 21 21 22 22 22 23 23 24 25 25 25 25 25 25

GFSWCAN_con_lsi_129.txt.gz
Lid_Strength_Index
-0 -0 -0 -0 -0 -0 -0 -0 -0 -0 -0 -0 -0 -0 0 1 2 5 7 6 8 10 8 7 7 8 9 9 11 10 10 11 11 13 14 14 15 15 16 14 14 15 16 16 18 20 18 14 12 13 11 13 14 10
-0 -0 -0 -0 -0 -0 -0 -0 -0 -0 -0 -0 -0 -0 0 1 2 4 8 6 6 10 9 6 7 6 8 9 11 11 11 11 10 12 12 13 15 16 16 17 13 15 13 16 15 14 14 11 12 13 12 12 14 13
-0 -0 1 0 0 0 -0 -0 -0 -0 -0 -0 -0 -0 0 1 2 4 8 8 8 9 9 8 9 6 6 8 8 13 11 9 11 10 12 13 15 15 17 18 15 14 13 14 14 15 15 13 14 13 13 14 14 14
-1 -1 -0 0 1 1 0 0 0 0 0 0 0 0 -0 1 2 5 9 8 8 11 15 12 6 7 6 6 8 9 11 10 11 11 13 13 15 15 17 16 15 16 14 17 17 15 15 15 14 14 13 14 14 14
0 0 0 1 0 1 1 1 1 1 1 1 1 1 1 2 3 6 8 8 7 10 14 14 9 7 7 7 8 9 11 13 12 13 13 14 14 16 16 16 21 20 21 17 17 19 20 15 15 16 13 13 14 14
1 1 1 1 2 2 2 2 2 2 2 2 1 1 2 2 4 9 13 9 7 8 12 15 9 11 9 9 9 10 10 12 12 12 13 13 13 15 17 22 24 23 23 21 22 21 21 18 16 17 16 15 15 15
1 2 2 2 2 2 2 2 2 2 2 2 2 2 2 2 8 12 14 10 6 8 13 15 15 10 10 11 10 10 10 12 12 13 14 14 14 15 22 26 26 26 26 23 23 22 19 19 20 19 18 17 18 20
2 2 2 2 3 3 2 3 3 3 3 2 3 3 3 4 7 13 10 7 8 12 15 19 16 14 11 13 13 11 12 12 13 14 14 16 20 24 30 28 29 28 27 23 26 24 22 21 21 22 21 20 21 21
2 2 3 3 3 3 3 3 3 3 3 3 4 4 9 13 16 16 6 8 12 14 20 22 23 20 13 14 13 13 12 15 13 17 17 19 27 32 30 30 31 31 30 30 28 23 25 25 24 25 25 25 23 24
3 3 3 3 3 3 3 3 3 3 4 5 9 13 16 16 8 9 16 18 19 23 22 24 24 22 14 15 17 15 13 16 18 17 16 25 29 27 28 29 30 31 30 30 30 30 29 28 27 27 28 28 27 26
3 3 3 3 3 3 4 3 3 5 6 15 19 19 14 10 15 21 24 23 26 24 27 28 23 22 16 18 19 15 18 17 18 18 19 24 27 27 28 29 29 30 30 30 30 29 29 29 29 28 28 29 29 28
3 3 3 3 3 3 4 4 4 11 17 14 15 17 19 21 22 21 32 28 27 28 29 30 24 21 20 14 19 18 20 18 19 20 19 25 27 29 30 30 30 31 31 31 30 30 30 30 30 29 30 29 29 28
3 4 3 3 3 4 4 5 5 7 10 18 20 23 20 26 23 28 31 28 29 30 30 29 28 24 22 16 20 20 20 21 20 22 25 26 27 29 30 30 31 31 31 31 31 30 30 30 30 31 31 30 28 28
3 4 3 3 3 4 5 6 7 12 19 24 25 26 27 30 32 35 33 33 27 25 27 26 32 27 24 19 20 22 21 22 23 24 25 27 29 30 30 31 31 32 32 32 32 31 31 31 31 30 31 30 29 29
4 5 4 4 3 4 5 8 10 21 23 27 25 30 31 30 31 33 34 31 27 27 27 29 28 21 26 23 22 23 22 25 24 24 26 28 29 30 31 31 32 33 33 33 32 32 32 31 31 30 30 30 30 29
5 8 9 4 5 6 7 15 22 25 28 28 29 29 34 32 32 35 38 35 29 25 27 29 32 27 27 26 24 26 25 24 23 27 27 28 29 30 31 32 32 32 33 33 33 32 32 31 31 31 29 30 30 30
9 17 7 6 7 10 10 23 24 30 29 29 31 41 37 37 32 36 36 32 26 32 31 33 26 26 26 28 27 26 23 24 27 29 29 30 30 30 31 32 33 34 34 34 34 33 33 32 31 29 31 30 30 29
20 15 8 8 13 16 25 27 28 27 31 33 29 32 38 36 36 36 37 34 30 32 34 30 26 28 28 26 27 28 29 30 30 30 29 30 31 32 33 34 33 33 33 33 33 34 33 33 33 32 32 31 30 29
15 12 9 10 15 24 24 25 26 29 34 38 35 33 35 35 34 34 37 36 35 31 31 32 30 29 25 24 26 32 36 37 33 30 31 32 32 33 33 33 33 34 34 34 34 33 33 33 32 32 31 31 31 30
11 11 10 12 16 23 26 28 28 27 31 30 36 33 34 32 35 41 41 38 36 35 30 29 29 30 29 31 33 33 34 35 37 35 33 32 33 36 33 34 32 33 33 33 33 31 33 32 32 32 33 32 31 30
17 17 15 22 26 28 30 33 31 33 33 31 37 35 32 35 37 36 37 38 33 32 28 33 34 34 39 40 40 39 35 35 36 34 34 34 35 37 34 35 37 38 36 34 33 31 32 32 31 33 34 32 32 31
24 16 25 21 26 30 30 34 31 32 32 35 34 37 36 33 36 37 39 35 32 28 32 33 36 38 38 36 37 38 38 40 42 40 37 38 35 34 34 39 37 34 34 35 35 34 32 32 35 35 36 33 33 32
20 21 25 27 27 29 32 34 32 36 30 32 38 33 33 39 39 37 33 33 31 35 40 39 40 44 40 43 46 43 43 40 39 39 39 38 37 39 39 37 39 39 37 32 36 36 34 33 33 33 35 36 39 37
23 30 30 33 32 33 37 37 37 38 38 37 37 33 35 41 39 35 30 34 31 42 41 40 44 38 40 42 40 39 40 43 42 42 44 44 39 36 39 36 38 37 34 32 34 35 35 34 33 35 35 36 36 36
24 30 32 32 38 33 35 35 37 34 35 44 36 35 36 46 36 36 31 28 36 38 41 49 47 41 35 39 38 38 44 39 38 38 36 38 41 38 34 35 33 32 34 38 36 36 33 37 37 37 36 38 36 34
29 37 33 38 35 31 36 31 35 36 42 37 38 43 48 39 34 30 30 30 32 32 35 34 32 39 39 36 35 36 34 39 41 38 34 37 36 36 35 33 31 27 35 35 36 36 32 31 33 33 32 32 31 32
27 32 41 44 42 39 38 40 41 38 35 33 36 37 36 33 33 28 31 33 30 33 35 34 30 29 30 34 35 36 42 37 33 32 38 39 36 34 32 31 31 29 37 38 38 37 33 31 30 29 29 28 28 29
38 40 30 38 36 39 34 36 36 33 30 35 34 30 30 28 25 27 29 33 38 42 41 42 41 38 37 36 37 37 38 43 40 37 34 32 32 32 33 32 30 25 27 28 28 27 28 29 28 28 28 28 27 27
38 41 37 33 37 37 35 31 30 32 34 34 30 28 27 28 32 33 32 36 45 39 33 33 32 43 41 41 40 40 39 38 33 31 32 30 31 27 37 36 33 32 31 30 27 23 23 24 23 23 24 25 25 24
37 41 33 34 33 30 32 37 37 40 41 40 42 39 35 33 33 36 36 38 35 32 34 36 38 36 35 37 36 33 40 38 35 32 32 30 29 31 27 28 28 28 28 28 26 26 23 24 25 30 30 29 28 28
38 38 34 33 31 33 40 43 44 44 43 43 44 44 40 38 36 34 35 34 34 34 34 35 35 39 39 39 38 36 30 37 37 34 33 30 29 30 30 29 28 28 28 27 27 27 27 27 27 27 27 27 26 26
36 36 35 33 31 39 43 41 41 41 40 42 40 43 40 37 33 28 32 33 32 29 29 33 35 31 34 33 35 36 31 34 33 30 30 30 30 28 27 26 25 28 29 28 28 28 28 29 28 28 27 27 27 27
39 37 37 36 35 34 37 38 38 39 41 40 38 39 35 33 30 26 28 31 29 27 27 27 30 32 31 33 34 34 32 34 33 25 24 22 22 23 25 31 34 36 34 33 32 31 31 31 31 31 30 30 30 29

GFSWCAN_con_lsi_135.txt.gz
Lid_Strength_Index
-0 -0 -0 -0 -0 -0 -0 0 0 0 0 1 1 1 1 2 2 6 9 8 10 11 11 10 10 10 11 13 16 13 11 11 10 15 18 18 20 16 15 13 13 14 15 16 15 17 18 11 11 12 9 7 10 7
-0 0 -0 -0 -0 -0 -0 -0 -0 -0 0 1 1 1 1 2 2 5 9 8 7 11 11 7 8 9 10 10 11 10 13 9 9 11 11 12 13 13 13 16 11 14 11 13 14 14 11 11 10 14 14 13 12 11
0 0 0 0 -0 -1 -0 -0 -0 -0 -0 0 0 1 1 1 2 5 9 9 10 10 10 9 9 8 6 8 8 13 15 9 9 7 9 11 13 12 17 15 12 11 14 11 11 10 15 13 14 16 17 17 14 13
1 1 1 1 1 0 0 0 0 -0 -0 0 1 1 2 2 3 5 10 10 10 14 16 13 6 8 6 6 7 8 9 7 7 8 11 12 16 11 14 12 12 19 19 19 13 16 17 16 18 18 19 18 17 16
2 2 2 2 2 2 2 1 1 1 0 1 1 2 2 3 4 7 9 9 9 10 16 17 9 8 6 6 6 6 7 8 10 11 13 15 14 11 12 13 22 23 25 24 20 21 23 21 19 20 20 20 19 18
3 3 3 3 3 3 3 2 2 2 1 1 1 1 2 3 6 9 13 10 8 10 14 18 12 11 7 7 7 8 8 8 9 11 14 11 13 13 14 22 24 24 25 25 26 23 24 23 21 20 22 21 20 18
2 3 3 3 3 3 3 3 3 2 2 2 2 3 3 4 8 13 14 11 6 9 14 18 20 12 12 12 12 8 7 7 8 10 10 12 18 18 23 24 25 26 26 27 24 25 23 23 25 22 23 22 21 21
2 2 3 3 3 3 4 4 4 3 3 3 3 3 4 4 7 13 10 10 9 15 17 22 20 17 14 16 17 12 12 11 11 11 12 18 21 22 27 26 27 27 28 27 28 28 25 26 26 26 25 25 24 24
3 2 2 3 3 3 3 4 4 4 4 3 4 6 10 15 17 17 7 10 14 15 23 26 25 21 16 17 15 16 13 16 10 13 16 19 24 27 27 28 28 29 31 30 30 28 28 28 29 29 28 28 27 27
3 3 3 2 3 3 4 4 3 4 5 5 10 14 18 19 9 10 17 18 20 24 24 29 30 25 17 19 23 20 19 19 19 15 17 23 25 25 26 27 28 29 30 30 32 32 31 31 31 31 30 29 29 28
4 4 4 3 3 4 4 4 4 5 7 15 20 20 16 11 16 22 25 23 27 26 30 33 30 29 20 23 27 15 23 23 21 17 17 22 25 25 26 28 28 28 29 30 31 31 30 31 31 32 31 30 30 29
4 4 4 4 4 4 5 5 5 12 18 15 16 17 20 21 22 22 33 30 28 29 32 32 28 26 26 18 23 22 24 23 23 20 19 23 24 26 27 28 29 29 31 31 31 31 31 31 31 31 31 31 30 29
5 5 6 5 4 5 5 6 6 7 11 17 19 22 20 24 22 26 27 28 29 31 30 31 29 28 26 21 26 24 25 24 24 24 23 23 24 25 27 28 29 28 30 31 31 31 31 31 30 30 31 30 29 29
6 7 7 6 6 6 7 7 8 13 19 23 24 24 26 29 30 34 32 33 29 27 32 29 35 30 30 25 23 24 24 25 29 29 25 24 25 26 26 27 28 29 30 31 32 32 32 32 31 29 29 30 30 30
7 8 8 7 6 8 9 10 12 22 23 26 24 29 30 32 35 37 39 36 31 30 29 33 32 24 30 26 27 27 25 30 27 25 25 25 25 26 27 28 29 29 30 30 31 32 32 32 32 31 29 30 30 29
8 11 12 7 7 9 11 19 24 26 29 28 29 29 37 33 33 37 41 37 31 27 29 30 33 29 29 29 26 30 27 27 24 29 29 27 27 27 28 29 30 30 31 31 31 32 32 32 33 32 30 31 31 30
11 20 9 8 9 13 13 25 26 32 30 29 31 45 37 36 30 35 37 34 27 33 31 34 26 25 28 30 28 28 27 26 26 27 29 28 29 29 29 30 30 31 32 32 32 32 32 32 32 31 33 32 32 31
21 16 9 9 15 19 29 30 29 29 32 36 29 33 41 38 37 38 40 35 32 34 34 29 27 28 28 27 28 27 29 30 28 29 28 29 30 32 32 33 31 31 32 32 33 34 34 33 33 33 33 33 33 32
16 14 10 11 16 26 26 28 29 31 36 41 39 36 39 39 39 37 39 39 38 33 32 32 30 28 26 28 27 31 35 35 30 30 32 35 35 36 35 34 32 33 33 33 34 33 33 35 35 35 35 34 35 33
12 12 11 14 17 24 27 29 31 29 32 33 40 37 37 36 39 45 45 41 38 37 32 31 27 27 26 28 30 30 32 33 35 33 32 32 35 39 37 38 35 36 36 36 35 32 34 33 35 36 39 38 38 35
17 17 16 22 27 29 31 35 32 36 37 33 41 38 34 39 41 40 40 42 37 32 29 29 31 33 40 41 41 39 35 33 33 33 33 34 35 38 38 40 43 43 41 39 38 34 35 36 34 35 37 36 39 39
23 15 25 22 26 30 32 36 33 35 34 38 37 42 38 34 38 41 43 39 34 28 30 32 35 37 38 36 38 41 39 41 44 40 37 38 35 35 36 40 39 38 40 39 40 39 37 35 36 36 38 35 34 35
19 20 25 26 25 28 33 36 33 37 31 32 40 33 34 40 41 39 35 34 31 38 43 41 43 48 41 46 49 47 44 40 39 39 40 39 39 39 39 38 40 40 36 34 40 39 37 34 35 35 36 36 39 35
22 29 28 30 30 31 36 35 37 36 36 35 34 31 33 40 40 35 30 34 31 43 41 42 45 37 39 40 38 39 40 41 42 43 41 42 39 37 39 38 41 38 36 36 38 39 39 38 35 36 37 40 37 38
21 28 28 30 35 31 33 33 33 31 32 40 34 32 34 44 34 34 29 26 32 36 39 44 45 40 32 36 39 38 44 39 36 34 35 37 39 38 36 38 37 36 38 38 36 38 35 36 36 37 36 39 37 35
26 34 29 33 32 28 33 29 33 34 38 35 35 38 41 35 32 29 29 28 30 31 33 33 31 35 35 33 32 33 32 39 39 36 33 37 36 34 35 35 35 31 39 39 37 36 35 36 37 36 34 34 33 36
26 30 37 41 37 35 35 36 36 35 34 31 32 34 33 30 30 26 30 31 30 31 32 32 31 29 27 30 31 33 38 35 33 33 39 38 35 35 34 34 34 32 39 39 39 38 37 35 34 34 33 32 33 33
33 36 26 34 36 37 32 34 33 32 31 36 35 31 29 26 24 26 28 29 32 31 30 30 32 30 29 30 31 32 34 38 36 35 40 39 40 39 39 36 33 25 31 33 32 32 34 33 32 31 30 30 28 30
35 39 35 33 35 34 32 29 29 31 35 36 32 29 26 28 32 34 31 32 33 31 29 25 24 29 28 28 30 32 32 31 29 28 30 31 33 32 39 40 37 35 35 36 31 25 26 26 27 30 32 32 30 31
35 39 33 34 32 30 32 34 35 39 38 39 40 36 34 33 34 37 37 38 36 34 32 28 26 27 25 26 26 27 32 34 33 29 29 29 31 34 38 38 36 35 36 39 33 32 28 31 32 36 34 33 32 31
38 38 34 34 32 33 36 40 40 40 41 43 44 42 40 41 38 39 38 39 39 38 33 28 26 25 25 25 26 26 27 33 34 33 34 36 37 39 37 34 33 36 39 39 38 39 36 36 38 38 36 36 35 33
35 35 33 30 31 38 40 40 41 41 42 43 43 50 44 44 40 33 35 38 35 30 25 23 22 24 25 25 27 29 28 31 30 30 33 34 36 35 33 34 38 41 39 37 37 37 38 39 38 37 37 36 35 35
37 36 37 36 35 34 37 39 39 39 42 44 44 45 46 41 35 31 31 32 29 25 23 22 24 25 25 26 27 28 28 31 33 25 24 24 25 26 36 39 41 40 38 37 37 37 37 37 37 36 36 36 36 35

GFSWCAN_con_lsi_138.txt.gz
Lid_Strength_Index
-0 -0 -0 0 -0 -0 -0 0 1 1 2 2 2 2 2 3 4 7 9 8 8 10 10 9 9 11 10 9 11 11 9 10 10 12 12 13 14 12 13 12 12 13 14 15 14 16 17 8 8 11 13 12 10 12
0 0 -0 0 -0 0 0 0 1 1 1 2 2 2 2 3 3 5 8 8 7 10 10 8 8 8 9 9 9 10 10 10 8 10 10 11 12 11 12 15 9 13 10 11 12 12 7 9 12 14 15 16 15 15
1 1 1 1 0 0 0 0 1 2 2 2 2 2 3 3 4 6 9 10 8 10 9 9 10 8 6 7 7 10 10 7 7 7 8 10 12 10 13 13 11 9 11 11 10 9 8 13 13 15 17 17 17 16
2 2 2 2 1 1 1 1 1 1 1 2 2 3 3 4 5 6 10 9 9 10 12 12 7 8 6 6 6 7 8 7 7 7 10 11 12 9 11 10 11 14 15 15 14 11 16 12 16 18 18 17 17 18
2 2 3 3 2 2 2 1 1 1 1 1 2 2 3 4 5 7 8 9 8 8 12 11 8 8 6 6 7 7 7 8 9 11 11 12 10 11 9 10 12 20 22 18 14 20 22 20 18 19 19 19 19 20
2 2 3 3 3 3 3 2 2 1 1 2 2 3 3 4 6 7 8 8 7 8 9 12 11 10 9 7 7 8 8 8 8 9 10 9 13 12 13 18 22 21 21 21 22 21 23 22 20 18 21 20 20 21
2 2 2 3 3 3 3 3 3 2 2 2 2 3 4 5 8 11 11 9 7 8 9 12 13 12 12 10 8 8 8 8 8 8 9 12 16 15 18 18 22 22 23 23 22 23 23 21 24 23 22 22 21 22
3 3 3 3 3 4 4 4 4 4 3 3 3 4 4 5 7 11 9 10 9 12 12 15 15 13 13 12 12 11 10 8 8 8 12 15 17 18 21 23 23 24 25 24 25 25 25 24 24 25 24 24 25 24
4 4 4 4 4 4 4 4 4 4 4 3 5 6 9 13 13 12 7 9 13 11 16 18 16 15 15 15 14 12 11 12 9 12 15 15 19 20 23 25 25 26 28 28 27 26 26 27 27 27 27 27 28 27
4 4 4 4 4 5 5 5 5 5 4 6 9 12 15 14 9 10 14 14 17 21 21 24 26 18 17 17 16 15 15 14 14 15 15 18 20 22 23 24 25 26 27 28 30 29 29 30 30 29 29 28 28 28
5 5 5 5 4 5 5 5 5 6 8 13 15 15 13 12 13 18 20 19 23 21 25 27 25 22 18 18 19 15 17 17 17 16 16 20 20 21 22 24 24 25 27 28 28 28 28 29 29 30 30 29 29 28
5 5 6 5 5 6 6 6 6 12 16 14 14 15 16 19 18 19 27 25 23 23 26 24 24 23 22 19 19 18 17 18 18 18 17 20 20 22 23 24 25 25 27 28 28 29 29 29 29 29 29 30 30 29
6 7 7 6 6 7 7 7 7 7 11 15 17 19 17 21 20 22 25 23 23 27 28 28 23 25 22 19 21 20 19 18 20 19 19 20 21 22 23 24 25 25 26 27 28 28 28 29 29 29 30 30 30 29
7 8 7 7 7 7 8 9 10 13 16 19 20 21 23 23 25 26 24 25 25 25 27 26 27 25 24 21 20 18 20 20 21 21 20 21 23 24 23 23 25 26 27 27 28 28 28 29 29 28 28 29 29 29
7 9 8 8 7 9 10 11 13 22 21 23 20 24 26 28 30 31 34 30 27 27 25 26 26 23 23 21 22 21 20 21 21 19 19 21 23 23 24 24 25 26 27 27 28 29 29 29 29 28 27 28 29 29
8 11 12 7 8 10 11 18 23 25 28 25 26 26 33 27 26 30 31 28 28 25 27 27 25 22 23 23 21 21 21 21 19 20 21 23 25 25 25 26 26 26 27 27 27 28 29 29 30 29 28 28 29 29
11 18 9 8 9 13 13 23 24 30 28 27 29 40 31 30 24 27 29 27 26 27 23 26 23 21 24 23 22 23 20 18 20 22 23 24 24 25 26 27 27 28 28 28 28 28 29 29 29 29 31 30 30 29
20 16 9 9 15 18 27 28 27 26 30 32 27 30 35 34 30 32 34 32 29 28 29 24 23 24 22 23 20 20 21 23 23 22 23 24 25 26 27 27 28 29 29 30 30 30 30 30 29 30 31 31 31 30
15 14 10 11 16 24 24 26 27 28 34 38 36 34 34 34 36 36 35 35 34 32 28 28 25 22 20 21 19 21 24 24 22 23 25 28 28 29 30 31 31 31 32 32 30 30 29 31 30 29 30 30 30 30
11 11 12 14 17 22 25 28 30 27 30 32 36 34 33 32 36 39 38 36 32 31 30 28 23 21 20 20 22 22 24 25 25 24 24 25 28 32 29 30 28 31 32 32 31 30 29 28 29 30 31 31 31 30
16 16 15 22 26 29 30 32 31 33 34 31 38 34 31 35 35 35 35 38 32 29 25 25 24 27 34 34 33 30 27 27 24 23 23 24 28 30 29 31 34 33 31 31 30 29 30 29 30 30 31 30 30 31
22 15 23 20 24 29 31 34 31 33 32 36 34 37 34 32 35 37 40 33 30 25 27 27 28 30 32 30 30 34 35 36 38 31 33 32 25 26 27 30 30 28 30 30 30 29 29 29 30 30 30 30 30 29
18 19 23 24 23 26 32 34 31 35 29 31 37 31 33 37 38 38 32 29 27 31 34 33 36 42 36 41 43 41 42 35 30 31 31 31 31 32 32 31 33 31 29 28 31 30 30 31 31 31 30 31 32 31
21 28 27 28 27 30 34 33 34 34 35 34 33 31 33 38 38 34 28 28 27 33 33 33 36 31 34 38 33 31 34 37 34 33 35 32 29 27 31 29 32 32 31 30 32 31 31 30 32 31 32 33 32 32
22 26 28 29 33 30 31 32 33 30 31 39 34 32 34 42 33 34 30 27 27 28 29 33 33 31 27 27 28 30 37 33 31 28 29 32 31 31 29 30 30 31 33 30 28 30 31 32 32 32 32 32 32 32
26 34 29 32 31 27 31 27 31 32 37 34 35 39 42 36 32 30 30 30 29 29 29 28 26 26 27 28 24 25 26 34 32 27 27 32 30 27 27 27 28 27 33 32 31 31 31 32 33 33 31 31 31 32
28 30 38 41 36 34 35 37 37 35 34 31 33 35 34 31 32 28 31 30 26 28 28 28 27 25 23 24 26 27 32 32 28 27 31 31 30 30 28 28 28 28 33 33 33 34 34 33 33 32 32 30 30 31
34 37 27 34 35 38 32 36 35 33 32 36 34 30 29 27 27 29 28 28 30 30 30 28 28 27 26 25 26 26 29 30 30 29 30 31 34 33 33 32 31 26 29 31 31 31 33 33 32 31 30 30 29 28
33 38 34 33 35 33 31 28 28 32 36 35 30 30 28 29 33 33 31 33 34 33 32 32 28 30 28 25 27 27 27 26 24 25 27 25 26 27 31 34 34 33 33 34 29 24 25 27 28 30 31 30 30 31
35 37 31 32 29 27 31 35 35 39 38 39 40 36 33 32 33 38 39 39 36 35 35 36 35 32 26 24 23 26 28 28 26 24 24 25 27 32 37 36 34 34 34 37 31 31 28 30 31 34 33 33 32 33
35 35 32 31 31 34 37 40 41 40 42 44 46 41 38 40 38 39 40 41 41 42 39 34 31 26 24 24 22 22 23 28 29 28 29 33 35 37 37 34 34 36 38 37 36 37 34 33 35 37 36 36 35 34
32 31 30 28 30 37 39 40 42 41 43 42 42 49 44 43 38 32 35 38 34 26 22 21 21 23 23 23 23 24 25 26 27 27 31 32 35 34 34 35 39 41 39 35 36 36 37 38 36 36 36 36 35 35
33 32 33 31 31 31 35 38 39 39 41 42 42 46 46 41 34 30 33 34 28 25 23 22 23 23 23 23 24 25 25 26 28 25 24 25 26 27 35 38 40 40 38 36 36 36 37 38 37 37 36 37 37 36

GFSWCAN_con_lsi_141.txt.gz
Lid_Strength_Index
1 1 1 0 1 1 1 1 1 1 1 1 1 2 3 3 3 5 8 6 6 11 11 10 10 10 9 7 10 11 9 10 10 12 11 12 12 12 13 11 12 13 14 14 14 16 17 7 7 10 12 13 13 14
1 1 1 1 1 1 1 1 2 2 2 2 2 2 2 3 3 4 8 7 6 10 11 9 9 8 9 9 8 9 9 9 8 10 10 10 12 11 11 14 9 13 10 11 11 12 8 10 11 13 15 16 15 16
2 2 2 2 1 1 2 2 2 2 3 3 3 3 3 4 4 5 8 9 7 10 10 10 11 8 7 7 6 10 9 7 8 6 9 9 12 10 13 12 10 9 10 10 10 8 11 11 13 15 16 17 16 16
2 3 3 3 3 2 2 1 2 3 3 3 4 4 4 4 5 6 9 9 7 10 12 12 7 9 7 5 6 6 7 7 7 6 9 10 11 8 11 10 11 13 13 13 12 10 15 11 15 17 17 16 17 17
2 3 3 3 4 3 3 2 2 2 3 3 4 4 5 5 5 6 7 8 8 7 13 12 9 9 7 7 7 6 7 8 9 9 10 11 9 10 9 10 11 18 18 15 13 18 20 18 16 18 18 19 19 19
3 3 3 3 4 4 4 3 3 3 3 3 3 4 4 5 6 5 9 7 9 7 9 13 11 12 11 8 9 9 8 8 8 8 9 9 11 11 12 12 20 19 19 19 20 19 20 20 18 17 20 20 20 20
4 4 3 3 4 4 4 4 4 3 3 4 4 4 4 5 7 10 11 10 8 7 9 12 12 13 12 9 9 9 9 9 8 8 9 9 12 11 13 14 20 20 20 20 20 22 21 20 22 21 21 21 21 21
4 4 4 4 4 4 4 4 4 4 3 3 5 6 6 5 6 9 9 9 8 8 8 11 14 12 13 11 11 10 9 8 8 8 10 12 14 14 16 20 21 21 22 21 22 22 23 22 22 23 22 23 24 24
5 5 5 5 4 4 4 5 5 5 4 4 4 5 6 10 9 10 7 9 11 9 13 13 12 14 13 14 12 10 10 12 8 10 12 12 15 16 19 21 22 23 24 25 24 25 24 26 25 25 25 25 26 25
5 5 5 5 5 5 5 5 5 5 6 6 6 7 9 11 9 8 8 9 13 15 15 20 21 16 15 14 14 12 12 11 13 13 13 15 15 20 21 22 22 23 23 24 27 26 27 27 28 27 27 26 26 26
6 6 6 6 6 6 6 5 5 6 6 7 9 11 11 10 8 11 15 15 17 17 21 22 22 18 17 16 16 14 14 14 15 15 15 16 17 19 21 22 22 23 23 24 24 25 26 26 28 28 27 26 26 27
6 7 6 6 7 7 7 7 6 9 10 11 11 12 10 13 11 15 21 18 19 21 22 21 21 21 19 17 16 16 15 15 16 15 15 17 19 22 22 23 23 24 25 25 24 25 25 26 26 27 27 27 28 27
6 7 7 6 7 7 8 8 8 9 9 9 9 13 11 16 17 16 19 18 17 22 23 22 19 21 19 17 17 16 17 16 16 16 16 16 20 21 23 24 24 24 24 24 24 24 25 25 25 26 26 26 27 27
6 8 7 7 7 8 9 9 10 12 10 13 12 16 17 16 19 19 18 20 22 21 22 22 21 19 20 17 16 16 17 17 17 18 17 17 19 22 22 22 24 23 24 24 24 25 25 26 26 25 25 25 26 27
7 9 8 7 7 9 10 11 13 16 15 17 14 19 20 24 24 25 27 24 23 23 22 21 21 19 18 18 17 17 18 17 16 16 16 17 21 22 22 23 23 24 25 24 24 25 25 26 26 26 25 26 27 27
8 11 10 7 8 10 11 14 16 17 21 19 21 22 27 22 22 24 24 22 23 22 23 23 19 18 17 18 18 16 17 17 16 16 17 20 23 23 24 24 24 25 25 25 25 25 25 26 27 27 26 26 28 27
10 12 9 8 9 12 12 15 16 23 20 20 24 28 23 21 20 22 23 24 24 24 19 20 19 17 20 18 18 18 16 15 16 17 19 20 21 22 23 24 25 26 26 26 27 27 27 26 26 26 28 27 28 27
12 11 9 9 12 15 20 19 19 19 23 25 20 23 26 26 23 25 26 26 25 23 23 20 21 20 18 18 16 15 16 17 18 18 19 20 21 23 23 23 25 26 26 28 29 29 29 29 26 26 27 27 27 26
10 10 10 11 14 17 17 21 21 22 26 27 28 28 27 28 31 30 29 29 29 28 25 24 22 18 16 16 15 16 17 17 18 20 20 23 23 25 26 26 28 27 29 28 26 26 26 28 27 27 27 27 27 26
11 11 11 14 14 15 19 22 22 20 22 26 28 26 25 26 30 31 31 29 27 26 25 24 19 15 15 16 17 17 18 19 19 21 20 21 23 27 25 24 23 26 26 26 26 28 25 24 25 26 27 28 28 28
14 14 14 17 21 23 24 25 25 27 28 24 30 27 26 29 28 28 28 32 28 25 21 19 18 20 26 26 25 23 22 21 19 18 18 20 23 24 23 25 27 26 25 25 24 23 26 25 26 26 27 26 26 27
17 15 17 17 20 23 26 29 25 28 25 28 27 28 24 23 25 28 34 30 25 20 21 20 21 23 26 26 26 27 28 27 29 27 29 26 23 24 24 23 25 23 24 24 24 24 24 25 26 26 27 27 27 27
18 18 19 19 21 22 30 29 25 28 23 24 28 24 24 25 30 33 29 23 22 26 28 28 30 33 29 32 34 32 34 30 25 24 24 24 24 25 25 25 26 25 24 24 26 26 26 28 27 28 27 27 28 27
20 25 24 24 22 27 29 27 27 26 26 25 24 25 25 27 33 29 25 21 21 27 29 28 30 26 28 30 26 23 27 30 26 27 27 26 24 23 25 24 26 26 25 26 27 27 27 27 29 28 29 29 29 29
22 25 25 28 28 26 26 26 27 25 25 28 27 26 28 33 26 26 24 21 22 23 25 28 28 26 22 20 21 23 30 27 25 23 24 26 24 26 25 26 26 26 28 27 26 27 28 29 29 29 30 30 30 31
24 30 26 25 26 23 23 23 25 25 27 27 27 31 32 28 28 25 23 22 22 23 24 25 24 23 23 23 20 21 23 28 25 23 23 26 25 22 22 23 24 25 28 28 28 29 29 29 30 31 30 30 31 31
25 26 31 35 30 29 28 31 31 27 26 26 26 29 28 28 26 23 23 24 23 23 25 24 24 23 22 22 22 24 27 28 25 24 26 26 25 25 24 24 25 25 29 30 30 30 30 31 30 30 29 29 29 29
30 31 26 30 29 31 25 25 25 25 25 28 27 27 26 24 23 22 22 24 25 26 27 26 25 25 25 23 23 24 26 27 26 27 26 27 28 28 28 28 28 24 27 28 28 28 30 30 30 29 29 29 29 29
29 32 30 29 29 28 25 23 23 26 29 27 25 25 25 24 26 26 25 27 29 30 29 28 27 26 26 25 25 24 24 24 23 22 22 21 23 25 28 28 29 29 29 30 27 23 25 26 25 28 31 30 30 31
30 34 27 27 24 22 28 31 30 34 34 35 36 32 30 29 29 31 31 29 28 27 28 30 30 30 28 25 23 24 25 24 23 21 20 21 22 26 29 30 30 30 30 31 29 29 27 29 29 32 32 32 31 32
32 31 26 25 25 30 33 36 36 36 36 36 39 36 33 36 35 31 31 30 30 30 28 28 32 30 28 24 22 22 22 24 25 24 25 26 29 31 31 31 30 31 33 33 33 34 32 32 33 35 34 34 34 34
28 27 24 23 26 33 34 33 33 32 35 35 34 40 36 35 31 27 28 31 29 25 23 21 21 22 22 22 21 21 22 23 24 25 27 28 30 31 31 31 34 34 34 32 33 33 34 36 35 34 34 35 35 35
29 28 29 27 27 28 31 32 31 31 34 33 33 37 37 36 31 27 28 29 26 25 25 22 21 21 21 21 21 22 23 23 24 22 23 24 26 27 31 33 34 35 35 33 32 33 35 36 35 35 35 35 35 35